[[{"header":{"parameterUnit":"m.s-1","parameterCategory":1,"la1":31.0,"la2":29.5877,"lo1":-88.7671,"lo2":-86.6584,"dx":0.0162,"dy":0.0185,"nx":115,"ny":88,"refTime":"2023-01-09T06:00:00:Z","depth":0,"parameterNumber":2,"parameterNumberName":"U-component_of_WINDS"},"data":[0.0,0.0,0.0,0.0,0.0,0.0,0.0,0.0,0.0,0.0,0.0,0.0,0.0,0.0,0.0,0.0,0.0,0.0,0.0,0.0,0.0,0.0,0.0,0.0,0.0,0.0,0.0,0.0,0.0,0.0,0.0,0.0,0.0,0.0,0.0,0.0,0.0,0.0,0.0,0.0,0.0,0.0,0.0,0.0,0.0,0.0,0.0,0.0,0.0,0.0,0.0,0.0,0.0,0.0,0.0,0.0,0.0,0.0,0.0,0.0,0.0,0.0,0.0,0.0,0.0,0.0,0.0,0.0,0.0,0.0,0.0,0.0,0.0,0.0,0.0,0.0,0.0,0.0,0.0,0.0,0.0,0.0,0.0,0.0,0.0,0.0,0.0,0.0,0.0,0.0,0.0,0.0,0.0,0.0,0.0,0.0,0.0,0.0,0.0,0.0,0.0,0.0,0.0,0.0,0.0,0.0,0.0,0.0,0.0,0.0,0.0,0.0,0.0,0.0,0.0,0.0,0.0,0.0,0.0,0.0,0.0,0.0,0.0,0.0,0.0,0.0,0.0,0.0,0.0,0.0,0.0,0.0,0.0,0.0,0.0,0.0,0.0,0.0,0.0,0.0,0.0,0.0,0.0,0.0,0.0,0.0,0.0,0.0,0.0,0.0,0.0,0.0,0.0,0.0,0.0,0.0,0.0,0.0,0.0,0.0,0.0,0.0,0.0,0.0,0.0,0.0,0.0,0.0,0.0,0.0,0.0,0.0,0.0,0.0,0.0,0.0,0.0,0.0,0.0,0.0,0.0,0.0,0.0,0.0,0.0,0.0,0.0,0.0,0.0,0.0,0.0,0.0,0.0,0.0,0.0,0.0,0.0,0.0,0.0,0.0,0.0,0.0,0.0,0.0,0.0,0.0,0.0,0.0,0.0,0.0,0.0,0.0,0.0,0.0,0.0,0.0,0.0,0.0,0.0,0.0,0.0,0.0,0.0,0.0,0.0,0.0,0.0,0.0,0.0,0.0,0.0,0.0,0.0,0.0,0.0,0.0,0.0,0.0,0.0,0.0,0.0,0.0,0.0,0.0,0.0,0.0,0.0,0.0,0.0,0.0,0.0,0.0,0.0,0.0,0.0,0.0,0.0,0.0,0.0,0.0,0.0,0.0,0.0,0.0,0.0,0.0,0.0,0.0,0.0,0.0,0.0,0.0,0.0,0.0,0.0,0.0,0.0,0.0,0.0,0.0,0.0,0.0,0.0,0.0,0.0,0.0,0.0,0.0,0.0,0.0,0.0,0.0,0.0,0.0,0.0,0.0,0.0,0.0,0.0,0.0,0.0,0.0,0.0,0.0,0.0,0.0,0.0,0.0,0.0,0.0,0.0,0.0,0.0,0.0,0.0,0.0,0.0,0.0,0.0,0.0,0.0,0.0,0.0,0.0,0.0,0.0,0.0,0.0,0.0,0.0,0.0,0.0,0.0,0.0,0.0,0.0,0.0,0.0,0.0,0.0,0.0,0.0,0.0,0.0,0.0,0.0,0.0,0.0,0.0,0.0,0.0,0.0,0.0,0.0,0.0,0.0,0.0,0.0,0.0,0.0,0.0,0.0,0.0,0.0,0.0,0.0,0.0,0.0,0.0,0.0,0.0,0.0,0.0,0.0,0.0,0.0,0.0,0.0,0.0,0.0,0.0,0.0,0.0,0.0,0.0,0.0,0.0,0.0,0.0,0.0,0.0,0.0,0.0,0.0,0.0,0.0,0.0,0.0,0.0,0.0,0.0,0.0,0.0,0.0,0.0,0.0,0.0,0.0,0.0,0.0,0.0,0.0,0.0,0.0,0.0,0.0,0.0,0.0,0.0,0.0,0.0,0.0,0.0,0.0,0.0,0.0,0.0,0.0,0.0,0.0,0.0,0.0,0.0,0.0,0.0,0.0,0.0,0.0,0.0,0.0,0.0,0.0,0.0,0.0,0.0,0.0,0.0,0.0,0.0,0.0,0.0,0.0,0.0,0.0,0.0,0.0,0.0,0.0,0.0,0.0,0.0,0.0,0.0,0.0,0.0,0.0,0.0,0.0,0.0,0.0,0.0,0.0,0.0,0.0,0.0,0.0,0.0,0.0,0.0,0.0,0.0,0.0,0.0,0.0,0.0,0.0,0.0,0.0,0.0,0.0,0.0,0.0,0.0,0.0,0.0,0.0,0.0,0.0,0.0,0.0,0.0,0.0,0.0,0.0,0.0,0.0,0.0,0.0,0.0,0.0,0.0,0.0,0.0,0.0,0.0,0.0,0.0,0.0,0.0,0.0,0.0,0.0,0.0,0.0,0.0,0.0,0.0,0.0,0.0,0.0,0.0,0.0,0.0,0.0,0.0,0.0,0.0,0.0,0.0,0.0,0.0,0.0,0.0,0.0,0.0,0.0,0.0,0.0,0.0,0.0,0.0,0.0,0.0,0.0,0.0,0.0,0.0,0.0,0.0,0.0,0.0,0.0,0.0,0.0,0.0,0.0,0.0,0.0,0.0,0.0,0.0,0.0,0.0,0.0,0.0,0.0,0.0,0.0,0.0,0.0,0.0,0.0,0.0,0.0,0.0,0.0,0.0,0.0,0.0,0.0,0.0,0.0,0.0,0.0,0.0,0.0,0.0,0.0,0.0,0.0,0.0,0.0,0.0,0.0,0.0,0.0,0.0,0.0,0.0,0.0,0.0,0.0,0.0,0.0,0.0,0.0,0.0,0.0,0.0,0.0,0.0,0.0,0.0,0.0,0.0,0.0,0.0,0.0,0.0,0.0,0.0,0.0,0.0,0.0,0.0,0.0,0.0,0.0,0.0,0.0,0.0,0.0,0.0,0.0,0.0,0.0,0.0,0.0,0.0,0.0,0.0,0.0,0.0,0.0,0.0,0.0,0.0,0.0,0.0,0.0,0.0,0.0,0.0,0.0,0.0,0.0,0.0,0.0,0.0,0.0,0.0,0.0,0.0,0.0,0.0,0.0,0.0,0.0,0.0,0.0,0.0,0.0,0.0,0.0,0.0,0.0,0.0,0.0,0.0,0.0,0.0,0.0,0.0,0.0,0.0,0.0,0.0,0.0,0.0,0.0,0.0,0.0,0.0,0.0,0.0,0.0,0.0,0.0,0.0,0.0,0.0,0.0,0.0,0.0,0.0,0.0,0.0,0.0,0.0,0.0,0.0,0.0,0.0,0.0,0.0,0.0,0.0,0.0,0.0,0.0,0.0,0.0,0.0,0.0,0.0,0.0,0.0,0.0,0.0,0.0,0.0,0.0,0.0,0.0,0.0,0.0,0.0,0.0,0.0,0.0,0.0,0.0,0.0,0.0,0.0,0.0,0.0,0.0,0.0,0.0,0.0,0.0,0.0,0.0,0.0,0.0,0.0,0.0,0.0,0.0,0.0,0.0,0.0,0.0,0.0,0.0,0.0,0.0,0.0,0.0,0.0,0.0,0.0,0.0,0.0,0.0,0.0,0.0,0.0,0.0,0.0,0.0,0.0,0.0,0.0,0.0,0.0,0.0,0.0,0.0,0.0,0.0,0.0,0.0,0.0,0.0,0.0,0.0,0.0,0.0,0.0,0.0,0.0,0.0,0.0,0.0,0.0,0.0,0.0,0.0,0.0,0.0,0.0,0.0,0.0,0.0,0.0,0.0,0.0,0.0,0.0,0.0,0.0,0.0,0.0,0.0,0.0,0.0,0.0,0.0,0.0,0.0,0.0,0.0,0.0,0.0,0.0,0.0,0.0,0.0,0.0,0.0,0.0,0.0,0.0,0.0,0.0,0.0,0.0,0.0,0.0,0.0,0.0,0.0,0.0,0.0,0.0,0.0,0.0,0.0,0.0,0.0,0.0,0.0,0.0,0.0,0.0,0.0,0.0,0.0,0.0,0.0,0.0,0.0,0.0,0.0,0.0,0.0,0.0,0.0,0.0,0.0,0.0,0.0,0.0,0.0,0.0,0.0,0.0,0.0,0.0,0.0,0.0,0.0,0.0,0.0,0.0,0.0,0.0,0.0,0.0,0.0,0.0,0.0,0.0,0.0,0.0,0.0,0.0,0.0,0.0,0.0,0.0,0.0,0.0,0.0,0.0,0.0,0.0,0.0,0.0,0.0,0.0,0.0,0.0,0.0,0.0,0.0,0.0,0.0,0.0,0.0,0.0,0.0,0.0,0.0,0.0,0.0,0.0,0.0,0.0,0.0,0.0,0.0,0.0,0.0,0.0,0.0,0.0,0.0,0.0,0.0,3.4504,0.0,0.0,0.0,3.3907,0.0,0.0,0.0,0.0,0.0,0.0,0.0,0.0,0.0,0.0,0.0,0.0,0.0,0.0,0.0,0.0,0.0,0.0,0.0,0.0,0.0,0.0,0.0,0.0,0.0,0.0,0.0,0.0,0.0,0.0,0.0,0.0,0.0,0.0,0.0,0.0,0.0,0.0,0.0,0.0,0.0,0.0,0.0,0.0,0.0,0.0,0.0,0.0,0.0,0.0,0.0,0.0,0.0,0.0,0.0,0.0,0.0,0.0,0.0,0.0,0.0,0.0,0.0,0.0,0.0,0.0,0.0,0.0,0.0,0.0,0.0,0.0,0.0,0.0,0.0,0.0,0.0,0.0,0.0,0.0,0.0,0.0,0.0,0.0,0.0,0.0,0.0,0.0,0.0,0.0,0.0,0.0,0.0,0.0,0.0,0.0,0.0,0.0,0.0,0.0,0.0,0.0,0.0,0.0,0.0,0.0,0.0,0.0,0.0,0.0,3.5532,3.5165,3.5027,3.489,3.4618,0.0,0.0,0.0,0.0,0.0,0.0,0.0,0.0,0.0,0.0,0.0,0.0,0.0,0.0,0.0,0.0,0.0,0.0,0.0,0.0,0.0,0.0,0.0,0.0,0.0,0.0,0.0,0.0,0.0,0.0,0.0,0.0,0.0,0.0,0.0,0.0,0.0,0.0,0.0,0.0,0.0,0.0,0.0,0.0,0.0,0.0,0.0,0.0,0.0,0.0,0.0,0.0,0.0,0.0,0.0,0.0,0.0,0.0,0.0,0.0,0.0,0.0,0.0,0.0,0.0,0.0,0.0,0.0,0.0,0.0,0.0,0.0,0.0,0.0,0.0,0.0,0.0,0.0,0.0,0.0,0.0,0.0,0.0,0.0,0.0,0.0,0.0,0.0,0.0,0.0,0.0,0.0,0.0,0.0,0.0,0.0,0.0,0.0,0.0,0.0,0.0,0.0,0.0,0.0,0.0,0.0,0.0,0.0,0.0,0.0,0.0,0.0,3.5826,3.534,3.4806,0.0,0.0,0.0,0.0,0.0,0.0,0.0,0.0,0.0,0.0,0.0,0.0,0.0,0.0,0.0,0.0,0.0,0.0,0.0,0.0,0.0,0.0,0.0,0.0,0.0,0.0,0.0,0.0,0.0,0.0,0.0,0.0,0.0,0.0,0.0,0.0,0.0,0.0,0.0,0.0,0.0,0.0,0.0,0.0,0.0,0.0,0.0,0.0,0.0,0.0,0.0,0.0,0.0,0.0,0.0,0.0,0.0,0.0,0.0,0.0,0.0,0.0,0.0,0.0,0.0,0.0,0.0,0.0,0.0,0.0,0.0,0.0,0.0,0.0,0.0,0.0,0.0,0.0,0.0,0.0,0.0,0.0,0.0,0.0,0.0,0.0,0.0,0.0,0.0,0.0,0.0,0.0,0.0,0.0,0.0,0.0,0.0,0.0,0.0,0.0,0.0,0.0,0.0,0.0,0.0,0.0,0.0,0.0,0.0,0.0,3.7037,3.634,3.6927,0.0,3.4171,0.0,0.0,0.0,0.0,0.0,0.0,0.0,0.0,0.0,0.0,0.0,0.0,0.0,0.0,0.0,0.0,0.0,0.0,0.0,0.0,0.0,0.0,0.0,0.0,0.0,0.0,0.0,0.0,0.0,0.0,0.0,0.0,0.0,0.0,0.0,0.0,0.0,0.0,0.0,0.0,0.0,0.0,0.0,0.0,0.0,0.0,0.0,0.0,0.0,0.0,0.0,0.0,0.0,0.0,0.0,0.0,0.0,0.0,0.0,0.0,0.0,0.0,0.0,0.0,0.0,0.0,0.0,0.0,0.0,0.0,0.0,0.0,0.0,0.0,0.0,0.0,0.0,0.0,0.0,0.0,0.0,0.0,0.0,0.0,0.0,0.0,0.0,0.0,0.0,0.0,0.0,0.0,0.0,0.0,0.0,0.0,0.0,0.0,0.0,0.0,0.0,0.0,0.0,0.0,0.0,0.0,0.0,0.0,0.0,0.0,3.8065,3.7734,3.711,3.6111,0.0,0.0,0.0,0.0,0.0,0.0,0.0,0.0,0.0,0.0,0.0,0.0,0.0,0.0,0.0,0.0,0.0,0.0,0.0,0.0,0.0,0.0,0.0,0.0,0.0,0.0,0.0,0.0,0.0,0.0,0.0,0.0,0.0,0.0,0.0,0.0,0.0,0.0,0.0,0.0,0.0,0.0,0.0,0.0,0.0,0.0,0.0,0.0,0.0,0.0,0.0,0.0,0.0,0.0,0.0,0.0,0.0,0.0,0.0,0.0,0.0,0.0,0.0,0.0,0.0,0.0,0.0,0.0,0.0,0.0,0.0,0.0,0.0,0.0,0.0,0.0,0.0,0.0,0.0,0.0,0.0,0.0,0.0,0.0,0.0,0.0,0.0,0.0,0.0,0.0,0.0,0.0,0.0,0.0,0.0,0.0,0.0,0.0,0.0,0.0,0.0,0.0,0.0,0.0,0.0,0.0,0.0,0.0,0.0,0.0,3.8145,3.8689,3.8615,3.7147,3.5789,3.4724,0.0,0.0,0.0,0.0,0.0,0.0,0.0,0.0,0.0,0.0,0.0,0.0,0.0,0.0,0.0,0.0,0.0,0.0,0.0,0.0,0.0,0.0,0.0,0.0,0.0,0.0,0.0,0.0,0.0,0.0,0.0,0.0,0.0,0.0,0.0,0.0,0.0,0.0,0.0,0.0,0.0,0.0,0.0,0.0,0.0,0.0,0.0,0.0,0.0,0.0,0.0,0.0,0.0,0.0,0.0,0.0,0.0,0.0,0.0,0.0,0.0,0.0,0.0,0.0,0.0,0.0,0.0,0.0,0.0,0.0,0.0,0.0,0.0,0.0,0.0,0.0,0.0,0.0,0.0,0.0,0.0,0.0,0.0,0.0,0.0,0.0,0.0,0.0,0.0,0.0,0.0,0.0,0.0,0.0,0.0,0.0,0.0,0.0,0.0,0.0,0.0,0.0,0.0,0.0,0.0,0.0,0.0,0.0,3.6437,3.79,3.8689,3.8689,3.7147,3.5532,0.0,0.0,0.0,0.0,0.0,0.0,0.0,0.0,0.0,0.0,0.0,0.0,0.0,0.0,0.0,0.0,0.0,0.0,0.0,0.0,0.0,0.0,0.0,0.0,0.0,0.0,0.0,0.0,0.0,0.0,0.0,0.0,0.0,0.0,0.0,0.0,0.0,0.0,0.0,0.0,0.0,0.0,0.0,0.0,0.0,0.0,0.0,0.0,0.0,0.0,0.0,0.0,0.0,0.0,0.0,0.0,0.0,0.0,0.0,0.0,0.0,0.0,0.0,0.0,0.0,0.0,0.0,0.0,0.0,0.0,0.0,0.0,0.0,0.0,0.0,0.0,0.0,0.0,0.0,0.0,0.0,0.0,0.0,0.0,0.0,0.0,0.0,0.0,0.0,0.0,0.0,0.0,0.0,0.0,0.0,0.0,0.0,0.0,0.0,0.0,0.0,0.0,0.0,0.0,0.0,0.0,0.0,0.0,0.0,3.7113,3.8151,3.8977,3.9412,3.7463,3.5873,0.0,0.0,0.0,0.0,0.0,0.0,0.0,0.0,0.0,0.0,0.0,0.0,0.0,0.0,0.0,0.0,0.0,0.0,0.0,0.0,0.0,0.0,0.0,0.0,0.0,0.0,0.0,0.0,0.0,0.0,0.0,0.0,0.0,0.0,0.0,0.0,0.0,0.0,0.0,0.0,0.0,0.0,0.0,0.0,0.0,0.0,0.0,0.0,0.0,0.0,0.0,0.0,0.0,0.0,0.0,0.0,0.0,0.0,0.0,0.0,0.0,0.0,0.0,0.0,0.0,0.0,0.0,0.0,0.0,0.0,0.0,0.0,0.0,0.0,0.0,0.0,0.0,0.0,0.0,0.0,0.0,0.0,0.0,0.0,0.0,0.0,0.0,0.0,0.0,0.0,0.0,0.0,0.0,0.0,0.0,0.0,0.0,0.0,0.0,0.0,0.0,0.0,0.0,0.0,0.0,0.0,0.0,0.0,0.0,3.823,3.9061,3.9638,3.9915,3.7927,3.6187,0.0,0.0,0.0,0.0,0.0,0.0,0.0,0.0,0.0,0.0,0.0,0.0,0.0,0.0,0.0,0.0,0.0,0.0,0.0,0.0,0.0,0.0,0.0,0.0,0.0,0.0,0.0,0.0,0.0,0.0,0.0,0.0,0.0,0.0,0.0,0.0,0.0,0.0,0.0,0.0,0.0,0.0,0.0,0.0,0.0,0.0,0.0,0.0,0.0,0.0,0.0,0.0,0.0,0.0,0.0,0.0,0.0,0.0,0.0,0.0,0.0,0.0,0.0,0.0,0.0,0.0,0.0,0.0,0.0,0.0,0.0,0.0,0.0,0.0,0.0,0.0,0.0,0.0,0.0,0.0,0.0,0.0,0.0,0.0,0.0,0.0,0.0,0.0,0.0,0.0,0.0,0.0,0.0,0.0,0.0,0.0,0.0,0.0,0.0,0.0,0.0,0.0,0.0,0.0,0.0,0.0,0.0,0.0,3.7551,3.9827,4.0671,4.0777,4.0031,3.8516,3.6546,0.0,0.0,0.0,0.0,0.0,0.0,0.0,0.0,0.0,0.0,0.0,0.0,0.0,0.0,0.0,0.0,0.0,0.0,0.0,0.0,0.0,0.0,0.0,0.0,0.0,0.0,0.0,0.0,0.0,0.0,0.0,0.0,0.0,0.0,0.0,0.0,0.0,0.0,0.0,0.0,0.0,0.0,0.0,0.0,0.0,0.0,0.0,0.0,0.0,0.0,0.0,0.0,0.0,0.0,0.0,0.0,0.0,0.0,0.0,0.0,0.0,0.0,0.0,0.0,0.0,0.0,0.0,0.0,0.0,0.0,0.0,0.0,0.0,0.0,0.0,0.0,0.0,0.0,0.0,0.0,0.0,0.0,0.0,0.0,0.0,0.0,0.0,0.0,0.0,0.0,0.0,0.0,0.0,0.0,0.0,0.0,0.0,0.0,0.0,0.0,0.0,0.0,0.0,0.0,0.0,0.0,0.0,0.0,0.0,4.1515,4.1809,4.2169,4.2521,4.0456,3.8227,0.0,0.0,0.0,0.0,0.0,0.0,0.0,0.0,0.0,0.0,0.0,0.0,0.0,0.0,0.0,0.0,0.0,0.0,0.0,0.0,0.0,0.0,0.0,0.0,0.0,0.0,0.0,0.0,0.0,0.0,0.0,0.0,0.0,0.0,0.0,0.0,0.0,0.0,0.0,0.0,0.0,0.0,0.0,0.0,0.0,0.0,0.0,0.0,0.0,0.0,0.0,0.0,0.0,0.0,0.0,0.0,0.0,0.0,0.0,0.0,0.0,0.0,0.0,0.0,0.0,0.0,0.0,0.0,0.0,0.0,0.0,0.0,0.0,0.0,0.0,0.0,0.0,0.0,0.0,0.0,0.0,0.0,0.0,0.0,0.0,0.0,0.0,0.0,0.0,0.0,0.0,0.0,0.0,0.0,0.0,0.0,0.0,0.0,0.0,0.0,0.0,0.0,0.0,0.0,0.0,0.0,0.0,0.0,0.0,4.4452,4.4232,4.4412,4.5065,4.2705,4.0037,3.7182,0.0,0.0,0.0,0.0,0.0,0.0,0.0,0.0,0.0,0.0,0.0,0.0,0.0,0.0,0.0,0.0,0.0,0.0,0.0,0.0,0.0,0.0,0.0,0.0,0.0,0.0,0.0,0.0,0.0,0.0,0.0,0.0,0.0,0.0,0.0,0.0,0.0,0.0,0.0,0.0,0.0,0.0,0.0,0.0,0.0,0.0,0.0,0.0,0.0,0.0,0.0,0.0,0.0,0.0,0.0,0.0,0.0,0.0,0.0,0.0,0.0,0.0,0.0,0.0,0.0,0.0,0.0,0.0,0.0,0.0,0.0,0.0,0.0,0.0,0.0,0.0,0.0,0.0,0.0,0.0,0.0,0.0,0.0,0.0,0.0,0.0,0.0,0.0,0.0,0.0,0.0,0.0,0.0,0.0,0.0,0.0,0.0,0.0,0.0,0.0,0.0,0.0,0.0,0.0,0.0,0.0,0.0,0.0,4.8526,4.7902,4.7499,4.7353,4.5072,4.1972,0.0,0.0,0.0,0.0,0.0,0.0,0.0,0.0,0.0,0.0,0.0,0.0,0.0,0.0,0.0,0.0,0.0,0.0,0.0,0.0,0.0,0.0,0.0,0.0,0.0,0.0,0.0,0.0,0.0,0.0,0.0,0.0,0.0,0.0,0.0,0.0,0.0,0.0,0.0,0.0,0.0,0.0,0.0,0.0,0.0,0.0,0.0,0.0,0.0,0.0,0.0,0.0,0.0,0.0,0.0,0.0,0.0,0.0,0.0,0.0,0.0,0.0,0.0,0.0,0.0,0.0,0.0,0.0,0.0,0.0,0.0,0.0,0.0,0.0,0.0,0.0,0.0,0.0,0.0,0.0,0.0,0.0,0.0,0.0,0.0,0.0,0.0,0.0,0.0,0.0,0.0,0.0,0.0,0.0,0.0,0.0,0.0,0.0,0.0,0.0,0.0,0.0,0.0,0.0,0.0,0.0,0.0,0.0,0.0,5.1715,5.2307,5.1687,4.9965,4.7537,4.4699,0.0,0.0,0.0,0.0,0.0,0.0,0.0,0.0,0.0,0.0,0.0,0.0,0.0,0.0,0.0,0.0,0.0,0.0,0.0,0.0,0.0,0.0,0.0,0.0,0.0,0.0,0.0,0.0,0.0,0.0,0.0,0.0,0.0,0.0,0.0,0.0,0.0,0.0,0.0,0.0,0.0,0.0,0.0,0.0,0.0,0.0,0.0,0.0,0.0,0.0,0.0,0.0,0.0,0.0,0.0,0.0,0.0,0.0,0.0,0.0,0.0,0.0,0.0,0.0,0.0,0.0,0.0,0.0,0.0,0.0,0.0,0.0,0.0,0.0,0.0,0.0,0.0,0.0,0.0,0.0,0.0,0.0,0.0,0.0,0.0,0.0,0.0,0.0,0.0,0.0,0.0,0.0,0.0,0.0,0.0,0.0,0.0,0.0,0.0,0.0,0.0,0.0,0.0,0.0,0.0,0.0,0.0,0.0,5.0598,5.4576,5.5831,5.5757,5.4448,5.0698,4.6911,0.0,0.0,0.0,0.0,0.0,0.0,0.0,0.0,0.0,0.0,0.0,0.0,0.0,0.0,0.0,0.0,0.0,0.0,0.0,0.0,0.0,0.0,0.0,0.0,0.0,0.0,0.0,0.0,0.0,0.0,0.0,0.0,0.0,0.0,0.0,0.0,0.0,0.0,0.0,0.0,0.0,0.0,0.0,0.0,0.0,0.0,0.0,0.0,0.0,0.0,0.0,0.0,0.0,0.0,0.0,0.0,0.0,0.0,0.0,0.0,0.0,0.0,0.0,0.0,0.0,0.0,0.0,0.0,0.0,0.0,0.0,0.0,0.0,0.0,0.0,0.0,0.0,0.0,0.0,0.0,0.0,0.0,0.0,0.0,0.0,0.0,0.0,0.0,0.0,0.0,0.0,0.0,0.0,0.0,0.0,0.0,0.0,0.0,0.0,0.0,0.0,0.0,0.0,0.0,0.0,0.0,0.0,0.0,5.3089,5.6969,5.8621,5.9428,5.9171,5.3885,4.8746,0.0,0.0,0.0,0.0,0.0,0.0,0.0,0.0,0.0,0.0,0.0,0.0,0.0,0.0,0.0,0.0,0.0,0.0,0.0,0.0,0.0,0.0,0.0,0.0,0.0,0.0,0.0,0.0,0.0,0.0,0.0,0.0,0.0,0.0,0.0,0.0,0.0,0.0,0.0,0.0,0.0,0.0,0.0,0.0,0.0,0.0,0.0,0.0,0.0,0.0,0.0,0.0,0.0,0.0,0.0,0.0,0.0,0.0,0.0,0.0,0.0,0.0,0.0,0.0,0.0,0.0,0.0,0.0,0.0,0.0,0.0,0.0,0.0,0.0,0.0,0.0,0.0,0.0,0.0,0.0,0.0,0.0,0.0,0.0,0.0,0.0,0.0,0.0,0.0,0.0,0.0,0.0,0.0,0.0,0.0,0.0,0.0,0.0,0.0,0.0,0.0,0.0,0.0,0.0,0.0,0.0,0.0,0.0,5.5301,5.8574,6.0272,6.0786,6.0162,5.4693,5.0362,0.0,0.0,0.0,0.0,0.0,0.0,0.0,0.0,0.0,0.0,0.0,0.0,0.0,0.0,0.0,0.0,0.0,0.0,0.0,0.0,0.0,0.0,0.0,0.0,0.0,0.0,0.0,0.0,0.0,0.0,0.0,0.0,0.0,0.0,0.0,0.0,0.0,0.0,0.0,0.0,0.0,0.0,0.0,0.0,0.0,0.0,0.0,0.0,4.2316,0.0,0.0,0.0,0.0,0.0,0.0,0.0,0.0,0.0,0.0,0.0,0.0,0.0,0.0,0.0,0.0,0.0,0.0,0.0,0.0,0.0,0.0,0.0,0.0,0.0,0.0,0.0,0.0,0.0,0.0,0.0,0.0,0.0,0.0,0.0,0.0,0.0,0.0,0.0,0.0,0.0,0.0,0.0,0.0,0.0,0.0,0.0,0.0,0.0,0.0,0.0,0.0,0.0,0.0,0.0,0.0,0.0,0.0,0.0,5.7219,6.0774,6.1741,6.1961,6.1374,5.6785,5.238,0.0,0.0,0.0,0.0,0.0,0.0,0.0,0.0,0.0,0.0,0.0,0.0,0.0,0.0,0.0,0.0,0.0,0.0,0.0,0.0,0.0,0.0,0.0,0.0,0.0,0.0,0.0,0.0,0.0,0.0,0.0,0.0,0.0,0.0,0.0,0.0,0.0,0.0,0.0,0.0,0.0,0.0,0.0,0.0,0.0,0.0,0.0,0.0,0.0,0.0,0.0,0.0,0.0,0.0,0.0,0.0,0.0,0.0,0.0,0.0,0.0,0.0,0.0,0.0,0.0,0.0,0.0,0.0,0.0,0.0,0.0,0.0,0.0,0.0,0.0,0.0,0.0,0.0,0.0,0.0,0.0,0.0,0.0,0.0,0.0,0.0,0.0,0.0,0.0,0.0,0.0,0.0,0.0,0.0,0.0,0.0,0.0,0.0,0.0,0.0,0.0,0.0,0.0,0.0,0.0,0.0,0.0,5.4725,5.9088,6.2792,6.3135,6.3135,6.2952,5.9098,5.4436,4.9077,0.0,0.0,0.0,0.0,0.0,0.0,0.0,0.0,0.0,0.0,0.0,0.0,0.0,0.0,0.0,0.0,0.0,0.0,0.0,0.0,0.0,0.0,0.0,0.0,0.0,0.0,0.0,0.0,0.0,0.0,0.0,0.0,0.0,0.0,0.0,0.0,0.0,0.0,3.9777,4.2047,0.0,0.0,0.0,0.0,0.0,0.0,0.0,0.0,4.2739,0.0,0.0,0.0,0.0,0.0,0.0,0.0,0.0,0.0,0.0,0.0,0.0,0.0,0.0,0.0,0.0,0.0,0.0,0.0,0.0,0.0,0.0,0.0,0.0,0.0,0.0,0.0,0.0,0.0,0.0,0.0,0.0,0.0,0.0,0.0,0.0,0.0,0.0,0.0,0.0,0.0,0.0,0.0,0.0,0.0,0.0,0.0,0.0,0.0,0.0,0.0,0.0,0.0,0.0,0.0,0.0,5.1529,5.6355,6.0471,6.3796,6.453,6.4567,6.3796,5.9942,5.5794,5.1536,0.0,0.0,0.0,0.0,0.0,0.0,0.0,0.0,0.0,0.0,0.0,0.0,0.0,0.0,0.0,0.0,0.0,0.0,0.0,0.0,0.0,0.0,0.0,0.0,0.0,0.0,0.0,0.0,0.0,0.0,0.0,0.0,0.0,0.0,0.0,0.0,0.0,0.0,0.0,4.447,4.547,0.0,0.0,0.0,0.0,0.0,0.0,0.0,0.0,4.3393,0.0,0.0,0.0,0.0,0.0,0.0,0.0,0.0,0.0,0.0,0.0,0.0,0.0,0.0,0.0,0.0,0.0,0.0,0.0,0.0,0.0,0.0,0.0,0.0,0.0,0.0,0.0,0.0,0.0,0.0,0.0,0.0,0.0,0.0,0.0,0.0,0.0,0.0,0.0,0.0,0.0,0.0,0.0,0.0,0.0,0.0,0.0,0.0,0.0,0.0,0.0,0.0,0.0,0.0,0.0,5.3809,5.9081,6.3272,6.6476,6.6549,6.5962,6.4714,6.1153,5.6969,0.0,0.0,0.0,0.0,0.0,0.0,0.0,0.0,0.0,0.0,0.0,0.0,0.0,0.0,0.0,0.0,0.0,0.0,0.0,0.0,0.0,0.0,0.0,0.0,0.0,0.0,0.0,0.0,0.0,0.0,0.0,0.0,0.0,0.0,0.0,0.0,0.0,0.0,0.0,0.0,4.6086,4.7048,4.7471,0.0,0.0,0.0,0.0,0.0,0.0,4.6163,4.5201,0.0,0.0,0.0,0.0,0.0,0.0,0.0,0.0,0.0,0.0,0.0,0.0,0.0,0.0,0.0,0.0,0.0,0.0,0.0,0.0,0.0,0.0,0.0,0.0,0.0,0.0,0.0,0.0,0.0,0.0,0.0,0.0,0.0,0.0,0.0,0.0,0.0,0.0,0.0,0.0,0.0,0.0,0.0,0.0,0.0,0.0,0.0,0.0,0.0,0.0,0.0,0.0,0.0,0.0,0.0,5.5794,6.1296,6.5661,6.866,6.8274,6.7173,6.5558,6.2218,5.785,0.0,0.0,0.0,0.0,0.0,0.0,0.0,0.0,0.0,0.0,0.0,0.0,0.0,0.0,0.0,0.0,0.0,0.0,0.0,0.0,0.0,0.0,0.0,0.0,0.0,0.0,0.0,0.0,0.0,0.0,0.0,0.0,0.0,0.0,0.0,0.0,0.0,0.0,0.0,0.0,0.0,4.874,4.9048,4.8297,0.0,0.0,0.0,0.0,4.876,4.8202,0.0,0.0,0.0,0.0,0.0,0.0,0.0,0.0,0.0,0.0,0.0,0.0,0.0,0.0,0.0,0.0,0.0,0.0,0.0,0.0,0.0,0.0,0.0,0.0,0.0,0.0,0.0,0.0,0.0,0.0,0.0,0.0,0.0,0.0,0.0,0.0,0.0,0.0,0.0,0.0,0.0,0.0,0.0,0.0,0.0,0.0,0.0,0.0,0.0,0.0,0.0,0.0,0.0,0.0,0.0,0.0,5.658,6.1604,6.5674,6.8697,6.8825,6.8017,6.6366,6.2511,5.8107,0.0,0.0,0.0,0.0,0.0,0.0,0.0,0.0,0.0,0.0,0.0,0.0,0.0,0.0,0.0,0.0,0.0,0.0,0.0,0.0,0.0,0.0,0.0,0.0,0.0,0.0,0.0,0.0,0.0,0.0,0.0,0.0,0.0,0.0,0.0,0.0,0.0,0.0,0.0,0.0,0.0,5.0933,5.2433,5.1241,5.0221,0.0,0.0,0.0,5.1336,5.0779,0.0,0.0,0.0,0.0,0.0,0.0,0.0,0.0,0.0,0.0,0.0,0.0,0.0,0.0,0.0,0.0,0.0,0.0,0.0,0.0,0.0,0.0,0.0,0.0,0.0,0.0,0.0,0.0,0.0,0.0,0.0,0.0,0.0,0.0,0.0,0.0,0.0,0.0,0.0,0.0,0.0,0.0,0.0,0.0,0.0,0.0,0.0,0.0,0.0,0.0,0.0,0.0,0.0,0.0,0.0,5.2957,5.8142,6.3889,6.8159,7.0844,7.0513,6.9265,6.721,6.3209,5.8584,0.0,0.0,0.0,0.0,0.0,0.0,0.0,0.0,0.0,0.0,0.0,0.0,0.0,0.0,0.0,0.0,0.0,0.0,0.0,0.0,0.0,0.0,0.0,0.0,0.0,0.0,0.0,0.0,0.0,0.0,0.0,0.0,0.0,0.0,0.0,0.0,0.0,0.0,0.0,0.0,0.0,0.0,5.3049,5.3007,0.0,0.0,0.0,5.2986,5.3336,0.0,0.0,0.0,0.0,0.0,0.0,0.0,0.0,0.0,0.0,0.0,0.0,0.0,0.0,0.0,0.0,0.0,0.0,0.0,0.0,0.0,0.0,0.0,0.0,0.0,0.0,0.0,0.0,0.0,0.0,0.0,0.0,0.0,0.0,0.0,0.0,0.0,0.0,0.0,0.0,0.0,0.0,0.0,0.0,0.0,0.0,0.0,0.0,0.0,0.0,0.0,0.0,0.0,0.0,0.0,0.0,0.0,5.9763,6.6022,7.0266,7.2386,7.1725,7.0257,6.8017,6.4237,0.0,0.0,0.0,0.0,0.0,0.0,0.0,0.0,0.0,0.0,0.0,0.0,0.0,0.0,0.0,0.0,0.0,0.0,0.0,0.0,0.0,0.0,0.0,0.0,0.0,0.0,0.0,3.2043,0.0,0.0,0.0,0.0,0.0,0.0,0.0,0.0,0.0,0.0,0.0,0.0,0.0,0.0,5.3241,5.4357,5.5215,5.583,0.0,0.0,5.5835,5.6049,5.5895,5.4587,0.0,0.0,0.0,0.0,0.0,0.0,0.0,0.0,0.0,0.0,0.0,0.0,0.0,0.0,0.0,0.0,0.0,0.0,0.0,0.0,0.0,0.0,0.0,0.0,0.0,0.0,0.0,0.0,0.0,0.0,0.0,0.0,0.0,0.0,0.0,0.0,0.0,0.0,0.0,0.0,0.0,0.0,0.0,0.0,0.0,0.0,0.0,0.0,0.0,0.0,0.0,0.0,0.0,0.0,0.0,6.1425,6.7097,7.0799,7.2422,7.1725,7.0513,6.8825,6.5632,6.1263,0.0,0.0,0.0,0.0,0.0,0.0,0.0,0.0,0.0,0.0,0.0,0.0,0.0,0.0,0.0,0.0,0.0,0.0,0.0,0.0,0.0,0.0,0.0,0.0,0.0,0.0,0.0,0.0,0.0,0.0,0.0,0.0,0.0,0.0,0.0,0.0,0.0,0.0,0.0,0.0,0.0,5.6049,5.7742,5.8642,5.945,0.0,0.0,5.945,6.0242,5.9665,5.805,5.4703,0.0,0.0,0.0,0.0,0.0,0.0,0.0,0.0,0.0,0.0,0.0,0.0,0.0,0.0,0.0,0.0,0.0,0.0,0.0,0.0,0.0,0.0,0.0,0.0,0.0,0.0,0.0,0.0,0.0,0.0,0.0,0.0,0.0,0.0,0.0,0.0,0.0,0.0,0.0,0.0,0.0,0.0,0.0,0.0,0.0,0.0,0.0,0.0,0.0,0.0,0.0,0.0,0.0,5.6916,6.1579,6.768,7.139,7.2422,7.1725,7.055,6.8935,6.5778,6.163,0.0,0.0,0.0,0.0,0.0,0.0,0.0,0.0,0.0,0.0,0.0,0.0,0.0,0.0,0.0,0.0,0.0,0.0,0.0,0.0,0.0,0.0,0.0,0.0,0.0,0.0,0.0,0.0,4.0739,4.1338,4.0575,0.0,0.0,0.0,0.0,0.0,0.0,0.0,0.0,0.0,0.0,5.7319,5.9511,6.0565,0.0,0.0,6.131,6.1017,6.0819,6.0089,5.8357,5.5049,5.1664,0.0,0.0,0.0,0.0,0.0,0.0,0.0,0.0,0.0,0.0,0.0,0.0,0.0,0.0,0.0,0.0,0.0,0.0,0.0,0.0,0.0,0.0,0.0,0.0,0.0,0.0,0.0,0.0,0.0,0.0,0.0,0.0,0.0,0.0,0.0,0.0,0.0,0.0,0.0,0.0,0.0,0.0,0.0,0.0,0.0,0.0,0.0,0.0,0.0,0.0,0.0,0.0,5.7913,6.1954,6.8356,7.1924,7.2496,7.1725,7.066,6.9265,6.6586,6.2989,0.0,0.0,0.0,0.0,0.0,0.0,0.0,0.0,0.0,0.0,0.0,0.0,0.0,0.0,0.0,0.0,0.0,0.0,0.0,0.0,0.0,0.0,0.0,0.0,0.0,0.0,0.0,0.0,4.1975,4.1992,4.03,0.0,0.0,0.0,0.0,0.0,0.0,0.0,0.0,0.0,0.0,5.9511,6.1281,6.2488,6.3257,6.3243,6.2771,6.2208,6.1666,6.0627,5.8819,5.5742,0.0,0.0,0.0,0.0,0.0,0.0,0.0,0.0,0.0,0.0,0.0,0.0,0.0,0.0,0.0,0.0,0.0,0.0,0.0,0.0,0.0,0.0,0.0,0.0,0.0,0.0,0.0,0.0,0.0,0.0,3.3423,0.0,0.0,0.0,0.0,0.0,0.0,0.0,0.0,0.0,0.0,0.0,0.0,0.0,0.0,0.0,0.0,0.0,0.0,0.0,0.0,0.0,0.0,5.8739,6.2753,6.9164,7.2496,7.2496,7.1725,7.0881,7.0036,6.8458,6.5632,6.1484,0.0,0.0,0.0,0.0,0.0,0.0,0.0,0.0,0.0,0.0,0.0,0.0,0.0,0.0,0.0,0.0,0.0,0.0,0.0,0.0,0.0,0.0,0.0,0.0,0.0,0.0,3.9457,4.0735,4.1058,0.0,0.0,0.0,0.0,0.0,0.0,0.0,0.0,0.0,0.0,5.8934,6.3166,6.3243,6.4705,6.5705,6.5782,6.4359,6.3281,6.3243,6.182,5.9896,0.0,0.0,0.0,0.0,0.0,0.0,0.0,0.0,0.0,0.0,0.0,0.0,0.0,0.0,0.0,0.0,0.0,0.0,0.0,0.0,0.0,0.0,0.0,0.0,0.0,0.0,0.0,3.8685,3.8227,0.0,0.0,0.0,0.0,0.0,0.0,0.0,0.0,0.0,0.0,0.0,4.6041,4.64,0.0,0.0,0.0,0.0,0.0,0.0,0.0,0.0,0.0,0.0,0.0,0.0,6.0115,6.3739,6.9514,7.2532,7.2496,7.1211,7.0367,7.0073,6.8017,6.4714,6.0162,0.0,0.0,0.0,0.0,0.0,0.0,0.0,0.0,0.0,0.0,0.0,0.0,0.0,0.0,0.0,0.0,0.0,0.0,0.0,0.0,0.0,0.0,0.0,0.0,0.0,4.2637,0.0,0.0,0.0,0.0,0.0,0.0,0.0,0.0,0.0,0.0,0.0,5.3933,5.6973,6.0819,6.3705,6.4859,6.5513,6.609,0.0,0.0,0.0,0.0,0.0,0.0,0.0,0.0,0.0,0.0,0.0,0.0,0.0,0.0,4.8586,4.6026,4.5141,4.5201,4.6586,0.0,0.0,0.0,0.0,0.0,0.0,0.0,0.0,0.0,0.0,0.0,0.0,0.0,0.0,0.0,0.0,4.1677,0.0,0.0,0.0,0.0,0.0,0.0,0.0,0.0,4.7124,4.8678,4.9846,5.0193,5.0215,0.0,4.8849,4.7146,0.0,0.0,0.0,0.0,0.0,0.0,0.0,0.0,6.1217,6.4924,6.9879,7.2642,7.2847,7.1321,7.0367,7.0073,6.776,6.5007,6.1851,5.9358,5.5834,0.0,0.0,0.0,0.0,0.0,0.0,0.0,0.0,0.0,0.0,0.0,0.0,0.0,0.0,0.0,0.0,0.0,0.0,0.0,0.0,0.0,0.0,0.0,4.4022,0.0,0.0,0.0,0.0,0.0,0.0,0.0,0.0,0.0,4.9086,5.328,5.7396,6.0435,6.3281,6.5282,6.582,0.0,0.0,0.0,0.0,0.0,0.0,0.0,6.1204,5.9819,5.8665,5.7434,5.6049,5.5588,5.5224,5.4611,0.0,0.0,5.0548,4.9433,4.951,5.0894,5.0702,5.0856,5.2549,5.3126,5.3818,0.0,0.0,0.0,0.0,0.0,0.0,0.0,0.0,4.5162,4.4857,0.0,4.479,0.0,0.0,0.0,0.0,0.0,0.0,0.0,0.0,5.2496,5.4254,5.3673,5.4363,5.4384,5.3579,5.1595,5.1031,5.1507,4.8529,0.0,0.0,0.0,0.0,0.0,0.0,6.2253,6.6271,7.0412,7.292,7.3529,7.2075,7.0881,6.9963,6.776,6.6512,6.6329,6.264,5.9807,5.8042,5.2767,0.0,0.0,0.0,0.0,0.0,0.0,0.0,0.0,0.0,0.0,0.0,0.0,0.0,0.0,0.0,0.0,0.0,0.0,0.0,0.0,4.4137,0.0,0.0,0.0,0.0,0.0,0.0,0.0,0.0,0.0,0.0,5.3664,5.7126,6.055,6.2974,0.0,0.0,0.0,0.0,6.7808,6.6282,6.5243,6.4397,6.3666,6.3435,6.3128,6.2358,0.0,0.0,5.8934,5.9127,5.905,5.7516,5.8495,5.8319,5.4336,5.3549,5.3703,5.4549,5.478,5.5318,5.6857,5.7896,5.8934,5.0744,0.0,0.0,0.0,0.0,4.7868,4.8748,4.9661,4.9965,4.9492,4.8511,4.8511,0.0,0.0,0.0,0.0,0.0,0.0,5.0676,5.1995,5.4295,5.5824,5.6611,5.7442,5.7607,5.7364,5.6757,5.6633,5.6803,5.5892,5.319,4.898,0.0,0.0,0.0,0.0,6.4438,6.7316,7.129,7.323,7.2851,7.1267,6.9779,6.8421,6.7724,6.71,6.6512,6.538,6.3174,5.9844,5.7072,0.0,0.0,0.0,0.0,0.0,0.0,0.0,0.0,0.0,0.0,0.0,0.0,0.0,0.0,0.0,0.0,0.0,0.0,0.0,4.5394,4.7709,4.8239,0.0,0.0,0.0,0.0,0.0,0.0,0.0,0.0,0.0,6.0935,6.182,6.2704,0.0,0.0,6.6667,6.6744,6.7167,6.7744,6.8475,0.0,0.0,0.0,6.5936,6.5089,6.4859,6.4282,6.3628,6.2935,6.2474,6.205,6.1512,6.1897,6.1781,6.0666,5.8896,5.8088,5.8819,5.9473,6.0435,6.2012,6.2666,6.3281,5.5716,5.3856,5.1725,5.0777,5.0845,5.1555,5.23,5.3044,5.345,5.2976,5.1894,5.2198,5.0845,4.8342,4.8477,0.0,0.0,0.0,5.3957,5.5716,5.6896,5.7954,5.8783,5.9261,5.9472,5.9396,5.8815,5.8863,5.9438,5.8863,5.691,5.3798,0.0,0.0,5.6881,6.186,6.5767,6.8414,7.1573,7.3171,7.2961,7.1084,6.9339,6.776,6.7687,6.7467,6.699,6.6626,6.5364,6.2881,6.004,5.6718,0.0,0.0,0.0,0.0,0.0,0.0,0.0,0.0,0.0,0.0,0.0,4.1119,4.1769,0.0,0.0,0.0,4.6393,4.7901,5.0972,5.1401,0.0,0.0,0.0,0.0,0.0,0.0,0.0,5.5355,5.8404,6.1512,6.4666,6.5243,6.5667,6.6513,6.709,6.7475,6.759,0.0,6.8359,6.909,6.8282,6.7821,6.8321,6.7859,6.7398,6.7398,6.6667,6.5974,6.5628,6.5128,6.4589,6.4012,6.382,6.3795,6.3809,6.2526,6.155,6.1781,6.2474,6.3512,6.4859,6.5628,6.6513,6.008,5.9742,5.5716,5.4025,5.4093,5.4769,5.5412,5.6055,5.6055,5.5649,5.5006,5.5683,5.4803,5.2807,5.2131,0.0,5.5074,5.575,5.7137,5.9133,5.9844,6.0182,6.0182,6.025,6.03,6.0214,5.8916,5.893,6.0182,5.893,5.8699,5.9559,5.917,5.9528,6.0697,6.3506,6.6574,6.9611,7.155,7.282,7.3456,7.1231,6.9302,6.7834,6.7724,6.765,6.7577,6.69,6.6426,6.617,6.1958,5.9408,5.9005,0.0,0.0,0.0,0.0,0.0,0.0,0.0,0.0,0.0,0.0,0.0,0.0,0.0,0.0,0.0,5.2982,0.0,5.7994,5.5192,0.0,0.0,0.0,5.1476,5.334,5.5052,5.7082,5.9613,0.0,0.0,0.0,0.0,6.8936,6.9783,6.9706,6.936,6.8629,6.9167,6.9436,6.8963,6.8667,6.8667,6.8975,6.9321,6.9629,6.959,6.909,6.8167,6.7436,6.7167,6.6513,6.5268,6.4845,6.4872,6.491,6.4808,6.4551,6.3897,6.432,6.5089,6.6128,6.7398,6.8629,6.008,6.0013,5.8964,5.8524,5.8558,5.8727,5.8896,5.9066,5.9066,5.8626,5.7983,5.8152,5.7949,5.7408,5.7239,5.7746,5.8795,5.8998,5.9336,5.9877,6.0655,6.1003,6.1053,6.1579,6.1829,6.1863,6.1535,6.1501,6.1806,6.1467,6.1704,6.2493,6.2402,6.1981,6.1432,6.4983,6.7794,6.9741,7.1458,7.2181,7.1835,7.011,6.9009,6.8605,6.8017,6.7393,6.6806,6.6643,6.5896,6.4729,6.291,6.1092,5.9274,5.5229,0.0,0.0,0.0,0.0,0.0,0.0,0.0,0.0,0.0,4.5175,4.5589,0.0,5.083,0.0,5.6059,5.8777,5.8252,5.8578,0.0,0.0,5.6446,5.6071,5.7251,5.8665,6.0604,6.3079,6.4501,6.6167,6.8513,6.9667,7.0629,7.1437,6.9937,6.8859,6.9283,6.9552,7.009,7.0964,7.0733,7.0552,7.1041,7.086,7.0591,7.0629,6.9937,6.9321,6.909,6.8552,6.7936,6.7526,6.6923,6.6821,6.7333,6.6974,6.6744,6.7013,6.6821,6.6974,6.8475,6.9129,6.9629,6.1129,6.1129,6.1129,6.1129,6.1095,6.0385,6.008,6.008,6.008,5.9877,5.9505,5.9505,5.9505,5.9505,5.9505,5.9911,6.0622,6.0655,6.0825,6.1129,6.1569,6.1782,6.1791,6.2222,6.2415,6.2415,6.2415,6.2415,6.2415,6.2719,6.3125,6.3531,6.4174,6.4041,6.3536,6.6032,6.7974,6.9246,7.1319,7.2055,7.1321,7.044,6.9633,6.8935,6.8128,6.732,6.6512,6.5815,6.5029,6.4119,6.2585,6.1287,6.0283,5.6528,5.3261,0.0,0.0,0.0,0.0,0.0,0.0,0.0,0.0,0.0,0.0,0.0,5.4976,5.5721,5.9575,6.1569,6.0461,6.06,6.0766,6.075,5.9688,5.971,6.1695,6.2589,6.4051,6.6576,6.7295,6.8398,7.0514,7.1206,7.1783,7.2629,7.1552,7.086,7.1283,7.1398,7.1706,7.2608,7.2388,7.2014,7.2234,7.1783,7.1321,7.0937,7.0552,7.0244,7.0244,6.9552,6.8975,6.8924,6.8244,6.7975,6.8744,6.8282,6.8052,6.9052,6.8859,6.8706,6.9513,6.9975,7.0398,6.2415,6.2415,6.2415,6.2415,6.2279,6.096,6.0385,6.0385,6.0419,6.0385,6.0385,6.0385,6.0385,6.0385,6.0385,6.0757,6.1434,6.1434,6.1772,6.2381,6.2415,6.2415,6.2415,6.2415,6.2415,6.2415,6.2415,6.2448,6.255,6.3193,6.3599,6.3835,6.5053,6.5745,6.5861,6.6903,6.7796,6.8751,7.1189,7.2129,7.1321,7.1211,7.044,6.8972,6.8017,6.7173,6.6366,6.4875,6.397,6.3726,6.165,6.0766,6.1419,5.7353,5.4546,0.0,5.0949,0.0,0.0,0.0,0.0,0.0,0.0,0.0,0.0,5.7005,5.9171,6.0896,6.2989,6.4067,6.3652,6.224,6.1879,6.335,6.2365,6.2763,6.546,6.6064,6.709,6.9425,6.9783,7.0437,7.1898,7.236,7.2822,7.3514,7.3707,7.3668,7.3783,7.3514,7.336,7.3609,7.3658,7.3322,7.2629,7.2399,7.2129,7.1437,7.1168,7.1091,7.1091,7.0398,6.986,6.9756,6.914,6.8898,6.9694,6.9167,6.9129,7.0475,7.0206,6.9821,6.9937,7.036,7.086,6.2415,6.2415,6.2415,6.2415,6.2347,6.2076,6.1975,6.1941,6.1975,6.1975,6.1941,6.1975,6.1941,6.1941,6.1975,6.2042,6.2178,6.2178,6.2245,6.2415,6.2415,6.2415,6.2415,6.2415,6.2415,6.2415,6.2415,6.2719,6.3294,6.3463,6.4106,6.5256,6.5561,6.5985,6.6677,0.0,0.0,0.0,7.1464,7.2129,7.1321,7.066,6.9889,6.8935,6.7504,0.0,6.5558,6.464,6.3479,6.2118,6.0967,0.0,0.0,0.0,0.0,0.0,0.0,0.0,0.0,0.0,0.0,0.0,5.6932,5.7226,5.6528,5.9134,6.1887,6.4127,6.4824,6.5558,6.6675,6.539,6.4572,6.4893,6.4795,6.4972,6.5641,6.7025,6.8436,6.9525,7.0283,7.1052,7.2129,7.336,7.4245,7.4476,7.5091,7.5515,7.5476,7.4361,7.3783,7.4312,7.4476,7.4178,7.3399,7.3245,7.3206,7.2976,7.236,7.2014,7.1898,7.1283,7.0706,7.0706,7.0014,6.9744,7.0514,7.0014,6.9783,7.0706,7.0783,7.0667,7.0667,7.0783,7.0898,6.2415,0.0,6.2415,6.2415,0.0,6.2415,6.2415,6.2415,6.2415,6.2415,6.2415,6.2415,6.2415,6.2415,6.2415,6.2415,6.2415,6.2415,6.2584,6.2922,6.2933,6.3148,6.3475,6.3475,6.3463,6.3485,6.3497,6.3666,6.4072,6.441,6.4952,6.5696,6.6406,6.6965,6.7386,6.9575,7.0793,7.1003,7.1998,7.2312,7.1908,7.1505,7.0917,7.0073,0.0,0.0,0.0,0.0,0.0,0.0,0.0,0.0,0.0,0.0,0.0,5.8547,5.7446,5.6969,5.7299,5.7005,5.7483,5.9061,6.0676,6.1447,6.1043,6.2879,6.4714,6.6292,6.6476,6.6806,6.754,6.6586,6.5956,6.6199,6.6218,6.6408,6.7196,6.8637,6.9948,7.0832,7.164,7.2514,7.3322,7.4091,7.4861,7.5284,7.5707,7.6015,7.5938,7.5284,7.4938,7.5284,7.5361,7.5024,7.4284,7.4091,7.3937,7.3553,7.3129,7.2899,7.286,7.2476,7.2168,7.2157,7.1849,7.1745,7.2014,7.1514,7.1091,7.136,7.1206,7.0898,7.0898,7.0898,7.0898,6.2787,6.2787,6.2787,6.2787,6.2787,6.2787,6.2787,6.2753,0.0,0.0,0.0,6.2415,6.2482,6.2584,6.2584,6.2651,6.2787,6.2787,6.3125,6.37,6.3656,6.4041,6.4606,6.4559,6.4613,6.4604,6.46,6.4647,6.4816,6.5527,6.5967,6.6203,6.7421,6.8233,6.8693,7.0764,7.2219,7.2673,7.2716,7.2569,7.2312,7.2312,7.1908,7.1101,6.9522,6.8311,6.7467,6.4604,6.2915,6.2585,6.1337,6.0603,6.0566,5.9979,5.9685,5.9795,5.9208,5.9428,6.0713,6.0236,6.0529,6.2144,6.3649,6.4787,6.5485,6.6256,6.699,6.765,6.7687,6.7687,6.765,6.6843,6.65,6.6998,6.6967,6.7392,6.877,7.0326,7.1478,7.2342,7.314,7.3937,7.4514,7.4976,7.5399,7.6092,7.6438,7.6438,7.6399,7.613,7.5861,7.5899,7.5861,7.5707,7.5168,7.4938,7.4668,7.4207,7.3899,7.3707,7.3707,7.3591,7.3476,7.3339,7.3465,7.3399,7.3409,7.286,7.2437,7.2437,7.186,7.136,7.136,7.136,7.136,6.4275,6.4309,6.4275,6.4275,6.4309,6.4275,6.4309,6.4174,6.2956,6.2415,6.2415,6.2415,6.2753,6.3362,6.3362,6.37,6.4275,6.4309,6.4343,0.0,6.447,6.4538,6.458,6.46,6.4638,6.459,6.4619,6.4918,6.5561,6.6305,6.6981,6.7624,6.8504,6.9659,7.1095,7.1525,7.2528,7.4226,7.378,7.2847,7.1505,7.1468,7.1101,7.0257,6.8752,6.7467,6.6659,6.4897,6.3246,6.1863,6.1557,6.141,6.1459,6.13,6.1557,6.2218,6.2181,6.2254,6.2438,6.2365,6.3025,6.464,6.5632,6.6219,6.6329,6.7063,6.7577,6.7687,6.776,6.7687,6.7614,6.6476,6.6014,6.6648,6.7009,6.7766,6.9247,7.1131,7.2581,7.3206,7.4024,7.4553,7.4899,7.5976,7.6823,7.7169,7.7515,7.8054,7.7784,7.6899,7.6092,7.5976,7.5976,7.5938,7.5861,7.5784,7.5668,7.5668,7.4976,7.4553,7.4553,7.4091,7.3745,7.3553,7.3696,7.363,7.3611,7.3447,7.3293,7.3283,7.3091,7.2976,7.2937,7.2976,7.286,6.3969,6.4613,6.4613,6.4613,6.4613,6.4613,6.4613,6.4546,6.3903,6.3599,6.3599,6.3599,6.3768,6.4106,6.4106,6.4275,6.4613,6.4613,6.4816,6.5155,6.5183,6.542,6.5764,6.5782,6.5766,6.5783,6.5816,6.617,6.6846,6.7252,6.7793,6.8571,6.9316,7.0284,7.1444,7.2021,7.2749,7.3721,7.3166,7.281,7.2606,7.2202,7.1762,7.1394,7.0257,6.9265,6.8458,6.688,6.5301,6.3686,6.3209,6.2732,6.2291,6.2254,6.2438,6.2768,6.2805,6.2805,6.2805,6.2805,6.3723,6.5742,6.6292,6.7063,6.8385,6.8385,6.8531,6.8935,6.8972,6.9009,6.8972,6.8348,6.8054,6.8421,6.8939,6.9629,7.0639,7.2238,7.3476,7.4128,7.487,7.5592,7.6053,7.6823,7.7476,7.7861,7.8323,7.8515,7.8515,7.79,7.7361,7.7323,7.6976,7.6707,7.6669,7.6284,7.6053,7.5976,7.5668,7.5438,7.5399,7.5014,7.4861,7.4861,7.4822,7.4861,7.4832,7.4447,7.4216,7.4091,7.3745,7.3553,7.3514,7.3822,7.3976,6.3895,6.5087,6.5087,6.5087,6.5121,6.5121,6.5087,6.5087,6.5121,6.5121,6.5087,6.4768,6.4701,6.485,6.485,6.4952,6.5087,6.5087,6.5425,6.5899,6.5963,6.6302,6.6745,6.6812,6.6914,6.6998,6.7083,6.7455,6.8132,6.8335,6.8808,6.9586,7.0161,7.0737,7.1312,7.2067,7.2742,7.3235,7.2698,7.282,7.3634,7.3083,7.2716,7.2459,7.1541,7.066,6.9816,6.8274,6.6769,6.5396,6.4567,6.3759,6.3099,6.2915,6.2805,6.2805,6.2805,6.2915,6.3099,6.3282,6.4347,6.6549,6.6953,6.7981,7.0,6.9816,6.9596,7.0036,7.0036,7.0036,7.0,6.9816,6.9889,7.0092,7.0605,7.113,7.2002,7.3295,7.4389,7.4935,7.5745,7.6553,7.7169,7.763,7.8246,7.8977,7.9092,7.9092,7.9092,7.9092,7.9092,7.89,7.8246,7.7592,7.7515,7.7053,7.6592,7.6361,7.6322,7.6169,7.6053,7.5938,7.5976,7.5861,7.5899,7.5861,7.5899,7.5447,7.5062,7.4976,7.463,7.4207,7.4245,7.4591,7.4976,6.5413,6.6525,6.6542,6.6609,6.6542,6.6576,6.6542,6.6576,6.6609,6.6609,6.644,6.5228,6.4992,6.5561,6.5595,6.5933,6.6508,6.6609,6.6609,6.6677,6.6677,6.6745,6.6846,6.6846,6.7167,6.7671,6.7775,6.8166,6.8977,6.962,7.0331,7.1041,7.121,7.121,7.1312,7.1413,7.2347,7.4128,7.3435,7.3264,7.367,7.3634,7.3266,7.2496,7.1027,6.9853,6.9119,6.7467,6.6219,6.5338,6.4567,6.4067,6.3934,6.3259,6.2842,6.2879,6.2842,6.3135,6.3906,6.4677,6.5742,6.7393,6.8201,6.9302,7.0954,7.1101,7.077,7.0367,7.0146,7.022,7.0073,6.9596,6.9633,7.0312,7.0791,7.1441,7.277,7.413,7.5191,7.5802,7.663,7.7207,7.7553,7.8631,7.9823,8.0477,8.0554,8.0554,8.0554,8.0592,8.0592,8.0477,7.9523,7.8562,7.84,7.8323,7.7823,7.7284,7.713,7.6861,7.6361,7.6053,7.5976,7.5976,7.5976,7.5976,7.5976,7.5899,7.5822,7.5707,7.5592,7.5668,7.5745,7.5745,7.5745,6.4992,6.6812,6.6812,6.6812,6.6812,6.6812,6.6812,6.6812,6.6812,6.6812,6.6779,6.6171,6.607,6.6373,6.6339,6.6542,6.6812,6.6812,6.6812,6.6846,6.7201,6.7489,6.7455,6.7489,6.7843,6.8519,6.8166,6.8538,6.9688,7.05,7.1007,7.1278,7.1312,7.1312,7.1312,7.1312,7.2313,7.4199,7.3977,7.4214,7.4895,7.4184,7.356,7.3083,7.1651,7.044,6.9596,6.8495,6.7303,6.6129,6.5689,6.5301,6.4839,6.4457,6.4273,6.4273,6.4273,6.4457,6.4787,6.5118,6.5999,6.7577,6.8458,6.9596,7.1174,7.1725,7.1872,7.1615,7.1505,7.1505,7.1431,7.1211,7.1174,7.1581,7.205,7.2783,7.3661,7.5002,7.6109,7.6732,7.7476,7.8246,7.8784,7.9823,8.0631,8.1054,8.1093,8.1093,8.1093,8.1093,8.1093,8.1016,8.0446,7.9869,7.94,7.8784,7.8438,7.8054,7.7592,7.7092,7.6899,7.6245,7.6015,7.6053,7.6053,7.6053,7.5976,7.5976,7.5976,7.5976,7.5976,7.5976,7.5976,7.5976,7.5976,6.423,6.6148,6.6643,6.6812,6.6812,6.6812,6.6812,6.6846,6.6981,6.7049,6.7117,6.7354,6.7421,6.7421,6.7218,6.7117,6.7151,6.732,6.7421,6.7489,6.7944,6.8079,6.7911,6.7877,6.8199,6.8692,6.8402,6.9011,7.0398,7.1007,7.1312,7.1312,7.1312,7.1312,7.1312,7.1312,7.2313,7.4093,7.4332,7.5007,7.5996,7.5065,7.4037,7.3303,7.1835,7.0587,6.9779,6.8972,6.8091,6.6936,6.6606,6.6256,6.5653,6.5448,6.5338,6.5338,6.5338,6.5411,6.5595,6.5632,6.6329,6.7834,6.8605,6.9486,7.0734,7.1505,7.1945,7.2092,7.1982,7.1798,7.2165,7.2386,7.2422,7.2296,7.3135,7.4141,7.4627,7.597,7.7126,7.7616,7.8361,7.9169,8.0015,8.0669,8.1054,8.1093,8.1093,8.1093,8.1093,8.1093,8.1093,8.1093,8.1093,8.0823,8.0246,7.9785,7.9208,7.8784,7.84,7.8054,7.7707,7.7015,7.6736,7.716,7.6669,7.6361,7.6438,7.6361,7.5976,7.5976,7.5976,7.5976,7.5976,7.5976,7.5976,6.3732,6.5204,6.6354,6.6914,6.6846,6.688,6.688,6.7015,6.7557,6.7862,6.7929,6.8605,6.8977,6.8876,6.8199,6.7861,6.7963,6.8571,6.8808,6.8808,6.8944,6.8654,6.794,6.7911,6.7946,6.8167,6.8624,6.962,7.1041,7.121,7.1312,7.1278,7.1244,7.1278,7.1312,7.1278,7.2279,7.3987,7.4224,7.519,7.6766,7.6313,7.4771,7.2716,7.1064,6.9889,6.9045,6.8201,6.7687,6.7614,6.6953,6.6496,6.637,6.5763,6.5411,6.5411,6.5375,6.5705,6.6329,6.6439,6.71,6.8495,6.8898,6.9265,7.0146,7.0513,7.0954,7.1358,7.0991,7.0844,7.1394,7.2018,7.2165,7.1801,7.3815,7.511,7.5437,7.7031,7.8269,7.8569,7.9215,8.0015,8.0862,8.1054,8.1093,8.1093,8.1093,8.1093,8.1093,8.1093,8.1093,8.1093,8.1093,8.1054,8.1016,8.0669,8.0362,7.9939,7.9477,7.9285,7.8823,7.84,7.8314,7.8122,7.7583,7.7207,7.7083,7.6736,7.6169,7.5976,7.5976,7.5976,7.5976,7.5976,7.6092,6.5633,6.759,6.8061,6.8267,6.8267,6.8267,6.8267,6.8267,6.8574,6.8659,6.8741,6.8985,6.9052,6.9113,6.9282,6.9113,6.8741,6.8977,6.8842,6.847,6.8842,6.8654,6.7926,6.7911,6.8251,6.8574,6.8438,6.8861,6.9789,6.9891,7.0128,7.0534,7.0601,7.0804,7.1176,7.0884,7.1575,7.3354,7.3543,7.4324,7.5629,7.5469,7.4441,7.2606,7.1468,7.0477,6.9669,6.8421,6.7687,6.7687,6.7393,6.7283,6.7193,6.699,6.6843,6.6843,6.6806,6.6953,6.721,6.7283,6.7467,6.8091,6.9119,6.9743,7.022,7.0991,7.1762,7.1908,7.1835,7.1651,7.1358,7.1578,7.1872,7.2262,7.3628,7.4972,7.5717,7.7258,7.8707,7.9292,8.01,8.0785,8.0939,8.1093,8.1093,8.1093,8.1093,8.1093,8.1093,8.1093,8.1093,8.1093,8.1093,8.1093,8.1093,8.1093,8.09,8.0592,8.0246,7.9823,7.9361,7.8861,7.8699,7.8738,7.8284,7.7861,7.7622,7.6967,7.6399,7.6245,7.6245,7.6361,7.5976,7.6322,7.6553,6.67,6.8904,6.9079,6.9079,6.9079,6.9079,6.9079,6.9079,6.9356,6.944,6.9519,6.9693,6.9794,6.9925,7.0331,7.0128,6.9485,6.9451,6.9147,6.8707,6.8977,6.8654,6.7959,6.7911,6.8064,6.8319,6.837,6.8658,6.9383,6.9722,6.9925,7.0195,7.0195,7.0276,7.049,7.0367,7.1163,7.2469,7.3088,7.3823,7.4712,7.4918,7.4294,7.301,7.2129,7.1027,6.9779,6.8641,6.7944,6.7724,6.7687,6.7687,6.7687,6.7687,6.7687,6.7687,6.765,6.7687,6.7687,6.7687,6.7797,6.8091,6.9063,6.9798,7.011,7.1138,7.1762,7.2018,7.1835,7.1541,7.1688,7.1505,7.1541,7.2225,7.3628,7.4972,7.589,7.7753,7.9184,8.0061,8.0708,8.1054,8.1093,8.1093,8.1093,8.1093,8.1093,8.1093,8.1093,8.1093,8.1093,8.1093,8.1093,8.1093,8.1093,8.1093,8.1093,8.0823,8.0708,8.0323,8.0015,7.9515,7.9246,7.9246,7.8938,7.8477,7.79,7.7207,7.6899,7.6746,7.7015,7.7284,7.7053,7.6938,7.7246,6.6766,6.9039,6.9147,6.9248,6.9316,6.9316,6.918,6.935,6.9931,7.0202,7.0263,7.0906,7.1019,7.121,7.1041,7.0804,7.0161,6.9891,6.9789,6.9688,6.9248,6.8586,6.7805,6.7723,6.7539,6.7252,6.8368,6.935,6.9992,7.0534,7.0601,7.0263,7.0195,7.0039,6.9256,7.0153,7.1022,7.2015,7.2849,7.3744,7.4735,7.4771,7.4368,7.356,7.2789,7.1394,6.9192,6.8935,6.8495,6.7871,6.7687,6.7687,6.7687,6.7687,6.7687,6.7687,6.7687,6.7687,6.776,6.7797,6.8164,6.8788,6.899,6.9595,7.0183,7.0457,7.0861,7.1394,7.1027,7.0881,7.2055,7.1835,7.1468,7.1581,7.3703,7.5507,7.6672,7.8479,8.0092,8.0708,8.0939,8.1054,8.1093,8.1093,8.1093,8.1093,8.1093,8.1093,8.1093,8.1093,8.1093,8.1093,8.1093,8.1093,8.1093,8.1093,8.1093,8.1054,8.1016,8.0823,8.0746,8.04,8.0323,8.0246,7.9631,7.9169,7.8707,7.813,7.7977,7.79,7.813,7.8092,7.79,7.7784,7.8207,6.9903,7.0601,7.0635,7.0635,7.0635,7.0635,7.0635,7.0635,7.0927,7.0939,7.1007,7.121,7.1312,7.1176,7.077,7.0398,7.0094,6.918,6.8605,6.8571,6.8368,6.7929,6.7269,6.7133,6.7302,6.7588,6.8012,6.8707,6.9383,6.9755,6.9857,7.0128,7.0195,7.0419,7.0677,7.0629,7.1017,7.2038,7.2446,7.2863,7.3303,7.3817,7.367,7.2936,7.2606,7.1835,7.0624,6.9522,6.8843,6.8529,6.7998,6.7687,6.7687,6.7687,6.7687,6.7687,6.7687,6.7981,6.8458,6.8531,6.8862,6.9633,7.0202,7.0606,7.0954,7.1431,7.1798,7.2129,7.1908,7.2055,7.2312,7.2312,7.2092,7.2129,7.3665,7.5054,7.6104,7.7714,7.9146,8.0015,8.0208,8.0439,8.0939,8.1054,8.1016,8.1093,8.1093,8.1093,8.1093,8.1093,8.1093,8.1093,8.1093,8.1093,8.1093,8.1093,8.1093,8.1093,8.1093,8.1093,8.1093,8.1093,8.1093,8.09,8.0323,7.9862,7.9438,7.9131,7.8977,7.8707,7.8592,7.8554,7.8515,7.8746,7.9169,7.0791,7.1312,7.1312,7.1312,7.1312,7.1312,7.1312,7.1312,7.1312,7.1312,7.1244,7.0973,7.0872,7.0737,7.0094,6.962,6.9248,6.8301,6.776,6.7523,6.7489,6.7218,6.6914,6.7133,6.742,6.794,6.8485,6.9011,6.9485,6.9789,7.0026,7.0195,7.0565,7.0908,7.1268,7.1222,7.1584,7.2144,7.2291,7.2422,7.2606,7.301,7.301,7.2569,7.2532,7.2239,7.1688,7.0477,6.9651,6.9355,6.886,6.8568,6.8586,6.8605,6.8605,6.8605,6.8605,6.8862,6.9302,6.9339,6.9706,7.044,7.101,7.1451,7.1725,7.2275,7.2496,7.2532,7.2459,7.2532,7.2496,7.2496,7.261,7.2871,7.3699,7.4804,7.6046,7.7543,7.86,7.9208,7.9323,7.9746,8.0362,8.0631,8.0785,8.0977,8.1093,8.1093,8.1093,8.1093,8.1093,8.1093,8.1093,8.1093,8.1093,8.1093,8.1093,8.1093,8.1093,8.1093,8.1093,8.1093,8.1093,8.1054,8.0631,8.0592,8.0208,8.0015,7.9823,7.9477,7.9285,7.9631,7.9823,7.9746,8.0085,7.007,7.1154,7.1312,7.121,7.1109,7.1142,7.1109,7.1109,7.1109,7.1041,7.0906,7.0419,7.0148,6.9958,6.9485,6.8876,6.8132,6.8132,6.7793,6.7354,6.7218,6.7184,6.7303,6.7775,6.8041,6.8412,6.9465,7.0094,7.0297,7.0804,7.0973,7.0487,7.1266,7.1463,7.1297,7.1874,7.2355,7.2482,7.2496,7.2496,7.2532,7.2532,7.2532,7.2532,7.2496,7.2459,7.2275,7.1615,7.0863,7.0219,6.9908,6.9853,7.0018,7.0092,6.9926,6.9889,7.0036,7.0036,7.011,7.0183,7.0513,7.1284,7.1451,7.1654,7.2275,7.2422,7.2532,7.2532,7.2532,7.2532,7.2532,7.2532,7.2798,7.3391,7.4064,7.5207,7.6901,7.7784,7.813,7.8353,7.8507,7.8746,7.9592,7.9708,8.0092,8.0516,8.0785,8.0862,8.09,8.09,8.1054,8.1093,8.1093,8.1093,8.1093,8.1093,8.1093,8.1093,8.1093,8.1093,8.1093,8.1093,8.1093,8.1054,8.1016,8.1016,8.0939,8.0631,8.0592,8.0477,8.0592,8.1016,8.0939,8.0631,8.0623,7.0164,7.0567,7.1075,7.0703,6.9857,7.0229,7.0161,6.9755,6.9735,6.9769,6.9654,6.9437,6.9403,6.935,6.918,6.8977,6.8774,6.8741,6.8741,6.8538,6.8504,6.8506,6.849,6.8692,6.9039,6.9524,7.0005,7.0466,7.1007,7.1266,7.1266,7.113,7.2153,7.2568,7.2512,7.2952,7.318,7.32,7.2716,7.2532,7.2532,7.2532,7.2532,7.2532,7.2532,7.2532,7.2532,7.2312,7.1468,7.0239,7.0108,7.0108,7.0183,7.0183,7.0257,7.0257,7.0183,7.0403,7.0881,7.0991,7.1358,7.2092,7.2092,7.2239,7.2459,7.2532,7.2532,7.2532,7.2532,7.2532,7.2532,7.2553,7.2997,7.3888,7.454,7.5283,7.6171,7.6515,7.6861,7.7468,7.7622,7.8015,7.8554,7.8861,7.8977,7.9323,7.9785,8.0208,8.0362,8.0708,8.09,8.1054,8.1093,8.1093,8.1093,8.1093,8.1093,8.1093,8.1093,8.1093,8.1093,8.1093,8.1093,8.1093,8.1054,8.1054,8.1054,8.0939,8.1054,8.1093,8.1093,8.1093,8.1093,8.0939,8.0977,6.9722,6.9755,7.0195,6.9891,6.918,6.9553,6.9485,6.918,6.9059,6.9059,6.9011,6.8725,6.8793,6.9045,6.8741,6.8808,6.9045,6.9079,6.9079,6.9147,6.9369,6.932,6.9271,6.935,6.9815,7.0164,7.0546,7.1138,7.1848,7.1917,7.2142,7.2714,7.3571,7.4123,7.4234,7.444,7.4398,7.4147,7.3419,7.2884,7.2532,7.2532,7.2532,7.2532,7.2532,7.2532,7.2532,7.2496,7.2018,7.1321,7.1097,7.1097,7.1101,7.1101,7.1101,7.1101,7.1101,7.1358,7.1688,7.1835,7.2018,7.2386,7.2532,7.2532,7.2532,7.2532,7.2532,7.2532,7.2532,7.2532,7.2573,7.2889,7.3541,7.4206,7.5019,7.5633,7.5947,7.6053,7.6245,7.6621,7.6784,7.7092,7.7861,7.7977,7.8169,7.8515,7.8977,7.9438,7.9785,8.0285,8.0669,8.0746,8.0939,8.0977,8.0977,8.0977,8.1054,8.1054,8.1093,8.1093,8.1093,8.1093,8.1093,8.1093,8.1093,8.1093,8.1093,8.1093,8.1093,8.1093,8.1093,8.1093,8.1093,8.1093,8.1208,6.8977,6.8977,6.9079,6.9011,6.8842,6.8944,6.8842,6.8842,6.8741,6.8808,6.8741,6.8199,6.8436,6.9079,6.8741,6.8605,6.9248,6.9485,6.9485,6.962,6.9945,7.0066,6.9654,7.0107,7.0355,7.0524,7.1019,7.1761,7.2448,7.2666,7.3332,7.4005,7.5048,7.5657,7.5548,7.5774,7.5605,7.4779,7.3991,7.3178,7.2642,7.2532,7.2532,7.2532,7.2532,7.2532,7.2532,7.2532,7.2422,7.2496,7.2532,7.2349,7.2386,7.2459,7.2422,7.2349,7.2239,7.2312,7.2459,7.2386,7.2459,7.2532,7.2532,7.2532,7.2532,7.2532,7.2532,7.2532,7.2532,7.2553,7.2816,7.359,7.4206,7.4588,7.5344,7.5917,7.5976,7.5976,7.5976,7.5976,7.6015,7.6399,7.6861,7.7207,7.7361,7.7553,7.8054,7.8515,7.9092,7.9677,8.0054,8.0285,8.0516,8.0862,8.0862,8.0862,8.0939,8.1016,8.1054,8.1093,8.1093,8.1093,8.1093,8.1093,8.1093,8.1093,8.1093,8.1093,8.1093,8.1093,8.1093,8.1093,8.1093,8.1093,8.1131,6.8132,6.8199,6.8842,6.8402,6.7489,6.7895,6.7861,6.7387,6.7387,6.7861,6.8064,6.7963,6.8402,6.9147,6.9417,6.9823,7.0026,7.0466,7.0838,7.0838,7.0906,7.0973,7.0804,7.0951,7.0985,7.1053,7.1244,7.1917,7.2582,7.309,7.3332,7.4385,7.5405,7.5835,7.5906,7.6082,7.5678,7.4941,7.4154,7.3382,7.2642,7.2532,7.2532,7.2532,7.2532,7.2532,7.2532,7.2532,7.2532,7.2532,7.2532,7.2532,7.2532,7.2532,7.2532,7.2532,7.2532,7.2532,7.2532,7.2532,7.2532,7.2532,7.2532,7.2532,7.2532,7.2532,7.2532,7.2532,7.2496,7.2686,7.3119,7.3841,7.4464,7.4905,7.5518,7.5976,7.5976,7.5976,7.5976,7.5976,7.6015,7.6092,7.6284,7.6361,7.6515,7.6669,7.7092,7.7553,7.8246,7.8985,7.9323,7.9554,8.0092,8.0323,8.0131,8.0208,8.0439,8.0669,8.0862,8.0862,8.0862,8.1093,8.1093,8.1093,8.1093,8.1093,8.1093,8.1093,8.1093,8.1093,8.1093,8.1093,8.1093,8.1093,8.1093,6.7387,6.7421,6.7861,6.7557,6.7015,6.759,6.7692,6.7455,6.776,6.8098,6.8402,6.847,6.8876,6.9586,7.0026,7.0331,7.0737,7.1075,7.1312,7.1278,7.1278,7.1312,7.1312,7.1312,7.1312,7.1401,7.183,7.2498,7.3332,7.4005,7.483,7.558,7.6264,7.6512,7.6469,7.6583,7.5983,7.5055,7.4522,7.3676,7.2679,7.2532,7.2532,7.2532,7.2532,7.2532,7.2532,7.2532,7.2532,7.2532,7.2532,7.2532,7.2532,7.2532,7.2532,7.2532,7.2532,7.2532,7.2532,7.2532,7.2532,7.2532,7.2532,7.2532,7.2532,7.2532,7.2532,7.2532,7.2553,7.2705,7.3341,7.4255,7.4751,7.5091,7.5654,7.5947,7.5976,7.5976,7.5976,7.5976,7.5976,7.6015,7.6015,7.5976,7.6053,7.6361,7.6361,7.6861,7.7476,7.813,7.8477,7.8823,7.9507,7.9738,7.9438,7.9477,7.9746,8.0092,8.0477,8.0439,8.04,8.0746,8.1093,8.1093,8.1093,8.1093,8.1093,8.1093,8.1093,8.1093,8.1093,8.1093,8.1093,8.1093,8.1093,6.6914,6.6846,6.6914,6.6981,6.7083,6.7793,6.8132,6.8199,6.8808,6.9045,6.9282,6.9282,6.9654,7.0263,7.0398,7.077,7.1142,7.1278,7.1312,7.1312,7.1312,7.1312,7.1312,7.1312,7.1312,7.1401,7.2004,7.288,7.385,7.5048,7.551,7.6793,7.7181,7.7092,7.7217,7.7206,7.6558,7.5361,7.4926,7.4175,7.2957,7.2642,7.2532,7.2532,7.2532,7.2532,7.2532,7.2532,7.2532,7.2532,7.2532,7.2532,7.2532,7.2532,7.2532,7.2532,7.2532,7.2532,7.2532,7.2532,7.2532,7.2532,7.2532,7.2532,7.2532,7.2532,7.2532,7.2553,7.263,7.2943,7.3504,7.4388,7.5017,7.5306,7.5718,7.5947,7.5976,7.5976,7.5976,7.5976,7.5976,7.5976,7.5976,7.5976,7.5976,7.5976,7.6015,7.6169,7.6784,7.7314,7.7699,7.7852,7.8353,7.8738,7.8515,7.89,7.9131,7.9285,7.9785,7.99,7.9823,7.99,8.0246,8.0977,8.1093,8.1054,8.1054,8.1093,8.1093,8.1093,8.1093,8.1093,8.1093,8.1093,8.1093,6.7354,6.688,6.7455,6.7726,6.7827,6.8571,6.891,6.891,6.9113,6.9451,6.9958,7.0026,7.0432,7.0939,7.1109,7.121,7.1278,7.1312,7.1312,7.1312,7.1312,7.1312,7.1312,7.1312,7.1312,7.1312,7.16,7.2193,7.3171,7.4082,7.5369,7.6094,7.692,7.7243,7.7341,7.7268,7.6876,7.5825,7.5161,7.4359,7.3529,7.2847,7.2532,7.2532,7.2532,7.2532,7.2532,7.2532,7.2532,7.2532,7.2532,7.2532,7.2532,7.2532,7.2532,7.2532,7.2532,7.2532,7.2532,7.2532,7.2532,7.2532,7.2532,7.2532,7.2532,7.2532,7.2532,7.263,7.2943,7.3492,7.4117,7.4711,7.5271,7.5686,7.5887,7.5976,7.5976,7.5976,7.5976,7.5976,7.5976,7.5976,7.5976,7.5976,7.5976,7.5976,7.6015,7.6015,7.6322,7.6707,7.7044,7.7083,7.7083,7.7391,7.7515,7.813,7.8554,7.8477,7.8823,7.9246,7.9169,7.8977,7.9323,8.0323,8.09,8.0977,8.1016,8.1054,8.1093,8.1093,8.1093,8.1093,8.1093,8.1093,8.1093,6.7117,6.688,6.759,6.7895,6.8098,6.918,6.9654,6.9722,7.006,7.0432,7.0703,7.0804,7.0973,7.1244,7.1312,7.1312,7.1312,7.1312,7.1312,7.1312,7.1312,7.1312,7.1312,7.1312,7.1312,7.1312,7.1401,7.183,7.288,7.446,7.512,7.5891,7.6793,7.7304,7.7341,7.7304,7.6876,7.6142,7.5322,7.4522,7.3713,7.292,7.2569,7.2532,7.2532,7.2532,7.2532,7.2532,7.2532,7.2532,7.2532,7.2532,7.2532,7.2532,7.2532,7.2532,7.2532,7.2532,7.2532,7.2532,7.2532,7.2532,7.2532,7.2532,7.2532,7.2532,7.2532,7.263,7.305,7.3651,7.4206,7.4751,7.5379,7.5818,7.5976,7.5976,7.5976,7.5976,7.5976,7.5976,7.5976,7.5976,7.5976,7.5976,7.5976,7.5976,7.5976,7.5976,7.5976,7.6207,7.6583,7.6544,7.6544,7.6784,7.7015,7.7438,7.7746,7.7669,7.79,7.8323,7.8669,7.8554,7.9161,8.0046,8.0431,8.0669,8.1016,8.1093,8.1093,8.1093,8.1093,8.1093,8.1093,8.1093,8.1093,6.7184,6.7083,6.7996,6.8368,6.8571,6.9823,7.0398,7.0534,7.1007,7.1244,7.1312,7.1278,7.1278,7.1312,7.1312,7.1312,7.1312,7.1312,7.1312,7.1312,7.1312,7.1312,7.1312,7.1312,7.1312,7.1312,7.1312,7.1688,7.2498,7.4005,7.5048,7.558,7.6432,7.7181,7.7243,7.7341,7.6839,7.6362,7.5592,7.4698,7.3729,7.2957,7.2532,7.2532,7.2532,7.2532,7.2532,7.2532,7.2532,7.2532,7.2532,7.2532,7.2532,7.2532,7.2532,7.2532,7.2532,7.2532,7.2532,7.2532,7.2532,7.2532,7.2532,7.2532,7.2532,7.2532,7.2496,7.2573,7.305,7.3541,7.4026,7.4711,7.5236,7.5654,7.5848,7.5976,7.5976,7.5976,7.5976,7.5976,7.5976,7.5976,7.5976,7.5976,7.5976,7.5976,7.5976,7.5976,7.5976,7.5976,7.6169,7.613,7.6169,7.6438,7.663,7.6746,7.6861,7.6707,7.7053,7.7476,7.7938,7.8246,7.8977,7.97,7.9939,8.0246,8.0669,8.1093,8.1093,8.1093,8.1093,8.1093,8.1093,8.1093,8.1093,6.8436,6.7895,6.9316,6.9925,6.9992,7.077,7.1142,7.1142,7.1244,7.1312,7.1312,7.1312,7.1312,7.1312,7.1312,7.1312,7.1312,7.1312,7.1312,7.1312,7.1312,7.1312,7.1312,7.1312,7.1312,7.1312,7.1312,7.1312,7.1917,7.288,7.3772,7.461,7.5649,7.6396,7.7243,7.7341,7.7304,7.6986,7.6301,7.5225,7.3817,7.2936,7.2642,7.2532,7.2532,7.2532,7.2532,7.2532,7.2532,7.2532,7.2532,7.2532,7.2532,7.2532,7.2532,7.2532,7.2532,7.2532,7.2532,7.2532,7.2532,7.2532,7.2532,7.2532,7.2532,7.2532,7.2496,7.2496,7.2997,7.3391,7.3747,7.4509,7.5017,7.5413,7.5718,7.5917,7.5976,7.5976,7.5976,7.5976,7.5976,7.5976,7.5976,7.5976,7.5976,7.5976,7.5976,7.5976,7.5976,7.5976,7.5976,7.5976,7.5976,7.6207,7.6284,7.6438,7.6361,7.6015,7.6322,7.6784,7.7207,7.7784,7.8554,7.9131,7.9515,8.0092,8.0746,8.1093,8.1093,8.1093,8.1093,8.1093,8.1093,8.1093,8.1093,6.9011,6.803,6.9553,7.0195,7.0297,7.1007,7.1312,7.1312,7.1312,7.1312,7.1312,7.1312,7.1312,7.1312,7.1312,7.1312,7.1312,7.1312,7.1312,7.1312,7.1312,7.1312,7.1312,7.1312,7.1312,7.1312,7.1312,7.1312,7.16,7.2279,7.3332,7.4234,7.5299,7.633,7.7107,7.7304,7.7304,7.7059,7.6411,7.5275,7.4074,7.334,7.2936,7.2532,7.2532,7.2532,7.2532,7.2532,7.2532,7.2532,7.2532,7.2532,7.2532,7.2532,7.2532,7.2532,7.2532,7.2532,7.2532,7.2532,7.2532,7.2532,7.2532,7.2532,7.2532,7.2532,7.2532,7.2496,7.2705,7.2997,7.3391,7.4168,7.4672,7.5129,7.5551,7.5848,7.5976,7.5976,7.5976,7.5976,7.5976,7.5976,7.5976,7.5976,7.5976,7.5976,7.5976,7.5976,7.5976,7.5976,7.5976,7.5976,7.5976,7.6053,7.6092,7.613,7.6207,7.6015,7.6015,7.6399,7.6707,7.7246,7.8246,7.9208,7.99,8.0477,8.0977,8.1093,8.1093,8.1093,8.1093,8.1093,8.1093,8.1093,8.1093,6.935,6.8605,6.9925,7.0364,7.0263,7.1007,7.1312,7.1312,7.1312,7.1312,7.1312,7.1312,7.1312,7.1312,7.1312,7.1312,7.1312,7.1312,7.1312,7.1312,7.1312,7.1312,7.1312,7.1312,7.1312,7.1312,7.1312,7.1312,7.1546,7.2056,7.2797,7.3928,7.4757,7.5846,7.67,7.7133,7.7304,7.7268,7.6484,7.5385,7.4294,7.3817,7.323,7.2753,7.2532,7.2532,7.2532,7.2532,7.2532,7.2532,7.2532,7.2532,7.2532,7.2532,7.2532,7.2532,7.2532,7.2532,7.2532,7.2532,7.2532,7.2532,7.2532,7.2532,7.2532,7.2532,7.2532,7.2532,7.2553,7.2761,7.3172,7.3699,7.4255,7.4789,7.5344,7.5686,7.5947,7.5947,7.5947,7.5976,7.5976,7.5976,7.5976,7.5976,7.5976,7.5976,7.5976,7.5976,7.5976,7.5976,7.5976,7.5976,7.5976,7.5976,7.5976,7.5976,7.5976,7.5976,7.5976,7.6284,7.6707,7.7476,7.8477,7.9361,8.0169,8.0669,8.1093,8.1093,8.1093,8.1093,8.1093,8.1093,8.1093,8.1093,8.1093,6.9519,7.0128,7.0872,7.0804,7.0297,7.1007,7.1312,7.1312,7.1312,7.1312,7.1312,7.1312,7.1312,7.1312,7.1312,7.1312,7.1312,7.1312,7.1312,7.1312,7.1312,7.1312,7.1312,7.1312,7.1312,7.1312,7.1312,7.1312,7.1312,7.1457,7.2142,7.2962,7.4082,7.4937,7.5944,7.6913,7.7304,7.7169,7.6594,7.5825,7.4822,7.4184,7.3413,7.2753,7.2532,7.2532,7.2532,7.2532,7.2532,7.2532,7.2532,7.2532,7.2532,7.2532,7.2532,7.2532,7.2532,7.2532,7.2532,7.2532,7.2532,7.2532,7.2532,7.2532,7.2532,7.2532,7.2532,7.2532,7.2532,7.2553,7.2761,7.3119,7.3841,7.4255,7.4828,7.5298,7.5609,7.5818,7.5848,7.5947,7.5976,7.5976,7.5976,7.5976,7.5976,7.5976,7.5976,7.5976,7.5976,7.5976,7.5976,7.5976,7.5976,7.5976,7.5976,7.5976,7.5976,7.5976,7.5976,7.6476,7.7053,7.7861,7.84,7.9469,8.02,8.0669,8.1093,8.1093,8.1093,8.1093,8.1093,8.1093,8.1093,8.1093,8.1093,7.0364,7.0263,7.1007,7.1142,7.0906,7.121,7.1312,7.1312,7.1312,7.1312,7.1312,7.1312,7.1312,7.1312,7.1312,7.1312,7.1312,7.1312,7.1312,7.1312,7.1312,7.1312,7.1312,7.1312,7.1312,7.1312,7.1312,7.1312,7.1312,7.1312,7.1457,7.2228,7.3492,7.4761,7.577,7.6741,7.7169,7.7268,7.6949,7.6436,7.5652,7.4845,7.4037,7.3303,7.2642,7.2532,7.2532,7.2532,7.2532,7.2532,7.2532,7.2532,7.2532,7.2532,7.2532,7.2532,7.2532,7.2532,7.2532,7.2532,7.2532,7.2532,7.2532,7.2532,7.2532,7.2532,7.2532,7.2532,7.2532,7.2532,7.261,7.305,7.3553,7.3841,7.4261,7.4828,7.5221,7.5441,7.5703,7.5763,7.587,7.5976,7.5976,7.5976,7.5976,7.5976,7.5976,7.5976,7.5976,7.5976,7.5976,7.5976,7.5976,7.5976,7.5976,7.5976,7.5976,7.5976,7.6015,7.6553,7.7092,7.7323,7.7977,7.9122,8.0161,8.0554,8.0862,8.1016,8.1093,8.1093,8.1093,8.1093,8.1093,8.1093,8.1093,7.0804,7.0601,7.1109,7.1176,7.1007,7.121,7.1312,7.1312,7.1312,7.1312,7.1312,7.1312,7.1312,7.1312,7.1312,7.1312,7.1312,7.1312,7.1312,7.1312,7.1312,7.1312,7.1312,7.1312,7.1312,7.1312,7.1312,7.1312,7.1312,7.1312,7.1401,7.2004,7.3252,7.4583,7.5386,7.6653,7.7243,7.7341,7.7268,7.69,7.6093,7.5285,7.4478,7.367,7.2899,7.2532,7.2532,7.2532,7.2532,7.2532,7.2532,7.2532,7.2532,7.2532,7.2532,7.2532,7.2532,7.2532,7.2532,7.2532,7.2532,7.2532,7.2532,7.2532,7.2532,7.2532,7.2532,7.2532,7.2532,7.2496,7.2496,7.2871,7.3275,7.3504,7.3747,7.4223,7.4752,7.5086,7.5354,7.5541,7.5626,7.5654,7.5616,7.5584,7.5749,7.5818,7.5976,7.5976,7.5976,7.5976,7.5976,7.5976,7.5976,7.5976,7.5976,7.5976,7.5976,7.5976,7.6092,7.6515,7.6938,7.7207,7.7938,7.9315,8.0123,8.0439,8.0746,8.1016,8.1093,8.1093,8.1093,8.1093,8.1093,8.1093,8.1093,7.0669,7.1244,7.1278,7.0906,7.0466,7.1041,7.1312,7.1312,7.1312,7.1312,7.1312,7.1312,7.1312,7.1312,7.1312,7.1312,7.1312,7.1312,7.1312,7.1312,7.1312,7.1312,7.1312,7.1312,7.1312,7.1312,7.1312,7.1312,7.1312,7.1312,7.1312,7.183,7.3171,7.4574,7.4648,7.633,7.7243,7.7341,7.7341,7.6864,7.6276,7.5432,7.4551,7.3927,7.2973,7.2532,7.2532,7.2532,7.2532,7.2532,7.2532,7.2532,7.2532,7.2532,7.2532,7.2532,7.2532,7.2532,7.2532,7.2532,7.2532,7.2532,7.2532,7.2532,7.2532,7.2532,7.2532,7.2532,7.2532,7.2532,7.2496,7.261,7.2889,7.3119,7.3341,7.3665,7.4161,7.4478,7.4752,7.5042,7.5122,7.5127,7.5091,7.5163,7.5413,7.5616,7.5917,7.5976,7.5947,7.5861,7.5784,7.5976,7.5976,7.5976,7.5976,7.5976,7.5976,7.5976,7.613,7.6515,7.7015,7.7515,7.843,7.9584,8.0085,8.04,8.0746,8.1093,8.1093,8.1093,8.1093,8.1093,8.1093,8.1093,8.1093,7.1075,7.1312,7.1312,7.1176,7.0973,7.1176,7.1312,7.1312,7.1312,7.1312,7.1312,7.1312,7.1312,7.1312,7.1312,7.1312,7.1312,7.1312,7.1312,7.1312,7.1312,7.1312,7.1312,7.1312,7.1312,7.1312,7.1312,7.1312,7.1312,7.1312,7.1312,7.1742,7.3332,7.4976,7.6027,7.7118,7.7341,7.7341,7.7304,7.7121,7.6754,7.5652,7.4735,7.4368,7.3193,7.2532,7.2532,7.2532,7.2532,7.2532,7.2532,7.2532,7.2532,7.2532,7.2532,7.2532,7.2532,7.2532,7.2532,7.2532,7.2532,7.2532,7.2532,7.2532,7.2532,7.2532,7.2532,7.2532,7.2532,7.2532,7.2496,7.2496,7.2686,7.2686,7.289,7.3167,7.3521,7.3725,7.3959,7.4388,7.4551,7.4551,7.4551,7.4591,7.4789,7.498,7.5165,7.5686,7.5818,7.5533,7.5408,7.5822,7.5976,7.5976,7.5976,7.5976,7.5976,7.5976,7.613,7.6399,7.6976,7.7669,7.8515,7.9515,7.9977,8.04,8.0785,8.1093,8.1093,8.1093,8.1093,8.1093,8.1093,8.1093,8.1093,7.1312,7.1312,7.1312,7.1312,7.1312,7.1312,7.1312,7.1312,7.1312,7.1312,7.1312,7.1312,7.1312,7.1312,7.1312,7.1312,7.1312,7.1312,7.1312,7.1312,7.1312,7.1312,7.1312,7.1312,7.1312,7.1312,7.1312,7.1312,7.1312,7.1312,7.1546,7.2193,7.3457,7.4977,7.6308,7.6888,7.7341,7.7341,7.7304,7.7304,7.679,7.5946,7.4918,7.4404,7.3523,7.2532,7.2532,7.2532,7.2532,7.2532,7.2532,7.2532,7.2532,7.2532,7.2532,7.2532,7.2532,7.2532,7.2532,7.2532,7.2532,7.2532,7.2532,7.2532,7.2532,7.2532,7.2532,7.2532,7.2532,7.2532,7.2532,7.2532,7.2496,7.2496,7.2627,7.2904,7.3,7.3209,7.3651,7.4026,7.4026,7.4026,7.398,7.4026,7.4161,7.4255,7.4426,7.498,7.548,7.5302,7.5203,7.5648,7.5947,7.5976,7.5976,7.5976,7.5976,7.5976,7.613,7.6322,7.7053,7.7784,7.8631,7.9477,8.0131,8.0669,8.09,8.1093,8.1093,8.1093,8.1093,8.1093,8.1093,8.1093,8.1093,7.1312,7.1312,7.1312,7.1312,7.1312,7.1312,7.1312,7.1312,7.1312,7.1312,7.1312,7.1312,7.1312,7.1312,7.1312,7.1312,7.1312,7.1312,7.1312,7.1312,7.1312,7.1312,7.1312,7.1312,7.1312,7.1312,7.1312,7.1312,7.1312,7.1312,7.1742,7.2666,7.3729,7.4975,7.5944,7.6803,7.7231,7.7341,7.7341,7.7341,7.7011,7.5799,7.5065,7.4441,7.3487,7.2679,7.2532,7.2532,7.2532,7.2532,7.2532,7.2532,7.2532,7.2532,7.2532,7.2532,7.2532,7.2532,7.2532,7.2532,7.2532,7.2532,7.2532,7.2532,7.2532,7.2532,7.2532,7.2532,7.2532,7.2532,7.2532,7.2532,7.2496,7.2496,7.2496,7.2627,7.2647,7.2997,7.3442,7.3602,7.3492,7.3442,7.3391,7.3391,7.3541,7.359,7.3747,7.4079,7.4556,7.5004,7.5064,7.5595,7.5848,7.5976,7.5976,7.5976,7.5976,7.5976,7.6015,7.6245,7.7053,7.7746,7.8361,7.9208,8.0362,8.0939,8.1054,8.1093,8.1093,8.1093,8.1093,8.1093,8.1093,8.1093,8.1093,7.1312,7.1312,7.1312,7.1312,7.1312,7.1312,7.1312,7.1312,7.1312,7.1312,7.1312,7.1312,7.1312,7.1312,7.1312,7.1312,7.1312,7.1312,7.1312,7.1312,7.1312,7.1312,7.1312,7.1312,7.1312,7.1312,7.1312,7.1312,7.1312,7.1312,7.183,7.2797,7.365,7.469,7.5713,7.6741,7.7059,7.7341,7.7341,7.7341,7.6937,7.5799,7.5212,7.4515,7.345,7.2753,7.2532,7.2532,7.2532,7.2532,7.2532,7.2532,7.2532,7.2532,7.2532,7.2532,7.2532,7.2532,7.2532,7.2532,7.2532,7.2532,7.2532,7.2532,7.2532,7.2532,7.2532,7.2532,7.2532,7.2532,7.2532,7.2532,7.2532,7.2532,7.2532,7.2496,7.2553,7.2742,7.3119,7.3119,7.2997,7.305,7.2997,7.2926,7.2997,7.2943,7.3066,7.3391,7.3821,7.4308,7.4898,7.5408,7.5818,7.5976,7.5976,7.5976,7.5976,7.6015,7.6015,7.613,7.663,7.7284,7.7977,7.89,8.0015,8.0708,8.1054,8.1093,8.1093,8.1093,8.1093,8.1093,8.1093,8.1093,8.1093,7.1312,7.1312,7.1312,7.1312,7.1312,7.1312,7.1312,7.1312,7.1312,7.1312,7.1312,7.1312,7.1312,7.1312,7.1312,7.1312,7.1312,7.1312,7.1312,7.1312,7.1312,7.1312,7.1312,7.1312,7.1312,7.1312,7.1312,7.1312,7.1312,7.1312,7.1776,7.2142,7.3171,7.4251,7.5145,7.6081,7.6876,7.7133,7.7341,7.7304,7.679,7.6019,7.5469,7.4661,7.3487,7.2936,7.2532,7.2532,7.2532,7.2532,7.2532,7.2532,7.2532,7.2532,7.2532,7.2532,7.2532,7.2532,7.2532,7.2532,7.2532,7.2532,7.2532,7.2532,7.2532,7.2532,7.2532,7.2532,7.2532,7.2532,7.2532,7.2532,7.2532,7.2532,7.2532,7.2532,7.2496,7.2496,7.2553,7.2573,7.263,7.2705,7.2686,7.2553,7.2496,7.2667,7.2686,7.2816,7.3347,7.3936,7.4573,7.5167,7.5622,7.5976,7.5976,7.5976,7.5976,7.5976,7.6015,7.613,7.6399,7.6938,7.7746,7.8669,7.9669,8.0131,8.0477,8.0977,8.1093,8.0977,8.09,8.0977,8.1016,8.1093,8.1093,7.1312,7.1312,7.1312,7.1312,7.1312,7.1312,7.1312,7.1312,7.1312,7.1312,7.1312,7.1312,7.1312,7.1312,7.1312,7.1312,7.1312,7.1312,7.1312,7.1312,7.1312,7.1312,7.1312,7.1312,7.1312,7.1312,7.1312,7.1312,7.1312,7.1312,7.1312,7.1401,7.2448,7.3527,7.4511,7.5218,7.6053,7.6781,7.68,7.6717,7.6827,7.635,7.5652,7.4771,7.3891,7.3193,7.2679,7.2532,7.2532,7.2532,7.2532,7.2532,7.2532,7.2532,7.2532,7.2532,7.2532,7.2532,7.2532,7.2532,7.2532,7.2532,7.2532,7.2532,7.2532,7.2532,7.2532,7.2532,7.2532,7.2532,7.2532,7.2532,7.2532,7.2532,7.2532,7.2532,7.2532,7.2532,7.2496,7.2553,7.263,7.265,7.2573,7.2532,7.2532,7.2532,7.2496,7.2553,7.2888,7.3536,7.4163,7.4865,7.5327,7.5755,7.5976,7.5976,7.5976,7.5976,7.5976,7.613,7.6399,7.6899,7.7515,7.8284,7.8977,7.9361,7.9746,8.0092,8.0362,8.04,8.0439,8.0746,8.0862,8.0823,8.1093,7.1312,7.1312,7.1312,7.1312,7.1312,7.1312,7.1312,7.1312,7.1312,7.1312,7.1312,7.1312,7.1312,7.1312,7.1312,7.1312,7.1312,7.1312,7.1312,7.1312,7.1312,7.1312,7.1312,7.1312,7.1312,7.1312,7.1312,7.1312,7.1312,7.1312,7.1312,7.1367,7.2262,7.3178,7.4044,7.4655,7.5139,7.6051,7.5851,7.5823,7.6081,7.5555,7.4808,7.4037,7.3266,7.2899,7.2532,7.2532,7.2532,7.2532,7.2532,7.2532,7.2532,7.2532,7.2532,7.2532,7.2532,7.2532,7.2532,7.2532,7.2532,7.2532,7.2532,7.2532,7.2532,7.2532,7.2532,7.2532,7.2532,7.2532,7.2532,7.2532,7.2532,7.2532,7.2532,7.2532,7.2532,7.2532,7.2532,7.261,7.2686,7.263,7.2553,7.2532,7.2532,7.2532,7.2532,7.2532,7.27,7.3165,7.3773,7.4422,7.4954,7.5379,7.5755,7.5976,7.5976,7.5976,7.5976,7.6169,7.6361,7.6746,7.7169,7.7622,7.816,7.8584,7.8823,7.89,7.9131,7.9477,7.9746,7.9977,8.0054,8.0015,8.0631,7.0635,7.0398,7.0669,7.0601,7.05,7.1007,7.1142,7.0906,7.1142,7.1312,7.1312,7.1312,7.1312,7.1312,7.1312,7.1312,7.1312,7.1312,7.1312,7.1312,7.1312,7.1312,7.1312,7.1312,7.1312,7.1312,7.1312,7.1312,7.1312,7.1312,7.1312,7.1367,7.1985,7.2656,7.3582,7.3729,7.4117,7.5078,7.4618,7.4682,7.5097,7.469,7.4418,7.3744,7.3303,7.2863,7.2532,7.2532,7.2532,7.2532,7.2532,7.2532,7.2532,7.2532,7.2532,7.2532,7.2532,7.2532,7.2532,7.2532,7.2532,7.2532,7.2532,7.2532,7.2532,7.2532,7.2532,7.2532,7.2532,7.2532,7.2532,7.2532,7.2532,7.2532,7.2532,7.2532,7.2532,7.2532,7.2532,7.2553,7.261,7.261,7.2532,7.2532,7.2532,7.2532,7.2532,7.2532,7.2642,7.2961,7.3536,7.4117,7.4705,7.5311,7.5831,7.5976,7.5976,7.5976,7.5976,7.6053,7.6207,7.6438,7.6775,7.7044,7.7391,7.7776,7.8006,7.8054,7.84,7.8861,7.9015,7.9092,7.9131,7.9169,7.9592,6.9688,6.9248,6.9789,6.9722,6.935,7.0567,7.0804,7.0398,7.0973,7.1312,7.1312,7.1312,7.1312,7.1312,7.1312,7.1312,7.1312,7.1312,7.1312,7.1312,7.1312,7.1312,7.1312,7.1312,7.1312,7.1312,7.1312,7.1312,7.1312,7.1312,7.1312,7.1312,7.1447,7.1774,7.2517,7.2769,7.309,7.3545,7.3501,7.3328,7.364,7.4077,7.3933,7.378,7.3487,7.3156,7.2716,7.2532,7.2532,7.2532,7.2532,7.2532,7.2532,7.2532,7.2532,7.2532,7.2532,7.2532,7.2532,7.2532,7.2532,7.2532,7.2532,7.2532,7.2532,7.2532,7.2532,7.2532,7.2532,7.2532,7.2532,7.2532,7.2532,7.2532,7.2532,7.2532,7.2532,7.2532,7.2532,7.2532,7.2532,7.2532,7.2532,7.2532,7.2532,7.2532,7.2532,7.2532,7.2627,7.3,7.349,7.4117,7.4743,7.5302,7.587,7.5976,7.5976,7.5976,7.5976,7.5976,7.6053,7.6245,7.6322,7.6284,7.6592,7.7044,7.7275,7.74,7.7784,7.8054,7.8246,7.8246,7.8092,7.8169,7.84,6.9248,6.9113,6.9282,6.9214,6.9248,7.006,7.0331,7.0331,7.0973,7.1312,7.1312,7.1312,7.1312,7.1312,7.1312,7.1312,7.1312,7.1312,7.1312,7.1312,7.1312,7.1312,7.1312,7.1312,7.1312,7.1312,7.1312,7.1312,7.1312,7.1312,7.1312,7.1312,7.1312,7.1706,7.245,7.2311,7.185,7.2175,7.1765,7.133,7.1438,7.2063,7.3237,7.3083,7.2716,7.2642,7.2532,7.2532,7.2532,7.2532,7.2532,7.2532,7.2532,7.2532,7.2532,7.2532,7.2532,7.2532,7.2532,7.2532,7.2532,7.2532,7.2532,7.2532,7.2532,7.2532,7.2532,7.2532,7.2532,7.2532,7.2532,7.2532,7.2532,7.2532,7.2532,7.2532,7.2532,7.2532,7.2532,7.2532,7.2532,7.2532,7.2532,7.2532,7.2532,7.2532,7.2532,7.2532,7.2704,7.3038,7.3441,7.4124,7.4813,7.5341,7.5899,7.5976,7.5976,7.5976,7.5976,7.5976,7.5976,7.5976,7.6015,7.6053,7.6053,7.6322,7.6515,7.6823,7.6707,7.6938,7.7323,7.74,7.7207,7.7207,7.7553]},{"header":{"parameterUnit":"m.s-1","parameterCategory":1,"la1":31.0,"la2":29.5877,"lo1":-88.7671,"lo2":-86.6584,"dx":0.0162,"dy":0.0185,"nx":115,"ny":88,"refTime":"2023-01-09T06:00:00:Z","depth":0,"parameterNumber":3,"parameterNumberName":"V-component_of_WINDS"},"data":[0.0,0.0,0.0,0.0,0.0,0.0,0.0,0.0,0.0,0.0,0.0,0.0,0.0,0.0,0.0,0.0,0.0,0.0,0.0,0.0,0.0,0.0,0.0,0.0,0.0,0.0,0.0,0.0,0.0,0.0,0.0,0.0,0.0,0.0,0.0,0.0,0.0,0.0,0.0,0.0,0.0,0.0,0.0,0.0,0.0,0.0,0.0,0.0,0.0,0.0,0.0,0.0,0.0,0.0,0.0,0.0,0.0,0.0,0.0,0.0,0.0,0.0,0.0,0.0,0.0,0.0,0.0,0.0,0.0,0.0,0.0,0.0,0.0,0.0,0.0,0.0,0.0,0.0,0.0,0.0,0.0,0.0,0.0,0.0,0.0,0.0,0.0,0.0,0.0,0.0,0.0,0.0,0.0,0.0,0.0,0.0,0.0,0.0,0.0,0.0,0.0,0.0,0.0,0.0,0.0,0.0,0.0,0.0,0.0,0.0,0.0,0.0,0.0,0.0,0.0,0.0,0.0,0.0,0.0,0.0,0.0,0.0,0.0,0.0,0.0,0.0,0.0,0.0,0.0,0.0,0.0,0.0,0.0,0.0,0.0,0.0,0.0,0.0,0.0,0.0,0.0,0.0,0.0,0.0,0.0,0.0,0.0,0.0,0.0,0.0,0.0,0.0,0.0,0.0,0.0,0.0,0.0,0.0,0.0,0.0,0.0,0.0,0.0,0.0,0.0,0.0,0.0,0.0,0.0,0.0,0.0,0.0,0.0,0.0,0.0,0.0,0.0,0.0,0.0,0.0,0.0,0.0,0.0,0.0,0.0,0.0,0.0,0.0,0.0,0.0,0.0,0.0,0.0,0.0,0.0,0.0,0.0,0.0,0.0,0.0,0.0,0.0,0.0,0.0,0.0,0.0,0.0,0.0,0.0,0.0,0.0,0.0,0.0,0.0,0.0,0.0,0.0,0.0,0.0,0.0,0.0,0.0,0.0,0.0,0.0,0.0,0.0,0.0,0.0,0.0,0.0,0.0,0.0,0.0,0.0,0.0,0.0,0.0,0.0,0.0,0.0,0.0,0.0,0.0,0.0,0.0,0.0,0.0,0.0,0.0,0.0,0.0,0.0,0.0,0.0,0.0,0.0,0.0,0.0,0.0,0.0,0.0,0.0,0.0,0.0,0.0,0.0,0.0,0.0,0.0,0.0,0.0,0.0,0.0,0.0,0.0,0.0,0.0,0.0,0.0,0.0,0.0,0.0,0.0,0.0,0.0,0.0,0.0,0.0,0.0,0.0,0.0,0.0,0.0,0.0,0.0,0.0,0.0,0.0,0.0,0.0,0.0,0.0,0.0,0.0,0.0,0.0,0.0,0.0,0.0,0.0,0.0,0.0,0.0,0.0,0.0,0.0,0.0,0.0,0.0,0.0,0.0,0.0,0.0,0.0,0.0,0.0,0.0,0.0,0.0,0.0,0.0,0.0,0.0,0.0,0.0,0.0,0.0,0.0,0.0,0.0,0.0,0.0,0.0,0.0,0.0,0.0,0.0,0.0,0.0,0.0,0.0,0.0,0.0,0.0,0.0,0.0,0.0,0.0,0.0,0.0,0.0,0.0,0.0,0.0,0.0,0.0,0.0,0.0,0.0,0.0,0.0,0.0,0.0,0.0,0.0,0.0,0.0,0.0,0.0,0.0,0.0,0.0,0.0,0.0,0.0,0.0,0.0,0.0,0.0,0.0,0.0,0.0,0.0,0.0,0.0,0.0,0.0,0.0,0.0,0.0,0.0,0.0,0.0,0.0,0.0,0.0,0.0,0.0,0.0,0.0,0.0,0.0,0.0,0.0,0.0,0.0,0.0,0.0,0.0,0.0,0.0,0.0,0.0,0.0,0.0,0.0,0.0,0.0,0.0,0.0,0.0,0.0,0.0,0.0,0.0,0.0,0.0,0.0,0.0,0.0,0.0,0.0,0.0,0.0,0.0,0.0,0.0,0.0,0.0,0.0,0.0,0.0,0.0,0.0,0.0,0.0,0.0,0.0,0.0,0.0,0.0,0.0,0.0,0.0,0.0,0.0,0.0,0.0,0.0,0.0,0.0,0.0,0.0,0.0,0.0,0.0,0.0,0.0,0.0,0.0,0.0,0.0,0.0,0.0,0.0,0.0,0.0,0.0,0.0,0.0,0.0,0.0,0.0,0.0,0.0,0.0,0.0,0.0,0.0,0.0,0.0,0.0,0.0,0.0,0.0,0.0,0.0,0.0,0.0,0.0,0.0,0.0,0.0,0.0,0.0,0.0,0.0,0.0,0.0,0.0,0.0,0.0,0.0,0.0,0.0,0.0,0.0,0.0,0.0,0.0,0.0,0.0,0.0,0.0,0.0,0.0,0.0,0.0,0.0,0.0,0.0,0.0,0.0,0.0,0.0,0.0,0.0,0.0,0.0,0.0,0.0,0.0,0.0,0.0,0.0,0.0,0.0,0.0,0.0,0.0,0.0,0.0,0.0,0.0,0.0,0.0,0.0,0.0,0.0,0.0,0.0,0.0,0.0,0.0,0.0,0.0,0.0,0.0,0.0,0.0,0.0,0.0,0.0,0.0,0.0,0.0,0.0,0.0,0.0,0.0,0.0,0.0,0.0,0.0,0.0,0.0,0.0,0.0,0.0,0.0,0.0,0.0,0.0,0.0,0.0,0.0,0.0,0.0,0.0,0.0,0.0,0.0,0.0,0.0,0.0,0.0,0.0,0.0,0.0,0.0,0.0,0.0,0.0,0.0,0.0,0.0,0.0,0.0,0.0,0.0,0.0,0.0,0.0,0.0,0.0,0.0,0.0,0.0,0.0,0.0,0.0,0.0,0.0,0.0,0.0,0.0,0.0,0.0,0.0,0.0,0.0,0.0,0.0,0.0,0.0,0.0,0.0,0.0,0.0,0.0,0.0,0.0,0.0,0.0,0.0,0.0,0.0,0.0,0.0,0.0,0.0,0.0,0.0,0.0,0.0,0.0,0.0,0.0,0.0,0.0,0.0,0.0,0.0,0.0,0.0,0.0,0.0,0.0,0.0,0.0,0.0,0.0,0.0,0.0,0.0,0.0,0.0,0.0,0.0,0.0,0.0,0.0,0.0,0.0,0.0,0.0,0.0,0.0,0.0,0.0,0.0,0.0,0.0,0.0,0.0,0.0,0.0,0.0,0.0,0.0,0.0,0.0,0.0,0.0,0.0,0.0,0.0,0.0,0.0,0.0,0.0,0.0,0.0,0.0,0.0,0.0,0.0,0.0,0.0,0.0,0.0,0.0,0.0,0.0,0.0,0.0,0.0,0.0,0.0,0.0,0.0,0.0,0.0,0.0,0.0,0.0,0.0,0.0,0.0,0.0,0.0,0.0,0.0,0.0,0.0,0.0,0.0,0.0,0.0,0.0,0.0,0.0,0.0,0.0,0.0,0.0,0.0,0.0,0.0,0.0,0.0,0.0,0.0,0.0,0.0,0.0,0.0,0.0,0.0,0.0,0.0,0.0,0.0,0.0,0.0,0.0,0.0,0.0,0.0,0.0,0.0,0.0,0.0,0.0,0.0,0.0,0.0,0.0,0.0,0.0,0.0,0.0,0.0,0.0,0.0,0.0,0.0,0.0,0.0,0.0,0.0,0.0,0.0,0.0,0.0,0.0,0.0,0.0,0.0,0.0,0.0,0.0,0.0,0.0,0.0,0.0,0.0,0.0,0.0,0.0,0.0,0.0,0.0,0.0,0.0,0.0,0.0,0.0,0.0,0.0,0.0,0.0,0.0,0.0,0.0,0.0,0.0,0.0,0.0,0.0,0.0,0.0,0.0,0.0,0.0,0.0,0.0,0.0,0.0,0.0,0.0,0.0,0.0,0.0,0.0,0.0,0.0,0.0,0.0,0.0,0.0,0.0,0.0,0.0,0.0,0.0,0.0,0.0,0.0,0.0,0.0,0.0,0.0,0.0,0.0,0.0,0.0,0.0,0.0,0.0,0.0,0.0,0.0,0.0,0.0,0.0,0.0,0.0,0.0,0.0,0.0,0.0,0.0,0.0,0.0,0.0,0.0,0.0,0.0,0.0,0.0,0.0,0.0,0.0,0.0,0.0,0.0,0.0,0.0,0.0,0.0,0.0,0.0,0.0,0.0,0.0,0.0,0.0,0.0,0.0,0.0,0.0,0.0,0.0,0.0,0.0,0.0,0.0,0.0,0.0,0.0,0.0,0.0,0.0,0.0,0.0,0.0,0.0,0.0,0.0,0.0,1.2559,0.0,0.0,0.0,1.1428,0.0,0.0,0.0,0.0,0.0,0.0,0.0,0.0,0.0,0.0,0.0,0.0,0.0,0.0,0.0,0.0,0.0,0.0,0.0,0.0,0.0,0.0,0.0,0.0,0.0,0.0,0.0,0.0,0.0,0.0,0.0,0.0,0.0,0.0,0.0,0.0,0.0,0.0,0.0,0.0,0.0,0.0,0.0,0.0,0.0,0.0,0.0,0.0,0.0,0.0,0.0,0.0,0.0,0.0,0.0,0.0,0.0,0.0,0.0,0.0,0.0,0.0,0.0,0.0,0.0,0.0,0.0,0.0,0.0,0.0,0.0,0.0,0.0,0.0,0.0,0.0,0.0,0.0,0.0,0.0,0.0,0.0,0.0,0.0,0.0,0.0,0.0,0.0,0.0,0.0,0.0,0.0,0.0,0.0,0.0,0.0,0.0,0.0,0.0,0.0,0.0,0.0,0.0,0.0,0.0,0.0,0.0,0.0,0.0,0.0,1.2933,1.2799,1.2835,1.2527,1.2005,0.0,0.0,0.0,0.0,0.0,0.0,0.0,0.0,0.0,0.0,0.0,0.0,0.0,0.0,0.0,0.0,0.0,0.0,0.0,0.0,0.0,0.0,0.0,0.0,0.0,0.0,0.0,0.0,0.0,0.0,0.0,0.0,0.0,0.0,0.0,0.0,0.0,0.0,0.0,0.0,0.0,0.0,0.0,0.0,0.0,0.0,0.0,0.0,0.0,0.0,0.0,0.0,0.0,0.0,0.0,0.0,0.0,0.0,0.0,0.0,0.0,0.0,0.0,0.0,0.0,0.0,0.0,0.0,0.0,0.0,0.0,0.0,0.0,0.0,0.0,0.0,0.0,0.0,0.0,0.0,0.0,0.0,0.0,0.0,0.0,0.0,0.0,0.0,0.0,0.0,0.0,0.0,0.0,0.0,0.0,0.0,0.0,0.0,0.0,0.0,0.0,0.0,0.0,0.0,0.0,0.0,0.0,0.0,0.0,0.0,0.0,0.0,1.3039,1.2775,1.2411,0.0,0.0,0.0,0.0,0.0,0.0,0.0,0.0,0.0,0.0,0.0,0.0,0.0,0.0,0.0,0.0,0.0,0.0,0.0,0.0,0.0,0.0,0.0,0.0,0.0,0.0,0.0,0.0,0.0,0.0,0.0,0.0,0.0,0.0,0.0,0.0,0.0,0.0,0.0,0.0,0.0,0.0,0.0,0.0,0.0,0.0,0.0,0.0,0.0,0.0,0.0,0.0,0.0,0.0,0.0,0.0,0.0,0.0,0.0,0.0,0.0,0.0,0.0,0.0,0.0,0.0,0.0,0.0,0.0,0.0,0.0,0.0,0.0,0.0,0.0,0.0,0.0,0.0,0.0,0.0,0.0,0.0,0.0,0.0,0.0,0.0,0.0,0.0,0.0,0.0,0.0,0.0,0.0,0.0,0.0,0.0,0.0,0.0,0.0,0.0,0.0,0.0,0.0,0.0,0.0,0.0,0.0,0.0,0.0,0.0,1.348,1.3227,1.344,0.0,1.21,0.0,0.0,0.0,0.0,0.0,0.0,0.0,0.0,0.0,0.0,0.0,0.0,0.0,0.0,0.0,0.0,0.0,0.0,0.0,0.0,0.0,0.0,0.0,0.0,0.0,0.0,0.0,0.0,0.0,0.0,0.0,0.0,0.0,0.0,0.0,0.0,0.0,0.0,0.0,0.0,0.0,0.0,0.0,0.0,0.0,0.0,0.0,0.0,0.0,0.0,0.0,0.0,0.0,0.0,0.0,0.0,0.0,0.0,0.0,0.0,0.0,0.0,0.0,0.0,0.0,0.0,0.0,0.0,0.0,0.0,0.0,0.0,0.0,0.0,0.0,0.0,0.0,0.0,0.0,0.0,0.0,0.0,0.0,0.0,0.0,0.0,0.0,0.0,0.0,0.0,0.0,0.0,0.0,0.0,0.0,0.0,0.0,0.0,0.0,0.0,0.0,0.0,0.0,0.0,0.0,0.0,0.0,0.0,0.0,0.0,1.3854,1.3734,1.3507,1.3054,0.0,0.0,0.0,0.0,0.0,0.0,0.0,0.0,0.0,0.0,0.0,0.0,0.0,0.0,0.0,0.0,0.0,0.0,0.0,0.0,0.0,0.0,0.0,0.0,0.0,0.0,0.0,0.0,0.0,0.0,0.0,0.0,0.0,0.0,0.0,0.0,0.0,0.0,0.0,0.0,0.0,0.0,0.0,0.0,0.0,0.0,0.0,0.0,0.0,0.0,0.0,0.0,0.0,0.0,0.0,0.0,0.0,0.0,0.0,0.0,0.0,0.0,0.0,0.0,0.0,0.0,0.0,0.0,0.0,0.0,0.0,0.0,0.0,0.0,0.0,0.0,0.0,0.0,0.0,0.0,0.0,0.0,0.0,0.0,0.0,0.0,0.0,0.0,0.0,0.0,0.0,0.0,0.0,0.0,0.0,0.0,0.0,0.0,0.0,0.0,0.0,0.0,0.0,0.0,0.0,0.0,0.0,0.0,0.0,0.0,1.3978,1.4082,1.4055,1.352,1.3026,1.2639,0.0,0.0,0.0,0.0,0.0,0.0,0.0,0.0,0.0,0.0,0.0,0.0,0.0,0.0,0.0,0.0,0.0,0.0,0.0,0.0,0.0,0.0,0.0,0.0,0.0,0.0,0.0,0.0,0.0,0.0,0.0,0.0,0.0,0.0,0.0,0.0,0.0,0.0,0.0,0.0,0.0,0.0,0.0,0.0,0.0,0.0,0.0,0.0,0.0,0.0,0.0,0.0,0.0,0.0,0.0,0.0,0.0,0.0,0.0,0.0,0.0,0.0,0.0,0.0,0.0,0.0,0.0,0.0,0.0,0.0,0.0,0.0,0.0,0.0,0.0,0.0,0.0,0.0,0.0,0.0,0.0,0.0,0.0,0.0,0.0,0.0,0.0,0.0,0.0,0.0,0.0,0.0,0.0,0.0,0.0,0.0,0.0,0.0,0.0,0.0,0.0,0.0,0.0,0.0,0.0,0.0,0.0,0.0,1.4078,1.4076,1.4082,1.4082,1.352,1.2933,0.0,0.0,0.0,0.0,0.0,0.0,0.0,0.0,0.0,0.0,0.0,0.0,0.0,0.0,0.0,0.0,0.0,0.0,0.0,0.0,0.0,0.0,0.0,0.0,0.0,0.0,0.0,0.0,0.0,0.0,0.0,0.0,0.0,0.0,0.0,0.0,0.0,0.0,0.0,0.0,0.0,0.0,0.0,0.0,0.0,0.0,0.0,0.0,0.0,0.0,0.0,0.0,0.0,0.0,0.0,0.0,0.0,0.0,0.0,0.0,0.0,0.0,0.0,0.0,0.0,0.0,0.0,0.0,0.0,0.0,0.0,0.0,0.0,0.0,0.0,0.0,0.0,0.0,0.0,0.0,0.0,0.0,0.0,0.0,0.0,0.0,0.0,0.0,0.0,0.0,0.0,0.0,0.0,0.0,0.0,0.0,0.0,0.0,0.0,0.0,0.0,0.0,0.0,0.0,0.0,0.0,0.0,0.0,0.0,1.4061,1.4074,1.409,1.415,1.3451,1.2792,0.0,0.0,0.0,0.0,0.0,0.0,0.0,0.0,0.0,0.0,0.0,0.0,0.0,0.0,0.0,0.0,0.0,0.0,0.0,0.0,0.0,0.0,0.0,0.0,0.0,0.0,0.0,0.0,0.0,0.0,0.0,0.0,0.0,0.0,0.0,0.0,0.0,0.0,0.0,0.0,0.0,0.0,0.0,0.0,0.0,0.0,0.0,0.0,0.0,0.0,0.0,0.0,0.0,0.0,0.0,0.0,0.0,0.0,0.0,0.0,0.0,0.0,0.0,0.0,0.0,0.0,0.0,0.0,0.0,0.0,0.0,0.0,0.0,0.0,0.0,0.0,0.0,0.0,0.0,0.0,0.0,0.0,0.0,0.0,0.0,0.0,0.0,0.0,0.0,0.0,0.0,0.0,0.0,0.0,0.0,0.0,0.0,0.0,0.0,0.0,0.0,0.0,0.0,0.0,0.0,0.0,0.0,0.0,0.0,1.4198,1.4314,1.4329,1.4135,1.343,1.2726,0.0,0.0,0.0,0.0,0.0,0.0,0.0,0.0,0.0,0.0,0.0,0.0,0.0,0.0,0.0,0.0,0.0,0.0,0.0,0.0,0.0,0.0,0.0,0.0,0.0,0.0,0.0,0.0,0.0,0.0,0.0,0.0,0.0,0.0,0.0,0.0,0.0,0.0,0.0,0.0,0.0,0.0,0.0,0.0,0.0,0.0,0.0,0.0,0.0,0.0,0.0,0.0,0.0,0.0,0.0,0.0,0.0,0.0,0.0,0.0,0.0,0.0,0.0,0.0,0.0,0.0,0.0,0.0,0.0,0.0,0.0,0.0,0.0,0.0,0.0,0.0,0.0,0.0,0.0,0.0,0.0,0.0,0.0,0.0,0.0,0.0,0.0,0.0,0.0,0.0,0.0,0.0,0.0,0.0,0.0,0.0,0.0,0.0,0.0,0.0,0.0,0.0,0.0,0.0,0.0,0.0,0.0,0.0,1.3667,1.4496,1.4803,1.4741,1.4274,1.3639,1.2763,0.0,0.0,0.0,0.0,0.0,0.0,0.0,0.0,0.0,0.0,0.0,0.0,0.0,0.0,0.0,0.0,0.0,0.0,0.0,0.0,0.0,0.0,0.0,0.0,0.0,0.0,0.0,0.0,0.0,0.0,0.0,0.0,0.0,0.0,0.0,0.0,0.0,0.0,0.0,0.0,0.0,0.0,0.0,0.0,0.0,0.0,0.0,0.0,0.0,0.0,0.0,0.0,0.0,0.0,0.0,0.0,0.0,0.0,0.0,0.0,0.0,0.0,0.0,0.0,0.0,0.0,0.0,0.0,0.0,0.0,0.0,0.0,0.0,0.0,0.0,0.0,0.0,0.0,0.0,0.0,0.0,0.0,0.0,0.0,0.0,0.0,0.0,0.0,0.0,0.0,0.0,0.0,0.0,0.0,0.0,0.0,0.0,0.0,0.0,0.0,0.0,0.0,0.0,0.0,0.0,0.0,0.0,0.0,0.0,1.511,1.5217,1.514,1.4849,1.4128,1.3163,0.0,0.0,0.0,0.0,0.0,0.0,0.0,0.0,0.0,0.0,0.0,0.0,0.0,0.0,0.0,0.0,0.0,0.0,0.0,0.0,0.0,0.0,0.0,0.0,0.0,0.0,0.0,0.0,0.0,0.0,0.0,0.0,0.0,0.0,0.0,0.0,0.0,0.0,0.0,0.0,0.0,0.0,0.0,0.0,0.0,0.0,0.0,0.0,0.0,0.0,0.0,0.0,0.0,0.0,0.0,0.0,0.0,0.0,0.0,0.0,0.0,0.0,0.0,0.0,0.0,0.0,0.0,0.0,0.0,0.0,0.0,0.0,0.0,0.0,0.0,0.0,0.0,0.0,0.0,0.0,0.0,0.0,0.0,0.0,0.0,0.0,0.0,0.0,0.0,0.0,0.0,0.0,0.0,0.0,0.0,0.0,0.0,0.0,0.0,0.0,0.0,0.0,0.0,0.0,0.0,0.0,0.0,0.0,0.0,1.6179,1.6099,1.5945,1.5738,1.4913,1.3786,1.2351,0.0,0.0,0.0,0.0,0.0,0.0,0.0,0.0,0.0,0.0,0.0,0.0,0.0,0.0,0.0,0.0,0.0,0.0,0.0,0.0,0.0,0.0,0.0,0.0,0.0,0.0,0.0,0.0,0.0,0.0,0.0,0.0,0.0,0.0,0.0,0.0,0.0,0.0,0.0,0.0,0.0,0.0,0.0,0.0,0.0,0.0,0.0,0.0,0.0,0.0,0.0,0.0,0.0,0.0,0.0,0.0,0.0,0.0,0.0,0.0,0.0,0.0,0.0,0.0,0.0,0.0,0.0,0.0,0.0,0.0,0.0,0.0,0.0,0.0,0.0,0.0,0.0,0.0,0.0,0.0,0.0,0.0,0.0,0.0,0.0,0.0,0.0,0.0,0.0,0.0,0.0,0.0,0.0,0.0,0.0,0.0,0.0,0.0,0.0,0.0,0.0,0.0,0.0,0.0,0.0,0.0,0.0,0.0,1.7662,1.7435,1.7171,1.6885,1.6072,1.476,0.0,0.0,0.0,0.0,0.0,0.0,0.0,0.0,0.0,0.0,0.0,0.0,0.0,0.0,0.0,0.0,0.0,0.0,0.0,0.0,0.0,0.0,0.0,0.0,0.0,0.0,0.0,0.0,0.0,0.0,0.0,0.0,0.0,0.0,0.0,0.0,0.0,0.0,0.0,0.0,0.0,0.0,0.0,0.0,0.0,0.0,0.0,0.0,0.0,0.0,0.0,0.0,0.0,0.0,0.0,0.0,0.0,0.0,0.0,0.0,0.0,0.0,0.0,0.0,0.0,0.0,0.0,0.0,0.0,0.0,0.0,0.0,0.0,0.0,0.0,0.0,0.0,0.0,0.0,0.0,0.0,0.0,0.0,0.0,0.0,0.0,0.0,0.0,0.0,0.0,0.0,0.0,0.0,0.0,0.0,0.0,0.0,0.0,0.0,0.0,0.0,0.0,0.0,0.0,0.0,0.0,0.0,0.0,0.0,1.8951,1.9038,1.8685,1.7816,1.6951,1.5719,0.0,0.0,0.0,0.0,0.0,0.0,0.0,0.0,0.0,0.0,0.0,0.0,0.0,0.0,0.0,0.0,0.0,0.0,0.0,0.0,0.0,0.0,0.0,0.0,0.0,0.0,0.0,0.0,0.0,0.0,0.0,0.0,0.0,0.0,0.0,0.0,0.0,0.0,0.0,0.0,0.0,0.0,0.0,0.0,0.0,0.0,0.0,0.0,0.0,0.0,0.0,0.0,0.0,0.0,0.0,0.0,0.0,0.0,0.0,0.0,0.0,0.0,0.0,0.0,0.0,0.0,0.0,0.0,0.0,0.0,0.0,0.0,0.0,0.0,0.0,0.0,0.0,0.0,0.0,0.0,0.0,0.0,0.0,0.0,0.0,0.0,0.0,0.0,0.0,0.0,0.0,0.0,0.0,0.0,0.0,0.0,0.0,0.0,0.0,0.0,0.0,0.0,0.0,0.0,0.0,0.0,0.0,0.0,1.9804,1.9999,2.0321,2.0294,1.9549,1.8203,1.6727,0.0,0.0,0.0,0.0,0.0,0.0,0.0,0.0,0.0,0.0,0.0,0.0,0.0,0.0,0.0,0.0,0.0,0.0,0.0,0.0,0.0,0.0,0.0,0.0,0.0,0.0,0.0,0.0,0.0,0.0,0.0,0.0,0.0,0.0,0.0,0.0,0.0,0.0,0.0,0.0,0.0,0.0,0.0,0.0,0.0,0.0,0.0,0.0,0.0,0.0,0.0,0.0,0.0,0.0,0.0,0.0,0.0,0.0,0.0,0.0,0.0,0.0,0.0,0.0,0.0,0.0,0.0,0.0,0.0,0.0,0.0,0.0,0.0,0.0,0.0,0.0,0.0,0.0,0.0,0.0,0.0,0.0,0.0,0.0,0.0,0.0,0.0,0.0,0.0,0.0,0.0,0.0,0.0,0.0,0.0,0.0,0.0,0.0,0.0,0.0,0.0,0.0,0.0,0.0,0.0,0.0,0.0,0.0,2.0512,2.0735,2.1336,2.163,2.1537,1.9613,1.7742,0.0,0.0,0.0,0.0,0.0,0.0,0.0,0.0,0.0,0.0,0.0,0.0,0.0,0.0,0.0,0.0,0.0,0.0,0.0,0.0,0.0,0.0,0.0,0.0,0.0,0.0,0.0,0.0,0.0,0.0,0.0,0.0,0.0,0.0,0.0,0.0,0.0,0.0,0.0,0.0,0.0,0.0,0.0,0.0,0.0,0.0,0.0,0.0,0.0,0.0,0.0,0.0,0.0,0.0,0.0,0.0,0.0,0.0,0.0,0.0,0.0,0.0,0.0,0.0,0.0,0.0,0.0,0.0,0.0,0.0,0.0,0.0,0.0,0.0,0.0,0.0,0.0,0.0,0.0,0.0,0.0,0.0,0.0,0.0,0.0,0.0,0.0,0.0,0.0,0.0,0.0,0.0,0.0,0.0,0.0,0.0,0.0,0.0,0.0,0.0,0.0,0.0,0.0,0.0,0.0,0.0,0.0,0.0,2.1506,2.1464,2.1937,2.2124,2.1897,1.9907,1.833,0.0,0.0,0.0,0.0,0.0,0.0,0.0,0.0,0.0,0.0,0.0,0.0,0.0,0.0,0.0,0.0,0.0,0.0,0.0,0.0,0.0,0.0,0.0,0.0,0.0,0.0,0.0,0.0,0.0,0.0,0.0,0.0,0.0,0.0,0.0,0.0,0.0,0.0,0.0,0.0,0.0,0.0,0.0,0.0,0.0,0.0,0.0,0.0,0.7461,0.0,0.0,0.0,0.0,0.0,0.0,0.0,0.0,0.0,0.0,0.0,0.0,0.0,0.0,0.0,0.0,0.0,0.0,0.0,0.0,0.0,0.0,0.0,0.0,0.0,0.0,0.0,0.0,0.0,0.0,0.0,0.0,0.0,0.0,0.0,0.0,0.0,0.0,0.0,0.0,0.0,0.0,0.0,0.0,0.0,0.0,0.0,0.0,0.0,0.0,0.0,0.0,0.0,0.0,0.0,0.0,0.0,0.0,0.0,2.2395,2.227,2.2472,2.2552,2.2338,2.0668,1.9065,0.0,0.0,0.0,0.0,0.0,0.0,0.0,0.0,0.0,0.0,0.0,0.0,0.0,0.0,0.0,0.0,0.0,0.0,0.0,0.0,0.0,0.0,0.0,0.0,0.0,0.0,0.0,0.0,0.0,0.0,0.0,0.0,0.0,0.0,0.0,0.0,0.0,0.0,0.0,0.0,0.0,0.0,0.0,0.0,0.0,0.0,0.0,0.0,0.0,0.0,0.0,0.0,0.0,0.0,0.0,0.0,0.0,0.0,0.0,0.0,0.0,0.0,0.0,0.0,0.0,0.0,0.0,0.0,0.0,0.0,0.0,0.0,0.0,0.0,0.0,0.0,0.0,0.0,0.0,0.0,0.0,0.0,0.0,0.0,0.0,0.0,0.0,0.0,0.0,0.0,0.0,0.0,0.0,0.0,0.0,0.0,0.0,0.0,0.0,0.0,0.0,0.0,0.0,0.0,0.0,0.0,0.0,2.2111,2.2978,2.301,2.2979,2.2979,2.2913,2.151,1.9813,1.7862,0.0,0.0,0.0,0.0,0.0,0.0,0.0,0.0,0.0,0.0,0.0,0.0,0.0,0.0,0.0,0.0,0.0,0.0,0.0,0.0,0.0,0.0,0.0,0.0,0.0,0.0,0.0,0.0,0.0,0.0,0.0,0.0,0.0,0.0,0.0,0.0,0.0,0.0,0.7014,0.7414,0.0,0.0,0.0,0.0,0.0,0.0,0.0,0.0,0.7536,0.0,0.0,0.0,0.0,0.0,0.0,0.0,0.0,0.0,0.0,0.0,0.0,0.0,0.0,0.0,0.0,0.0,0.0,0.0,0.0,0.0,0.0,0.0,0.0,0.0,0.0,0.0,0.0,0.0,0.0,0.0,0.0,0.0,0.0,0.0,0.0,0.0,0.0,0.0,0.0,0.0,0.0,0.0,0.0,0.0,0.0,0.0,0.0,0.0,0.0,0.0,0.0,0.0,0.0,0.0,0.0,2.095,2.2769,2.3516,2.322,2.3487,2.35,2.322,2.1817,2.0307,1.8758,0.0,0.0,0.0,0.0,0.0,0.0,0.0,0.0,0.0,0.0,0.0,0.0,0.0,0.0,0.0,0.0,0.0,0.0,0.0,0.0,0.0,0.0,0.0,0.0,0.0,0.0,0.0,0.0,0.0,0.0,0.0,0.0,0.0,0.0,0.0,0.0,0.0,0.0,0.0,0.7841,0.8018,0.0,0.0,0.0,0.0,0.0,0.0,0.0,0.0,0.7651,0.0,0.0,0.0,0.0,0.0,0.0,0.0,0.0,0.0,0.0,0.0,0.0,0.0,0.0,0.0,0.0,0.0,0.0,0.0,0.0,0.0,0.0,0.0,0.0,0.0,0.0,0.0,0.0,0.0,0.0,0.0,0.0,0.0,0.0,0.0,0.0,0.0,0.0,0.0,0.0,0.0,0.0,0.0,0.0,0.0,0.0,0.0,0.0,0.0,0.0,0.0,0.0,0.0,0.0,0.0,2.1877,2.3422,2.4288,2.4195,2.4222,2.4008,2.3554,2.2258,2.0735,0.0,0.0,0.0,0.0,0.0,0.0,0.0,0.0,0.0,0.0,0.0,0.0,0.0,0.0,0.0,0.0,0.0,0.0,0.0,0.0,0.0,0.0,0.0,0.0,0.0,0.0,0.0,0.0,0.0,0.0,0.0,0.0,0.0,0.0,0.0,0.0,0.0,0.0,0.0,0.0,0.8126,0.8296,0.837,0.0,0.0,0.0,0.0,0.0,0.0,0.814,0.797,0.0,0.0,0.0,0.0,0.0,0.0,0.0,0.0,0.0,0.0,0.0,0.0,0.0,0.0,0.0,0.0,0.0,0.0,0.0,0.0,0.0,0.0,0.0,0.0,0.0,0.0,0.0,0.0,0.0,0.0,0.0,0.0,0.0,0.0,0.0,0.0,0.0,0.0,0.0,0.0,0.0,0.0,0.0,0.0,0.0,0.0,0.0,0.0,0.0,0.0,0.0,0.0,0.0,0.0,0.0,2.311,2.43,2.5041,2.516,2.485,2.4449,2.3861,2.2645,2.1056,0.0,0.0,0.0,0.0,0.0,0.0,0.0,0.0,0.0,0.0,0.0,0.0,0.0,0.0,0.0,0.0,0.0,0.0,0.0,0.0,0.0,0.0,0.0,0.0,0.0,0.0,0.0,0.0,0.0,0.0,0.0,0.0,0.0,0.0,0.0,0.0,0.0,0.0,0.0,0.0,0.0,0.8594,0.8648,0.8407,0.0,0.0,0.0,0.0,0.8707,0.8499,0.0,0.0,0.0,0.0,0.0,0.0,0.0,0.0,0.0,0.0,0.0,0.0,0.0,0.0,0.0,0.0,0.0,0.0,0.0,0.0,0.0,0.0,0.0,0.0,0.0,0.0,0.0,0.0,0.0,0.0,0.0,0.0,0.0,0.0,0.0,0.0,0.0,0.0,0.0,0.0,0.0,0.0,0.0,0.0,0.0,0.0,0.0,0.0,0.0,0.0,0.0,0.0,0.0,0.0,0.0,0.0,2.4163,2.5517,2.587,2.5173,2.505,2.4756,2.4155,2.2752,2.1149,0.0,0.0,0.0,0.0,0.0,0.0,0.0,0.0,0.0,0.0,0.0,0.0,0.0,0.0,0.0,0.0,0.0,0.0,0.0,0.0,0.0,0.0,0.0,0.0,0.0,0.0,0.0,0.0,0.0,0.0,0.0,0.0,0.0,0.0,0.0,0.0,0.0,0.0,0.0,0.0,0.0,0.8981,0.9245,0.9035,0.8742,0.0,0.0,0.0,0.9167,0.8954,0.0,0.0,0.0,0.0,0.0,0.0,0.0,0.0,0.0,0.0,0.0,0.0,0.0,0.0,0.0,0.0,0.0,0.0,0.0,0.0,0.0,0.0,0.0,0.0,0.0,0.0,0.0,0.0,0.0,0.0,0.0,0.0,0.0,0.0,0.0,0.0,0.0,0.0,0.0,0.0,0.0,0.0,0.0,0.0,0.0,0.0,0.0,0.0,0.0,0.0,0.0,0.0,0.0,0.0,0.0,1.8494,2.4381,2.5813,2.6164,2.5785,2.5665,2.5211,2.4462,2.3006,2.1323,0.0,0.0,0.0,0.0,0.0,0.0,0.0,0.0,0.0,0.0,0.0,0.0,0.0,0.0,0.0,0.0,0.0,0.0,0.0,0.0,0.0,0.0,0.0,0.0,0.0,0.0,0.0,0.0,0.0,0.0,0.0,0.0,0.0,0.0,0.0,0.0,0.0,0.0,0.0,0.0,0.0,0.0,0.9354,0.9585,0.0,0.0,0.0,0.9701,0.9525,0.0,0.0,0.0,0.0,0.0,0.0,0.0,0.0,0.0,0.0,0.0,0.0,0.0,0.0,0.0,0.0,0.0,0.0,0.0,0.0,0.0,0.0,0.0,0.0,0.0,0.0,0.0,0.0,0.0,0.0,0.0,0.0,0.0,0.0,0.0,0.0,0.0,0.0,0.0,0.0,0.0,0.0,0.0,0.0,0.0,0.0,0.0,0.0,0.0,0.0,0.0,0.0,0.0,0.0,0.0,0.0,0.0,2.4755,2.584,2.6446,2.6346,2.6106,2.5571,2.4756,2.338,0.0,0.0,0.0,0.0,0.0,0.0,0.0,0.0,0.0,0.0,0.0,0.0,0.0,0.0,0.0,0.0,0.0,0.0,0.0,0.0,0.0,0.0,0.0,0.0,0.0,0.0,0.0,0.6301,0.0,0.0,0.0,0.0,0.0,0.0,0.0,0.0,0.0,0.0,0.0,0.0,0.0,0.0,0.9388,0.9585,1.0109,1.0221,0.0,0.0,0.9971,0.9883,0.9856,0.9625,0.0,0.0,0.0,0.0,0.0,0.0,0.0,0.0,0.0,0.0,0.0,0.0,0.0,0.0,0.0,0.0,0.0,0.0,0.0,0.0,0.0,0.0,0.0,0.0,0.0,0.0,0.0,0.0,0.0,0.0,0.0,0.0,0.0,0.0,0.0,0.0,0.0,0.0,0.0,0.0,0.0,0.0,0.0,0.0,0.0,0.0,0.0,0.0,0.0,0.0,0.0,0.0,0.0,0.0,0.0,2.513,2.6093,2.6471,2.636,2.6106,2.5665,2.505,2.3888,2.2298,0.0,0.0,0.0,0.0,0.0,0.0,0.0,0.0,0.0,0.0,0.0,0.0,0.0,0.0,0.0,0.0,0.0,0.0,0.0,0.0,0.0,0.0,0.0,0.0,0.0,0.0,0.0,0.0,0.0,0.0,0.0,0.0,0.0,0.0,0.0,0.0,0.0,0.0,0.0,0.0,0.0,0.9883,1.0181,1.0472,1.0616,0.0,0.0,1.0616,1.0622,1.0521,1.0236,0.9646,0.0,0.0,0.0,0.0,0.0,0.0,0.0,0.0,0.0,0.0,0.0,0.0,0.0,0.0,0.0,0.0,0.0,0.0,0.0,0.0,0.0,0.0,0.0,0.0,0.0,0.0,0.0,0.0,0.0,0.0,0.0,0.0,0.0,0.0,0.0,0.0,0.0,0.0,0.0,0.0,0.0,0.0,0.0,0.0,0.0,0.0,0.0,0.0,0.0,0.0,0.0,0.0,0.0,1.9598,2.5981,2.6319,2.6337,2.636,2.6106,2.5678,2.509,2.3941,2.2432,0.0,0.0,0.0,0.0,0.0,0.0,0.0,0.0,0.0,0.0,0.0,0.0,0.0,0.0,0.0,0.0,0.0,0.0,0.0,0.0,0.0,0.0,0.0,0.0,0.0,0.0,0.0,0.0,0.7183,0.7382,0.7429,0.0,0.0,0.0,0.0,0.0,0.0,0.0,0.0,0.0,0.0,1.0107,1.0493,1.0816,0.0,0.0,1.1087,1.1171,1.0724,1.0595,1.029,0.9707,0.911,0.0,0.0,0.0,0.0,0.0,0.0,0.0,0.0,0.0,0.0,0.0,0.0,0.0,0.0,0.0,0.0,0.0,0.0,0.0,0.0,0.0,0.0,0.0,0.0,0.0,0.0,0.0,0.0,0.0,0.0,0.0,0.0,0.0,0.0,0.0,0.0,0.0,0.0,0.0,0.0,0.0,0.0,0.0,0.0,0.0,0.0,0.0,0.0,0.0,0.0,0.0,0.0,1.9941,2.6298,2.6411,2.6356,2.6386,2.6106,2.5718,2.5211,2.4235,2.2926,0.0,0.0,0.0,0.0,0.0,0.0,0.0,0.0,0.0,0.0,0.0,0.0,0.0,0.0,0.0,0.0,0.0,0.0,0.0,0.0,0.0,0.0,0.0,0.0,0.0,0.0,0.0,0.0,0.759,0.7499,0.7197,0.0,0.0,0.0,0.0,0.0,0.0,0.0,0.0,0.0,0.0,1.0493,1.0806,1.1159,1.1296,1.1151,1.1351,1.1389,1.0873,1.069,1.0371,0.9829,0.0,0.0,0.0,0.0,0.0,0.0,0.0,0.0,0.0,0.0,0.0,0.0,0.0,0.0,0.0,0.0,0.0,0.0,0.0,0.0,0.0,0.0,0.0,0.0,0.0,0.0,0.0,0.0,0.0,0.0,1.9297,0.0,0.0,0.0,0.0,0.0,0.0,0.0,0.0,0.0,0.0,0.0,0.0,0.0,0.0,0.0,0.0,0.0,0.0,0.0,0.0,0.0,0.0,1.9939,2.6314,2.6377,2.6386,2.6386,2.6106,2.5798,2.5491,2.4917,2.3888,2.2378,0.0,0.0,0.0,0.0,0.0,0.0,0.0,0.0,0.0,0.0,0.0,0.0,0.0,0.0,0.0,0.0,0.0,0.0,0.0,0.0,0.0,0.0,0.0,0.0,0.0,0.0,0.767,0.7642,0.761,0.0,0.0,0.0,0.0,0.0,0.0,0.0,0.0,0.0,0.0,1.0392,1.1138,1.1151,1.1409,1.1586,1.1599,1.1348,1.1158,1.1151,1.09,1.0561,0.0,0.0,0.0,0.0,0.0,0.0,0.0,0.0,0.0,0.0,0.0,0.0,0.0,0.0,0.0,0.0,0.0,0.0,0.0,0.0,0.0,0.0,0.0,0.0,0.0,0.0,0.0,2.2448,2.207,0.0,0.0,0.0,0.0,0.0,0.0,0.0,0.0,0.0,0.0,0.0,2.539,2.8573,0.0,0.0,0.0,0.0,0.0,0.0,0.0,0.0,0.0,0.0,0.0,0.0,2.026,2.6076,2.6336,2.64,2.6386,2.5919,2.5611,2.5504,2.4756,2.3554,2.1897,0.0,0.0,0.0,0.0,0.0,0.0,0.0,0.0,0.0,0.0,0.0,0.0,0.0,0.0,0.0,0.0,0.0,0.0,0.0,0.0,0.0,0.0,0.0,0.0,0.0,0.9452,0.0,0.0,0.0,0.0,0.0,0.0,0.0,0.0,0.0,0.0,0.0,0.951,1.0046,1.0724,1.1233,1.1436,1.1552,1.1653,0.0,0.0,0.0,0.0,0.0,0.0,0.0,0.0,0.0,0.0,0.0,0.0,0.0,0.0,0.8567,0.8012,0.7858,0.797,0.8214,0.0,0.0,0.0,0.0,0.0,0.0,0.0,0.0,0.0,0.0,0.0,0.0,0.0,0.0,0.0,0.0,2.4062,0.0,0.0,0.0,0.0,0.0,0.0,0.0,0.0,2.5853,2.643,2.763,3.0608,3.1683,0.0,2.8203,2.5732,0.0,0.0,0.0,0.0,0.0,0.0,0.0,0.0,2.0781,2.6066,2.6475,2.644,2.6334,2.5959,2.5611,2.5504,2.4663,2.3661,2.2512,2.2046,2.0876,0.0,0.0,0.0,0.0,0.0,0.0,0.0,0.0,0.0,0.0,0.0,0.0,0.0,0.0,0.0,0.0,0.0,0.0,0.0,0.0,0.0,0.0,0.0,1.0569,0.0,0.0,0.0,0.0,0.0,0.0,0.0,0.0,0.0,0.8655,0.9395,1.012,1.0656,1.1158,1.1511,1.1606,0.0,0.0,0.0,0.0,0.0,0.0,0.0,1.0792,1.0548,1.0344,1.0127,0.9883,0.9802,0.9613,0.9261,0.0,0.0,0.8913,0.8716,0.873,0.8974,0.894,0.8967,0.9266,0.9367,0.949,0.0,0.0,0.0,0.0,0.0,0.0,0.0,0.0,2.6074,2.5898,0.0,2.5859,0.0,0.0,0.0,0.0,0.0,0.0,0.0,0.0,2.9852,3.0073,2.8689,3.0757,3.2355,3.3156,3.0241,2.8872,2.9141,2.6212,0.0,0.0,0.0,0.0,0.0,0.0,2.1132,2.6272,2.6501,2.6361,2.64,2.6055,2.5798,2.5464,2.4663,2.4209,2.4142,2.342,2.2958,2.2863,1.9598,0.0,0.0,0.0,0.0,0.0,0.0,0.0,0.0,0.0,0.0,0.0,0.0,0.0,0.0,0.0,0.0,0.0,0.0,0.0,0.0,1.2448,0.0,0.0,0.0,0.0,0.0,0.0,0.0,0.0,0.0,0.0,0.9462,1.0073,1.0677,1.1104,0.0,0.0,0.0,0.0,1.1804,1.1687,1.1504,1.1355,1.1226,1.1185,1.1131,1.0995,0.0,0.0,1.0392,1.0426,1.0412,0.9883,1.0183,1.0283,0.9703,0.9442,0.9469,0.9618,0.9659,0.9754,1.0025,1.0209,1.0392,2.9297,0.0,0.0,0.0,0.0,2.7637,2.8144,2.8672,2.8848,2.8574,2.8008,2.8008,0.0,0.0,0.0,0.0,0.0,0.0,2.9258,3.0019,3.1505,3.1745,3.1219,3.3164,3.4273,3.4298,3.3099,3.2533,3.263,3.1783,2.9332,2.5361,0.0,0.0,0.0,0.0,2.2819,2.6178,2.6831,2.6653,2.5977,2.5763,2.5398,2.4903,2.4649,2.4422,2.4209,2.412,2.3777,2.2972,2.1908,0.0,0.0,0.0,0.0,0.0,0.0,0.0,0.0,0.0,0.0,0.0,0.0,0.0,0.0,0.0,0.0,0.0,0.0,0.0,1.3987,1.3455,1.27,0.0,0.0,0.0,0.0,0.0,0.0,0.0,0.0,0.0,1.0744,1.09,1.1056,0.0,0.0,1.1755,1.1769,1.1843,1.1945,1.2074,0.0,0.0,0.0,1.1626,1.1477,1.1436,1.1335,1.1219,1.1097,1.1016,1.0941,1.0846,1.0914,1.0894,1.0697,1.0385,1.0243,1.0371,1.0487,1.0656,1.0934,1.105,1.1158,3.2168,3.1094,2.9863,2.9316,2.9355,2.9766,3.0195,3.0625,3.0859,3.0586,2.9961,3.0137,2.9355,2.791,2.7988,0.0,0.0,0.0,3.1152,3.2168,3.3015,3.3292,3.3258,3.4387,3.5032,3.5162,3.43,3.3984,3.4316,3.3984,3.2363,2.9362,0.0,0.0,2.3852,2.468,2.5741,2.7121,2.7295,2.6813,2.6016,2.5697,2.5237,2.4663,2.4636,2.4556,2.4382,2.458,2.4276,2.3667,2.2897,2.163,0.0,0.0,0.0,0.0,0.0,0.0,0.0,0.0,0.0,0.0,0.0,1.3758,1.5099,0.0,0.0,0.0,1.6201,1.626,1.6808,1.5715,0.0,0.0,0.0,0.0,0.0,0.0,0.0,1.0635,1.0693,1.0846,1.1402,1.1504,1.1579,1.1728,1.183,1.1898,1.1918,0.0,1.2054,1.2182,1.204,1.1959,1.2047,1.1965,1.1884,1.1884,1.1755,1.1633,1.1572,1.1484,1.1389,1.1287,1.1253,1.1392,1.1538,1.1166,1.0853,1.0894,1.1016,1.1199,1.1436,1.1572,1.1728,3.4687,3.4492,3.2168,3.1191,3.123,3.1621,3.1992,3.2363,3.2363,3.2129,3.1758,3.2148,3.1641,3.0488,3.0098,0.0,3.1797,3.2187,3.2988,3.4141,3.4551,3.4746,3.4746,3.4785,3.5166,3.6002,3.4359,3.4023,3.4746,3.4023,3.372,3.3869,3.2967,3.1154,2.8627,2.9445,2.9293,2.8125,2.7465,2.6865,2.6373,2.575,2.5224,2.469,2.4649,2.4623,2.4596,2.4515,2.4671,2.4575,2.3011,2.236,2.265,0.0,0.0,0.0,0.0,0.0,0.0,0.0,0.0,0.0,0.0,0.0,0.0,0.0,0.0,0.0,1.8892,0.0,2.0537,1.8601,0.0,0.0,0.0,1.0707,0.9046,0.946,1.0322,1.1453,0.0,0.0,0.0,0.0,1.2155,1.2305,1.2291,1.223,1.2101,1.2196,1.2244,1.2005,1.2108,1.2108,1.2162,1.2223,1.2277,1.2271,1.2182,1.202,1.1891,1.1843,1.1728,1.1362,1.1288,1.1585,1.203,1.1719,1.1382,1.1267,1.1341,1.1477,1.166,1.1884,1.2101,3.4687,3.4648,3.4043,3.3789,3.3809,3.3906,3.4004,3.4101,3.4101,3.3848,3.3476,3.3574,3.3457,3.3144,3.3047,3.334,3.3945,3.4062,3.4258,3.457,3.5019,3.5043,3.4718,3.5373,3.5877,3.5897,3.5527,3.5508,3.5684,3.5488,3.5625,3.5899,3.5665,3.418,3.164,3.2932,3.1433,2.6946,2.6717,2.645,2.6146,2.5518,2.5117,2.497,2.4756,2.4529,2.4315,2.4421,2.4638,2.4524,2.3365,2.2538,2.2162,2.0375,0.0,0.0,0.0,0.0,0.0,0.0,0.0,0.0,0.0,1.4678,1.6481,0.0,1.9639,0.0,2.0265,2.1248,2.0628,2.017,0.0,0.0,1.5125,1.2559,1.0482,1.0344,1.0822,1.1833,1.1664,1.1667,1.2081,1.2284,1.2454,1.2596,1.2332,1.2142,1.2216,1.2264,1.2359,1.2353,1.2313,1.244,1.2367,1.2494,1.2447,1.2454,1.2332,1.2223,1.2182,1.2088,1.1979,1.1603,1.165,1.1782,1.2024,1.1809,1.1769,1.1816,1.1782,1.1809,1.2074,1.2189,1.2277,3.5293,3.5293,3.5293,3.5293,3.5273,3.4863,3.4687,3.4687,3.4687,3.457,3.4355,3.4355,3.4355,3.4355,3.4355,3.459,3.5,3.5019,3.5117,3.5293,3.5547,3.549,3.5317,3.5743,3.6035,3.6035,3.6035,3.6035,3.6035,3.6211,3.6445,3.668,3.7051,3.6417,3.4677,3.548,3.4634,3.1923,2.8273,2.6226,2.5959,2.5638,2.5344,2.509,2.4796,2.4502,2.4209,2.3955,2.3829,2.3814,2.2779,2.2004,2.1793,2.0575,1.9386,0.0,0.0,0.0,0.0,0.0,0.0,0.0,0.0,0.0,0.0,0.0,2.0828,2.0281,2.1683,2.2257,2.1411,2.1014,2.0038,1.7995,1.5854,1.3648,1.1156,1.1036,1.1294,1.2039,1.2017,1.206,1.2433,1.2556,1.2657,1.2807,1.2617,1.2494,1.2569,1.2589,1.2644,1.2476,1.2601,1.2698,1.2574,1.2657,1.2576,1.2508,1.244,1.2386,1.2386,1.2264,1.2162,1.1998,1.2033,1.1986,1.2121,1.204,1.1999,1.2176,1.2142,1.2115,1.2257,1.2338,1.2413,3.6035,3.6035,3.6035,3.6035,3.5957,3.5195,3.4863,3.4863,3.4883,3.4863,3.4863,3.4863,3.4863,3.4863,3.4863,3.5078,3.5469,3.5469,3.5664,3.6016,3.6035,3.6035,3.6035,3.6035,3.6035,3.6035,3.6035,3.6055,3.6113,3.6484,3.6719,3.6855,3.7559,3.7767,3.7643,3.7467,3.7387,3.6941,3.0035,2.6253,2.5959,2.5919,2.5638,2.5104,2.4756,2.4449,2.4155,2.3453,2.2968,2.2723,2.168,2.1369,2.175,2.0592,1.9853,0.0,1.8544,0.0,0.0,0.0,0.0,0.0,0.0,0.0,0.0,2.0748,2.1537,2.2164,2.2926,2.316,2.2697,2.1888,2.0405,1.7717,1.6274,1.449,1.228,1.1798,1.183,1.2085,1.2305,1.242,1.2678,1.2759,1.284,1.2963,1.2996,1.299,1.301,1.2963,1.2935,1.2648,1.2822,1.2929,1.2807,1.2766,1.2718,1.2596,1.2549,1.2535,1.2535,1.2413,1.2318,1.2457,1.2347,1.2149,1.2132,1.2196,1.2189,1.2427,1.2379,1.2311,1.2332,1.2406,1.2494,3.6035,3.6035,3.6035,3.6035,3.5996,3.584,3.5781,3.5762,3.5781,3.5781,3.5762,3.5781,3.5762,3.5762,3.5781,3.582,3.5898,3.5898,3.5937,3.6035,3.6035,3.6035,3.6035,3.6035,3.6035,3.6035,3.6035,3.6211,3.6543,3.6641,3.7012,3.7676,3.7851,3.8288,3.8885,0.0,0.0,0.0,2.7254,2.6253,2.5959,2.5718,2.5438,2.509,2.4569,0.0,2.3861,2.3527,2.2948,2.1997,2.1739,0.0,0.0,0.0,0.0,0.0,0.0,0.0,0.0,0.0,0.0,0.0,2.0722,2.0828,2.0575,2.1523,2.2525,2.334,2.3594,2.3861,2.4103,2.3638,2.3025,2.2345,1.9193,1.6803,1.6062,1.3636,1.2067,1.2416,1.2393,1.2528,1.2718,1.2935,1.3091,1.3132,1.3241,1.3315,1.3308,1.3112,1.301,1.2936,1.3132,1.3246,1.2942,1.2915,1.2908,1.2868,1.2759,1.2698,1.2678,1.2569,1.2467,1.2467,1.2345,1.2298,1.2433,1.2345,1.2305,1.2467,1.2481,1.2461,1.2461,1.2481,1.2501,3.6035,0.0,3.6035,3.6035,0.0,3.6035,3.6035,3.6035,3.6035,3.6035,3.6035,3.6035,3.6035,3.6035,3.6035,3.6035,3.6035,3.6035,3.6133,3.6328,3.6152,3.6092,3.6463,3.6463,3.6641,3.6838,3.666,3.6758,3.6992,3.7187,3.75,3.793,3.834,3.8857,3.9298,3.545,3.115,2.6371,2.6383,2.6319,2.6172,2.6026,2.5812,2.5504,0.0,0.0,0.0,0.0,0.0,0.0,0.0,0.0,0.0,0.0,0.0,2.1309,2.0909,2.0735,2.0855,2.0748,2.0922,2.1496,2.2084,2.2365,2.2218,2.2886,2.3554,2.4128,2.4195,2.4315,2.4583,2.4235,2.3681,2.2633,1.9615,1.702,1.4897,1.3342,1.2491,1.2649,1.2793,1.2786,1.2929,1.3064,1.32,1.3275,1.3349,1.3403,1.339,1.3275,1.3214,1.3275,1.3288,1.3398,1.3098,1.3064,1.3037,1.2969,1.2895,1.2854,1.2847,1.2779,1.2725,1.2561,1.2507,1.2651,1.2698,1.261,1.2535,1.2583,1.2556,1.2501,1.2501,1.2501,1.2501,3.625,3.625,3.625,3.625,3.625,3.625,3.625,3.623,0.0,0.0,0.0,3.6035,3.6074,3.6133,3.6133,3.6172,3.625,3.625,3.6445,3.6777,3.6383,3.6417,3.6925,3.7086,3.7305,3.7865,3.7485,3.7324,3.7422,3.7832,3.8086,3.8223,3.8926,3.9394,3.9063,3.3563,2.9178,2.681,2.6466,2.6413,2.6319,2.6319,2.6172,2.5879,2.5304,2.4863,2.4556,2.3514,2.2899,2.2779,2.2325,2.2058,2.2044,2.183,2.1724,2.1764,2.155,2.163,2.2098,2.1924,2.2031,2.2619,2.3166,2.3581,2.3834,2.4115,2.4382,2.4623,2.4636,2.4636,2.4623,2.4329,2.3549,2.2093,1.9837,1.7115,1.3679,1.3034,1.3248,1.3082,1.3061,1.3037,1.3139,1.322,1.3295,1.3417,1.3478,1.3478,1.3471,1.3424,1.3376,1.3383,1.3376,1.3349,1.3254,1.3214,1.3166,1.3085,1.303,1.2996,1.2996,1.2976,1.2956,1.2602,1.2789,1.2942,1.3109,1.2847,1.2773,1.2773,1.2671,1.2583,1.2583,1.2583,1.2583,3.7109,3.7129,3.7109,3.7109,3.7129,3.7109,3.7129,3.7051,3.6348,3.6035,3.6035,3.6035,3.623,3.6582,3.6582,3.6777,3.7109,3.7129,3.7148,0.0,3.6848,3.6887,3.7285,3.7485,3.7885,3.8427,3.7685,3.748,3.7851,3.8281,3.8672,3.9043,3.9551,3.9814,3.9815,3.9443,3.557,2.8122,2.6854,2.6334,2.6026,2.6012,2.5879,2.5571,2.5024,2.4556,2.4262,2.3621,2.302,2.2364,2.2405,2.2352,2.2217,2.2311,2.2405,2.2645,2.2632,2.2659,2.2726,2.2699,2.2939,2.3527,2.3888,2.4102,2.4142,2.4409,2.4596,2.4636,2.4663,2.4636,2.4609,2.4195,2.3864,2.3601,2.1934,1.9752,1.7265,1.6095,1.4932,1.3568,1.3219,1.3146,1.3207,1.3397,1.3546,1.3607,1.3668,1.3763,1.3715,1.3559,1.3417,1.3397,1.3397,1.339,1.3376,1.3363,1.3342,1.3342,1.322,1.3146,1.3146,1.3064,1.3003,1.2969,1.2829,1.2983,1.3311,1.3116,1.3089,1.2922,1.2888,1.2868,1.2861,1.2868,1.2847,3.8247,3.7305,3.7305,3.7305,3.7305,3.7305,3.7305,3.7266,3.6894,3.6719,3.6719,3.6719,3.6816,3.7012,3.7012,3.7109,3.7305,3.7305,3.7422,3.7617,3.7255,3.7391,3.7969,3.8171,3.8354,3.8556,3.819,3.8203,3.8594,3.8828,3.9141,3.959,4.0019,4.0374,4.0627,4.0955,3.8073,3.1864,2.8269,2.6321,2.6426,2.6279,2.6119,2.5985,2.5571,2.5211,2.4917,2.4342,2.3768,2.318,2.3006,2.2832,2.2672,2.2659,2.2726,2.2846,2.2859,2.2859,2.2859,2.2859,2.3193,2.3928,2.4128,2.4409,2.489,2.489,2.4943,2.509,2.5104,2.5117,2.5104,2.4877,2.477,2.4903,2.3067,2.1954,2.1597,1.8346,1.5618,1.3739,1.337,1.3329,1.341,1.3546,1.3661,1.3729,1.381,1.3844,1.3844,1.3736,1.3641,1.3634,1.3573,1.3526,1.3519,1.3451,1.341,1.3397,1.3342,1.3302,1.3295,1.3227,1.32,1.32,1.3193,1.32,1.3363,1.3295,1.3253,1.3064,1.3003,1.2969,1.2963,1.3017,1.3044,3.9347,3.7578,3.7578,3.7578,3.7598,3.7598,3.7578,3.7578,3.7598,3.7598,3.7578,3.7583,3.7543,3.7441,3.7441,3.75,3.7578,3.7578,3.7773,3.8047,3.7701,3.7895,3.8535,3.8574,3.8633,3.8877,3.873,3.8945,3.9336,3.9453,3.9726,4.0176,4.0508,4.084,4.1172,4.119,3.9086,3.4735,2.9556,2.6865,2.68,2.66,2.6466,2.6373,2.6039,2.5718,2.5411,2.485,2.4302,2.3964,2.35,2.3207,2.2966,2.2899,2.2859,2.2859,2.2859,2.2899,2.2966,2.3033,2.342,2.4222,2.4369,2.4743,2.5478,2.5411,2.5331,2.5491,2.5491,2.5491,2.5478,2.5411,2.5438,2.5338,2.3624,2.3283,2.4617,2.0154,1.5642,1.3888,1.3356,1.3498,1.3607,1.3688,1.3797,1.3926,1.3946,1.3946,1.3946,1.3946,1.3946,1.3912,1.3797,1.3682,1.3668,1.3587,1.3505,1.3464,1.3458,1.3431,1.341,1.339,1.3397,1.3376,1.3383,1.3376,1.3383,1.3473,1.3404,1.322,1.3159,1.3085,1.3091,1.3152,1.322,4.0085,3.8602,3.8418,3.8457,3.8418,3.8437,3.8418,3.8437,3.8457,3.8457,3.8359,3.8422,3.8283,3.7851,3.7871,3.8066,3.8398,3.8457,3.8457,3.8496,3.8496,3.8535,3.8594,3.8594,3.8975,3.9662,3.9328,3.9355,3.9824,4.0195,4.0605,4.1016,4.1113,4.1113,4.1172,4.123,3.9077,3.4764,3.023,2.7575,2.6814,2.68,2.6667,2.6386,2.5852,2.5424,2.5157,2.4556,2.4102,2.3781,2.35,2.316,2.2955,2.2868,2.2873,2.2886,2.2873,2.2979,2.326,2.3541,2.3928,2.4529,2.4823,2.5224,2.5825,2.5879,2.5758,2.5611,2.5531,2.5558,2.5504,2.5331,2.5344,2.5418,2.3686,2.3212,2.4172,2.021,1.5811,1.3707,1.3512,1.3614,1.3675,1.3865,1.4075,1.419,1.4204,1.4204,1.4204,1.4211,1.4211,1.419,1.4201,1.4029,1.3824,1.381,1.3722,1.3627,1.36,1.3553,1.3464,1.341,1.3397,1.3397,1.3397,1.3397,1.3397,1.3383,1.337,1.3349,1.3329,1.3342,1.3356,1.3356,1.3356,4.1205,3.8574,3.8574,3.8574,3.8574,3.8574,3.8574,3.8574,3.8574,3.8574,3.8555,3.859,3.8531,3.832,3.8301,3.8418,3.8574,3.8574,3.8574,3.8594,3.8994,3.8965,3.8945,3.8965,3.9367,3.9759,3.9355,3.957,4.0234,4.0703,4.0996,4.1152,4.1172,4.1172,4.1172,4.1172,3.9059,3.4797,3.0453,2.7932,2.7445,2.7001,2.6774,2.66,2.6079,2.5638,2.5331,2.493,2.4663,2.4233,2.4071,2.3768,2.3439,2.346,2.3394,2.3394,2.3394,2.346,2.3581,2.3701,2.4022,2.4596,2.4917,2.5331,2.5905,2.6106,2.6159,2.6066,2.6026,2.6026,2.5999,2.5919,2.5905,2.57,2.4108,2.26,2.1994,1.9048,1.6004,1.4048,1.3661,1.3797,1.3892,1.4075,1.4217,1.4292,1.4299,1.4299,1.4299,1.4299,1.4299,1.4285,1.4366,1.4263,1.4,1.3892,1.3831,1.3763,1.3682,1.3593,1.3559,1.3444,1.3403,1.341,1.341,1.341,1.3397,1.3397,1.3397,1.3397,1.3397,1.3397,1.3397,1.3397,1.3397,4.2312,3.955,3.8865,3.8574,3.8574,3.8574,3.8574,3.8594,3.8672,3.8711,3.875,3.8887,3.8926,3.8926,3.8809,3.875,3.8769,3.8867,3.8926,3.8965,3.9426,3.9504,3.9406,3.9386,3.9375,3.946,3.9492,3.9844,4.0644,4.0996,4.1172,4.1172,4.1172,4.1172,4.1172,4.1172,3.9059,3.4747,3.041,2.8044,2.7848,2.7321,2.6947,2.668,2.6146,2.5692,2.5398,2.5104,2.4783,2.4528,2.4407,2.4115,2.4058,2.3821,2.3781,2.3781,2.3781,2.3808,2.3875,2.3888,2.4142,2.469,2.497,2.5291,2.5745,2.6026,2.6186,2.6239,2.6199,2.6132,2.6266,2.6346,2.636,2.6135,2.3939,2.161,2.0171,1.7714,1.5516,1.421,1.3817,1.396,1.4109,1.4224,1.4292,1.4299,1.4299,1.4299,1.4299,1.4299,1.4299,1.4299,1.4299,1.4251,1.415,1.4068,1.3966,1.3892,1.3824,1.3763,1.3702,1.358,1.3358,1.3432,1.3519,1.3464,1.3478,1.3464,1.3397,1.3397,1.3397,1.3397,1.3397,1.3397,1.3397,4.2988,4.0942,3.9281,3.8633,3.8594,3.8613,3.8613,3.8691,3.8612,3.8786,3.9219,3.9609,3.9824,3.9766,3.9375,3.918,3.9238,3.959,3.9726,3.9726,3.9805,3.9837,3.982,3.9406,3.9031,3.8961,3.9421,4.0195,4.1016,4.1113,4.1172,4.1152,4.1133,4.1152,4.1172,4.1152,3.904,3.4697,3.0366,2.8112,2.813,2.7776,2.7215,2.6466,2.5865,2.5438,2.513,2.4823,2.4636,2.4609,2.4369,2.4367,2.4485,2.4098,2.3808,2.3808,2.3794,2.3915,2.4142,2.4182,2.4422,2.493,2.5077,2.5211,2.5531,2.5665,2.5825,2.5972,2.5838,2.5785,2.5985,2.6213,2.6266,2.5779,2.2567,2.0477,1.9861,1.6549,1.433,1.4208,1.4146,1.4109,1.4258,1.4292,1.4299,1.4299,1.4299,1.4299,1.4299,1.4299,1.4299,1.4299,1.4299,1.4292,1.4285,1.4224,1.417,1.4095,1.4014,1.398,1.3899,1.3824,1.3633,1.3599,1.3506,1.3614,1.3418,1.3358,1.3431,1.3397,1.3397,1.3397,1.3397,1.3397,1.3417,4.3236,4.0412,3.9692,3.9414,3.9414,3.9414,3.9414,3.9414,3.8798,3.9044,3.9687,4.0433,4.0472,3.9902,4.0,3.9902,3.9687,3.9824,3.9746,3.9531,3.9746,3.9837,3.9613,3.9406,3.9207,3.9193,3.9116,3.9557,4.0293,4.0351,4.0488,4.0723,4.0762,4.0879,4.1094,4.1131,3.8862,3.4206,3.0275,2.7974,2.7714,2.7468,2.7094,2.6426,2.6012,2.5651,2.5358,2.4903,2.4636,2.4636,2.4529,2.4489,2.4622,2.4382,2.4329,2.4329,2.4315,2.4369,2.4462,2.4489,2.4556,2.4783,2.5157,2.5384,2.5558,2.5838,2.6119,2.6172,2.6146,2.6079,2.5972,2.6052,2.6159,2.5767,2.251,2.0089,1.9406,1.6422,1.3878,1.416,1.4304,1.4245,1.4272,1.4299,1.4299,1.4299,1.4299,1.4299,1.4299,1.4299,1.4299,1.4299,1.4299,1.4299,1.4299,1.4299,1.4265,1.4211,1.415,1.4075,1.3994,1.3905,1.37,1.3707,1.3804,1.3729,1.3512,1.3398,1.3471,1.3444,1.3444,1.3464,1.3397,1.3458,1.3498,4.3316,4.0184,3.9883,3.9883,3.9883,3.9883,3.9883,3.9883,3.924,3.9488,4.0137,4.0848,4.0907,4.0371,4.0605,4.0488,4.0117,4.0098,3.9922,3.9668,3.9824,3.9837,3.9633,3.9406,3.9297,3.9245,3.9077,3.944,4.0059,4.0254,4.0371,4.0527,4.0527,4.0778,4.1109,4.1243,3.8639,3.3793,2.9529,2.7418,2.7378,2.7268,2.7041,2.6573,2.6253,2.5852,2.5398,2.4983,2.473,2.4649,2.4636,2.4636,2.4636,2.4636,2.4636,2.4636,2.4623,2.4636,2.4636,2.4636,2.4676,2.4783,2.4966,2.5232,2.5518,2.5892,2.6119,2.6213,2.6146,2.6039,2.6092,2.6026,2.6039,2.5754,2.251,2.0089,1.998,1.635,1.4319,1.4297,1.4231,1.4292,1.4299,1.4299,1.4299,1.4299,1.4299,1.4299,1.4299,1.4299,1.4299,1.4299,1.4299,1.4299,1.4299,1.4299,1.4299,1.4251,1.4231,1.4163,1.4109,1.4021,1.3973,1.3973,1.3919,1.3838,1.3736,1.3614,1.3559,1.3532,1.358,1.3627,1.3587,1.3566,1.362,4.3358,4.0262,3.9922,3.998,4.0019,4.0019,3.9941,4.0039,3.9969,4.0124,4.0566,4.0937,4.121,4.1113,4.1016,4.0879,4.0508,4.0351,4.0293,4.0234,3.998,3.9798,3.9741,3.9495,3.919,3.8828,3.9473,4.0039,4.041,4.0723,4.0762,4.0566,4.0527,4.0641,4.1203,4.0912,3.8161,3.263,2.833,2.6841,2.7201,2.7215,2.7068,2.6774,2.6493,2.5985,2.5184,2.509,2.493,2.4703,2.4636,2.4636,2.4636,2.4636,2.4636,2.4636,2.4636,2.4636,2.4663,2.4676,2.481,2.5037,2.494,2.4987,2.5545,2.5819,2.5966,2.5985,2.5852,2.5798,2.6226,2.6146,2.6012,2.57,2.2533,2.0056,1.9294,1.6502,1.4122,1.4231,1.4272,1.4292,1.4299,1.4299,1.4299,1.4299,1.4299,1.4299,1.4299,1.4299,1.4299,1.4299,1.4299,1.4299,1.4299,1.4299,1.4299,1.4292,1.4285,1.4251,1.4238,1.4177,1.4163,1.415,1.4041,1.396,1.3878,1.3777,1.3749,1.3736,1.3777,1.377,1.3736,1.3715,1.379,4.1795,4.0762,4.0781,4.0781,4.0781,4.0781,4.0781,4.0781,4.0744,4.0957,4.0996,4.1113,4.1172,4.1094,4.0859,4.0644,4.0469,3.9941,3.9609,3.959,3.9473,3.9219,3.9033,3.8955,3.9053,3.9416,3.9465,3.9668,4.0059,4.0273,4.0332,4.0488,4.0527,4.0452,4.0395,4.0164,3.6576,2.9105,2.7086,2.652,2.668,2.6867,2.6814,2.6547,2.6426,2.6146,2.5705,2.5304,2.4887,2.4605,2.4581,2.4636,2.4636,2.4636,2.4636,2.4636,2.4636,2.4743,2.4917,2.4943,2.5064,2.5344,2.5378,2.5524,2.5825,2.5999,2.6132,2.6253,2.6172,2.6226,2.6319,2.6319,2.6239,2.6253,2.2522,1.9935,1.9151,1.6342,1.4312,1.4109,1.4143,1.4183,1.4272,1.4292,1.4285,1.4299,1.4299,1.4299,1.4299,1.4299,1.4299,1.4299,1.4299,1.4299,1.4299,1.4299,1.4299,1.4299,1.4299,1.4299,1.4299,1.4299,1.4299,1.4265,1.4163,1.4082,1.4007,1.3953,1.3926,1.3878,1.3858,1.3851,1.3844,1.3885,1.396,4.1907,4.1172,4.1172,4.1172,4.1172,4.1172,4.1172,4.1172,4.1172,4.1172,4.1133,4.0976,4.0918,4.084,4.0469,4.0195,3.998,3.9434,3.9121,3.8984,3.8965,3.8809,3.8633,3.8955,3.9318,3.982,3.9739,3.9844,4.0117,4.0293,4.043,4.0527,3.9721,3.9508,3.9504,3.7869,3.338,2.7333,2.6491,2.636,2.6426,2.6573,2.6573,2.6413,2.64,2.6293,2.6092,2.5651,2.5179,2.473,2.4723,2.4957,2.4794,2.497,2.497,2.497,2.497,2.5064,2.5224,2.5237,2.5371,2.5638,2.567,2.583,2.6106,2.6306,2.6386,2.64,2.6373,2.64,2.6386,2.6386,2.607,2.5092,2.2006,1.9346,1.7731,1.5424,1.4036,1.3966,1.3987,1.4061,1.417,1.4217,1.4245,1.4278,1.4299,1.4299,1.4299,1.4299,1.4299,1.4299,1.4299,1.4299,1.4299,1.4299,1.4299,1.4299,1.4299,1.4299,1.4299,1.4299,1.4299,1.4292,1.4217,1.4211,1.4143,1.4109,1.4075,1.4014,1.398,1.4041,1.4075,1.4061,1.3941,4.2729,4.1288,4.1172,4.1113,4.1055,4.1074,4.1055,4.1055,4.1055,4.1016,4.0937,4.0452,4.0296,4.0391,4.0117,3.9766,3.9336,3.9336,3.9141,3.8887,3.8809,3.8789,3.8662,3.9328,3.988,4.0097,4.0308,4.0469,4.0586,4.0879,4.0976,4.0491,3.8695,3.7998,3.8309,3.4862,3.1086,2.71,2.6386,2.6386,2.64,2.64,2.64,2.64,2.6386,2.6373,2.6306,2.6066,2.5617,2.4866,2.5272,2.5424,2.5312,2.5338,2.5451,2.5438,2.5491,2.5491,2.5518,2.5545,2.5665,2.5945,2.583,2.5726,2.6306,2.636,2.64,2.64,2.64,2.64,2.64,2.64,2.5422,2.314,2.0888,1.8055,1.4426,1.3715,1.3777,1.364,1.3666,1.3885,1.4034,1.4055,1.4122,1.4197,1.4245,1.4258,1.4265,1.4265,1.4292,1.4299,1.4299,1.4299,1.4299,1.4299,1.4299,1.4299,1.4299,1.4299,1.4299,1.4299,1.4299,1.4292,1.4285,1.4285,1.4272,1.4217,1.4211,1.419,1.4211,1.4285,1.4272,1.4217,1.4035,4.1124,4.0742,4.1035,4.082,4.0332,4.0547,4.0508,4.0273,4.0465,4.0484,4.0215,3.9888,3.9868,4.0039,3.9941,3.9824,3.9707,3.9687,3.9687,3.957,3.9551,3.9154,3.8947,3.946,4.0262,4.0749,4.0621,4.0684,4.0996,4.0938,4.0938,4.086,3.8365,3.6975,3.5956,3.4601,3.1441,2.7187,2.6466,2.64,2.64,2.64,2.64,2.64,2.64,2.64,2.64,2.6319,2.6012,2.5391,2.5864,2.5864,2.5545,2.5545,2.5571,2.5571,2.5545,2.5625,2.5798,2.5838,2.5972,2.6239,2.6239,2.6293,2.6373,2.64,2.64,2.64,2.64,2.64,2.64,2.6228,2.4602,2.1362,1.9277,1.6862,1.4289,1.3492,1.3553,1.3485,1.3512,1.3756,1.3851,1.3905,1.3926,1.3987,1.4068,1.4143,1.417,1.4231,1.4265,1.4292,1.4299,1.4299,1.4299,1.4299,1.4299,1.4299,1.4299,1.4299,1.4299,1.4299,1.4299,1.4299,1.4292,1.4292,1.4292,1.4272,1.4292,1.4299,1.4299,1.4299,1.4299,1.4272,1.4278,4.0254,4.0273,4.0527,4.0351,3.9941,4.0156,4.0117,3.9941,4.0073,4.0073,3.9844,3.9479,3.9518,3.9863,3.9687,3.9726,3.9863,3.9883,3.9883,3.9922,3.9849,3.962,3.9391,4.0039,4.0715,4.1124,4.0935,4.0453,3.9826,3.9864,3.9374,3.8054,3.6281,3.4959,3.4813,3.2561,3.0248,2.6987,2.636,2.6348,2.64,2.64,2.64,2.64,2.64,2.64,2.64,2.6386,2.6213,2.5959,2.6229,2.6229,2.5879,2.5879,2.5879,2.5879,2.5879,2.5972,2.6092,2.6146,2.6213,2.6346,2.64,2.64,2.64,2.64,2.64,2.64,2.64,2.64,2.6056,2.492,2.2659,2.0231,1.7492,1.5216,1.3562,1.341,1.3444,1.3338,1.3539,1.3593,1.3729,1.3749,1.3783,1.3844,1.3926,1.4007,1.4068,1.4156,1.4224,1.4238,1.4272,1.4278,1.4278,1.4278,1.4292,1.4292,1.4299,1.4299,1.4299,1.4299,1.4299,1.4299,1.4299,1.4299,1.4299,1.4299,1.4299,1.4299,1.4299,1.4299,1.4299,1.4299,1.4319,3.9824,3.9824,3.9883,3.9844,3.9746,3.9805,3.9746,3.9746,3.9687,3.9726,3.9687,3.9375,3.9512,3.9883,3.9687,3.9609,3.998,4.0117,4.0117,4.0195,4.0179,4.0046,4.0215,4.068,4.103,4.1128,4.121,3.9983,3.8724,3.8231,3.6762,3.5298,3.3022,3.2897,3.3439,3.0807,2.7892,2.6848,2.6384,2.6454,2.644,2.64,2.64,2.64,2.64,2.64,2.64,2.64,2.636,2.6386,2.64,2.6333,2.6346,2.6373,2.636,2.6333,2.6293,2.6319,2.6373,2.6346,2.6373,2.64,2.64,2.64,2.64,2.64,2.64,2.64,2.64,2.6228,2.5251,2.2499,2.0231,1.877,1.5843,1.3728,1.3397,1.3397,1.3397,1.3397,1.3403,1.3471,1.3553,1.3614,1.3641,1.3675,1.3763,1.3844,1.3946,1.4228,1.4116,1.4156,1.4197,1.4258,1.4258,1.4258,1.4272,1.4285,1.4292,1.4299,1.4299,1.4299,1.4299,1.4299,1.4299,1.4299,1.4299,1.4299,1.4299,1.4299,1.4299,1.4299,1.4299,1.4299,1.4306,3.9336,3.9375,3.9746,3.9492,3.8965,3.9199,3.918,3.8906,3.8906,3.918,3.9297,3.9238,3.9492,3.9922,4.0078,4.0312,4.043,4.0684,4.0898,4.0898,4.0937,4.0976,4.0879,4.117,4.119,4.1229,4.1133,3.9864,3.839,3.7241,3.6762,3.4489,3.2397,3.2386,3.34,3.0354,2.7919,2.7091,2.6624,2.6347,2.644,2.64,2.64,2.64,2.64,2.64,2.64,2.64,2.64,2.64,2.64,2.64,2.64,2.64,2.64,2.64,2.64,2.64,2.64,2.64,2.64,2.64,2.64,2.64,2.64,2.64,2.64,2.64,2.6386,2.574,2.4111,2.1523,1.9258,1.7465,1.5193,1.3397,1.3397,1.3397,1.3397,1.3397,1.3403,1.3417,1.3451,1.3464,1.3492,1.3519,1.3593,1.3675,1.3797,1.4105,1.3987,1.4027,1.4122,1.4163,1.4129,1.4143,1.4183,1.4224,1.4258,1.4258,1.4258,1.4299,1.4299,1.4299,1.4299,1.4299,1.4299,1.4299,1.4299,1.4299,1.4299,1.4299,1.4299,1.4299,1.4299,3.8906,3.8926,3.918,3.9004,3.8691,3.9023,3.9082,3.8945,3.9121,3.9316,3.9492,3.9531,3.9766,4.0176,4.043,4.0605,4.084,4.1035,4.1172,4.1152,4.1152,4.1172,4.1172,4.1172,4.1172,4.1016,4.0021,3.8548,3.6762,3.5298,3.3512,3.1887,3.0426,3.0332,3.1479,2.9397,2.822,2.7689,2.6756,2.6452,2.6453,2.64,2.64,2.64,2.64,2.64,2.64,2.64,2.64,2.64,2.64,2.64,2.64,2.64,2.64,2.64,2.64,2.64,2.64,2.64,2.64,2.64,2.64,2.64,2.64,2.64,2.64,2.64,2.6228,2.5568,2.33,1.9897,1.7946,1.6647,1.4706,1.3562,1.3397,1.3397,1.3397,1.3397,1.3397,1.3403,1.3403,1.3397,1.341,1.3464,1.3464,1.3553,1.3661,1.3777,1.3838,1.3899,1.384,1.3881,1.4007,1.4014,1.4061,1.4122,1.419,1.4183,1.4177,1.4238,1.4299,1.4299,1.4299,1.4299,1.4299,1.4299,1.4299,1.4299,1.4299,1.4299,1.4299,1.4299,1.4299,3.8633,3.8594,3.8633,3.8672,3.873,3.9141,3.9336,3.9375,3.9726,3.9863,4.0,4.0,4.0215,4.0566,4.0644,4.0859,4.1074,4.1152,4.1172,4.1172,4.1172,4.1172,4.1172,4.1172,4.1172,4.1016,3.9707,3.7737,3.5621,3.3022,3.2052,2.9286,2.8473,2.8824,2.8487,2.8292,2.8244,2.7989,2.6901,2.6449,2.6374,2.644,2.64,2.64,2.64,2.64,2.64,2.64,2.64,2.64,2.64,2.64,2.64,2.64,2.64,2.64,2.64,2.64,2.64,2.64,2.64,2.64,2.64,2.64,2.64,2.64,2.64,2.6228,2.5898,2.4761,2.2648,1.9238,1.6975,1.5835,1.4375,1.3562,1.3397,1.3397,1.3397,1.3397,1.3397,1.3397,1.3397,1.3397,1.3397,1.3397,1.3403,1.3431,1.3539,1.3459,1.3526,1.3552,1.364,1.3707,1.3844,1.3912,1.3953,1.398,1.4068,1.4089,1.4075,1.4089,1.415,1.4278,1.4299,1.4292,1.4292,1.4299,1.4299,1.4299,1.4299,1.4299,1.4299,1.4299,1.4299,3.8887,3.8613,3.8945,3.9101,3.916,3.959,3.9785,3.9785,3.9902,4.0098,4.0391,4.043,4.0664,4.0957,4.1055,4.1113,4.1152,4.1172,4.1172,4.1172,4.1172,4.1172,4.1172,4.1172,4.1172,4.1172,4.0509,3.9198,3.7082,3.5137,3.2381,3.0744,2.895,2.8305,2.815,2.8123,2.8171,2.7973,2.7171,2.6515,2.64,2.6334,2.64,2.64,2.64,2.64,2.64,2.64,2.64,2.64,2.64,2.64,2.64,2.64,2.64,2.64,2.64,2.64,2.64,2.64,2.64,2.64,2.64,2.64,2.64,2.64,2.64,2.5898,2.4761,2.282,2.0554,1.8109,1.5999,1.4541,1.3894,1.3397,1.3397,1.3397,1.3397,1.3397,1.3397,1.3397,1.3397,1.3397,1.3397,1.3397,1.3403,1.3403,1.3458,1.3526,1.3412,1.3418,1.3418,1.3472,1.3668,1.3777,1.3851,1.3838,1.3899,1.3973,1.396,1.3926,1.3987,1.4163,1.4265,1.4278,1.4285,1.4292,1.4299,1.4299,1.4299,1.4299,1.4299,1.4299,1.4299,3.875,3.8613,3.9023,3.9199,3.9316,3.9941,4.0215,4.0254,4.0449,4.0664,4.082,4.0879,4.0976,4.1133,4.1172,4.1172,4.1172,4.1172,4.1172,4.1172,4.1172,4.1172,4.1172,4.1172,4.1172,4.1172,4.1016,4.0021,3.7737,3.4327,3.2858,3.1241,2.9286,2.8136,2.815,2.8136,2.8171,2.7902,2.7415,2.6756,2.6466,2.6361,2.6413,2.64,2.64,2.64,2.64,2.64,2.64,2.64,2.64,2.64,2.64,2.64,2.64,2.64,2.64,2.64,2.64,2.64,2.64,2.64,2.64,2.64,2.64,2.64,2.64,2.5898,2.4442,2.2166,2.0231,1.7946,1.5679,1.4052,1.3397,1.3397,1.3397,1.3397,1.3397,1.3397,1.3397,1.3397,1.3397,1.3397,1.3397,1.3397,1.3397,1.3397,1.3397,1.3437,1.3331,1.3325,1.3325,1.3539,1.358,1.3654,1.3709,1.3695,1.3736,1.381,1.3871,1.3851,1.378,1.3934,1.4001,1.4224,1.4285,1.4299,1.4299,1.4299,1.4299,1.4299,1.4299,1.4299,1.4299,3.8789,3.873,3.9258,3.9473,3.959,4.0312,4.0644,4.0723,4.0996,4.1133,4.1172,4.1152,4.1152,4.1172,4.1172,4.1172,4.1172,4.1172,4.1172,4.1172,4.1172,4.1172,4.1172,4.1172,4.1172,4.1172,4.1172,4.0353,3.8548,3.5298,3.3022,3.1887,3.0107,2.8473,2.8305,2.815,2.8157,2.7982,2.77,2.7188,2.6653,2.6374,2.64,2.64,2.64,2.64,2.64,2.64,2.64,2.64,2.64,2.64,2.64,2.64,2.64,2.64,2.64,2.64,2.64,2.64,2.64,2.64,2.64,2.64,2.64,2.64,2.6386,2.6056,2.4442,2.2659,2.0878,1.8109,1.6164,1.4706,1.3887,1.3397,1.3397,1.3397,1.3397,1.3397,1.3397,1.3397,1.3397,1.3397,1.3397,1.3397,1.3397,1.3397,1.3397,1.3397,1.3431,1.3424,1.3431,1.3478,1.3512,1.3532,1.3553,1.3526,1.3587,1.3661,1.3743,1.3797,1.3926,1.3874,1.4095,1.415,1.4224,1.4299,1.4299,1.4299,1.4299,1.4299,1.4299,1.4299,1.4299,3.9512,3.9199,4.0019,4.0371,4.041,4.0859,4.1074,4.1074,4.1133,4.1172,4.1172,4.1172,4.1172,4.1172,4.1172,4.1172,4.1172,4.1172,4.1172,4.1172,4.1172,4.1172,4.1172,4.1172,4.1172,4.1172,4.1172,4.1172,3.9864,3.7737,3.5782,3.4002,3.1722,3.0093,2.8305,2.815,2.8136,2.8211,2.8149,2.7566,2.6867,2.6547,2.644,2.64,2.64,2.64,2.64,2.64,2.64,2.64,2.64,2.64,2.64,2.64,2.64,2.64,2.64,2.64,2.64,2.64,2.64,2.64,2.64,2.64,2.64,2.64,2.6386,2.6386,2.4602,2.314,2.1845,1.8923,1.6975,1.5514,1.4375,1.3728,1.3397,1.3397,1.3397,1.3397,1.3397,1.3397,1.3397,1.3397,1.3397,1.3397,1.3397,1.3397,1.3397,1.3397,1.3397,1.3397,1.3397,1.3437,1.3451,1.3478,1.3464,1.3403,1.3458,1.3539,1.3614,1.3715,1.3851,1.3953,1.4021,1.4122,1.4238,1.4299,1.4299,1.4299,1.4299,1.4299,1.4299,1.4299,1.4299,3.9844,3.9277,4.0156,4.0527,4.0586,4.0996,4.1172,4.1172,4.1172,4.1172,4.1172,4.1172,4.1172,4.1172,4.1172,4.1172,4.1172,4.1172,4.1172,4.1172,4.1172,4.1172,4.1172,4.1172,4.1172,4.1172,4.1172,4.1172,4.0509,3.904,3.6762,3.4813,3.2546,3.026,2.8446,2.8136,2.8136,2.8238,2.819,2.777,2.6961,2.6694,2.6547,2.64,2.64,2.64,2.64,2.64,2.64,2.64,2.64,2.64,2.64,2.64,2.64,2.64,2.64,2.64,2.64,2.64,2.64,2.64,2.64,2.64,2.64,2.64,2.64,2.6386,2.5568,2.4602,2.314,2.022,1.8272,1.6656,1.5028,1.3887,1.3397,1.3397,1.3397,1.3397,1.3397,1.3397,1.3397,1.3397,1.3397,1.3397,1.3397,1.3397,1.3397,1.3397,1.3397,1.3397,1.3397,1.341,1.3417,1.3424,1.3437,1.3403,1.3403,1.3471,1.3526,1.362,1.3797,1.3966,1.4089,1.419,1.4278,1.4299,1.4299,1.4299,1.4299,1.4299,1.4299,1.4299,1.4299,4.0039,3.9609,4.0371,4.0625,4.0566,4.0996,4.1172,4.1172,4.1172,4.1172,4.1172,4.1172,4.1172,4.1172,4.1172,4.1172,4.1172,4.1172,4.1172,4.1172,4.1172,4.1172,4.1172,4.1172,4.1172,4.1172,4.1172,4.1172,4.0685,3.9531,3.7896,3.546,3.3676,3.0836,2.8868,2.8265,2.8136,2.8123,2.8217,2.7811,2.7041,2.6867,2.6653,2.648,2.64,2.64,2.64,2.64,2.64,2.64,2.64,2.64,2.64,2.64,2.64,2.64,2.64,2.64,2.64,2.64,2.64,2.64,2.64,2.64,2.64,2.64,2.64,2.64,2.6228,2.5409,2.3952,2.2006,1.9897,1.7955,1.5843,1.4541,1.3562,1.3562,1.3562,1.3397,1.3397,1.3397,1.3397,1.3397,1.3397,1.3397,1.3397,1.3397,1.3397,1.3397,1.3397,1.3397,1.3397,1.3397,1.3397,1.3397,1.3397,1.3397,1.3397,1.3451,1.3526,1.3661,1.3838,1.3994,1.4136,1.4224,1.4299,1.4299,1.4299,1.4299,1.4299,1.4299,1.4299,1.4299,1.4299,4.0137,4.0488,4.0918,4.0879,4.0586,4.0996,4.1172,4.1172,4.1172,4.1172,4.1172,4.1172,4.1172,4.1172,4.1172,4.1172,4.1172,4.1172,4.1172,4.1172,4.1172,4.1172,4.1172,4.1172,4.1172,4.1172,4.1172,4.1172,4.1172,4.0841,3.9374,3.7578,3.5137,3.2002,2.9533,2.8184,2.8136,2.8278,2.8257,2.7973,2.7418,2.7001,2.672,2.648,2.64,2.64,2.64,2.64,2.64,2.64,2.64,2.64,2.64,2.64,2.64,2.64,2.64,2.64,2.64,2.64,2.64,2.64,2.64,2.64,2.64,2.64,2.64,2.64,2.64,2.6228,2.5409,2.4111,2.1523,1.9897,1.762,1.5491,1.4526,1.4052,1.3887,1.3562,1.3397,1.3397,1.3397,1.3397,1.3397,1.3397,1.3397,1.3397,1.3397,1.3397,1.3397,1.3397,1.3397,1.3397,1.3397,1.3397,1.3397,1.3397,1.3397,1.3485,1.3587,1.3729,1.3824,1.3834,1.3961,1.4224,1.4299,1.4299,1.4299,1.4299,1.4299,1.4299,1.4299,1.4299,1.4299,4.0625,4.0566,4.0996,4.1074,4.0937,4.1113,4.1172,4.1172,4.1172,4.1172,4.1172,4.1172,4.1172,4.1172,4.1172,4.1172,4.1172,4.1172,4.1172,4.1172,4.1172,4.1172,4.1172,4.1172,4.1172,4.1172,4.1172,4.1172,4.1172,4.1172,4.0841,3.9216,3.6442,3.2313,2.9656,2.8311,2.8278,2.8123,2.8197,2.8009,2.7535,2.7241,2.6947,2.668,2.644,2.64,2.64,2.64,2.64,2.64,2.64,2.64,2.64,2.64,2.64,2.64,2.64,2.64,2.64,2.64,2.64,2.64,2.64,2.64,2.64,2.64,2.64,2.64,2.64,2.64,2.607,2.4442,2.2487,2.1523,1.9725,1.7104,1.5475,1.5177,1.4031,1.37,1.3549,1.3397,1.3397,1.3397,1.3397,1.3397,1.3397,1.3397,1.3397,1.3397,1.3397,1.3397,1.3397,1.3397,1.3397,1.3397,1.3397,1.3397,1.3403,1.3498,1.3593,1.3634,1.3749,1.3774,1.3954,1.4204,1.4258,1.4285,1.4299,1.4299,1.4299,1.4299,1.4299,1.4299,1.4299,4.0879,4.0762,4.1055,4.1094,4.0996,4.1113,4.1172,4.1172,4.1172,4.1172,4.1172,4.1172,4.1172,4.1172,4.1172,4.1172,4.1172,4.1172,4.1172,4.1172,4.1172,4.1172,4.1172,4.1172,4.1172,4.1172,4.1172,4.1172,4.1172,4.1172,4.1016,3.9707,3.6922,3.3012,3.1033,2.8659,2.8305,2.815,2.8123,2.7989,2.7696,2.7402,2.7108,2.6814,2.6533,2.64,2.64,2.64,2.64,2.64,2.64,2.64,2.64,2.64,2.64,2.64,2.64,2.64,2.64,2.64,2.64,2.64,2.64,2.64,2.64,2.64,2.64,2.64,2.64,2.6386,2.6386,2.5092,2.3632,2.2648,2.1845,1.9715,1.743,1.6303,1.4818,1.383,1.4016,1.4706,1.4698,1.4863,1.421,1.4052,1.3397,1.3397,1.3397,1.3397,1.3397,1.3397,1.3397,1.3397,1.3397,1.3397,1.3397,1.3397,1.3417,1.3492,1.3566,1.3614,1.3743,1.3807,1.3948,1.4183,1.4238,1.4285,1.4299,1.4299,1.4299,1.4299,1.4299,1.4299,1.4299,4.0801,4.1133,4.1152,4.0937,4.0684,4.1016,4.1172,4.1172,4.1172,4.1172,4.1172,4.1172,4.1172,4.1172,4.1172,4.1172,4.1172,4.1172,4.1172,4.1172,4.1172,4.1172,4.1172,4.1172,4.1172,4.1172,4.1172,4.1172,4.1172,4.1172,4.1172,4.0021,3.7082,3.3985,3.3823,3.026,2.8305,2.815,2.815,2.7976,2.7762,2.7455,2.7134,2.6907,2.656,2.64,2.64,2.64,2.64,2.64,2.64,2.64,2.64,2.64,2.64,2.64,2.64,2.64,2.64,2.64,2.64,2.64,2.64,2.64,2.64,2.64,2.64,2.64,2.64,2.64,2.6386,2.607,2.492,2.4111,2.33,2.2522,2.0393,1.8569,1.7258,1.5951,1.6139,1.6483,1.6647,1.6319,1.5514,1.4698,1.3728,1.3397,1.3562,1.3376,1.3363,1.3397,1.3397,1.3397,1.3397,1.3397,1.3397,1.3397,1.3424,1.3492,1.358,1.3668,1.3653,1.3854,1.3941,1.4177,1.4238,1.4299,1.4299,1.4299,1.4299,1.4299,1.4299,1.4299,1.4299,4.1035,4.1172,4.1172,4.1094,4.0976,4.1094,4.1172,4.1172,4.1172,4.1172,4.1172,4.1172,4.1172,4.1172,4.1172,4.1172,4.1172,4.1172,4.1172,4.1172,4.1172,4.1172,4.1172,4.1172,4.1172,4.1172,4.1172,4.1172,4.1172,4.1172,4.1172,4.0178,3.6762,3.3186,3.091,2.8642,2.815,2.815,2.8136,2.807,2.7936,2.7535,2.7201,2.7068,2.664,2.64,2.64,2.64,2.64,2.64,2.64,2.64,2.64,2.64,2.64,2.64,2.64,2.64,2.64,2.64,2.64,2.64,2.64,2.64,2.64,2.64,2.64,2.64,2.64,2.64,2.6386,2.6386,2.574,2.574,2.5276,2.5193,2.3888,2.2189,2.0684,1.9238,1.876,1.876,1.876,1.8598,1.7955,1.7138,1.6492,1.4541,1.4052,1.3659,1.3466,1.337,1.3397,1.3397,1.3397,1.3397,1.3397,1.3397,1.3424,1.3471,1.3573,1.3695,1.3844,1.4021,1.4102,1.4177,1.4245,1.4299,1.4299,1.4299,1.4299,1.4299,1.4299,1.4299,1.4299,4.1172,4.1172,4.1172,4.1172,4.1172,4.1172,4.1172,4.1172,4.1172,4.1172,4.1172,4.1172,4.1172,4.1172,4.1172,4.1172,4.1172,4.1172,4.1172,4.1172,4.1172,4.1172,4.1172,4.1172,4.1172,4.1172,4.1172,4.1172,4.1172,4.1172,4.0685,3.9198,3.6424,3.2601,2.9675,2.8365,2.815,2.815,2.8136,2.8136,2.7949,2.7642,2.7268,2.7081,2.676,2.64,2.64,2.64,2.64,2.64,2.64,2.64,2.64,2.64,2.64,2.64,2.64,2.64,2.64,2.64,2.64,2.64,2.64,2.64,2.64,2.64,2.64,2.64,2.64,2.64,2.64,2.64,2.6386,2.6386,2.6255,2.6175,2.5672,2.3964,2.2166,2.0878,2.0878,2.0878,2.1039,2.0878,2.0393,1.9897,1.9248,1.7138,1.5185,1.4467,1.3938,1.3679,1.3562,1.3397,1.3397,1.3397,1.3397,1.3397,1.3424,1.3458,1.3587,1.3715,1.3865,1.4014,1.4129,1.4224,1.4265,1.4299,1.4299,1.4299,1.4299,1.4299,1.4299,1.4299,1.4299,4.1172,4.1172,4.1172,4.1172,4.1172,4.1172,4.1172,4.1172,4.1172,4.1172,4.1172,4.1172,4.1172,4.1172,4.1172,4.1172,4.1172,4.1172,4.1172,4.1172,4.1172,4.1172,4.1172,4.1172,4.1172,4.1172,4.1172,4.1172,4.1172,4.1172,4.0178,3.8231,3.596,3.2212,2.9533,2.8144,2.811,2.815,2.815,2.815,2.803,2.7589,2.7321,2.7094,2.6747,2.6453,2.64,2.64,2.64,2.64,2.64,2.64,2.64,2.64,2.64,2.64,2.64,2.64,2.64,2.64,2.64,2.64,2.64,2.64,2.64,2.64,2.64,2.64,2.64,2.64,2.64,2.64,2.6386,2.6386,2.6386,2.6255,2.6083,2.4602,2.298,2.2327,2.282,2.298,2.314,2.314,2.2659,2.2499,2.1845,2.0544,1.8416,1.5943,1.5272,1.4181,1.3887,1.3397,1.3397,1.3397,1.3397,1.3397,1.3403,1.3444,1.3587,1.3709,1.3817,1.3966,1.417,1.4272,1.4292,1.4299,1.4299,1.4299,1.4299,1.4299,1.4299,1.4299,1.4299,4.1172,4.1172,4.1172,4.1172,4.1172,4.1172,4.1172,4.1172,4.1172,4.1172,4.1172,4.1172,4.1172,4.1172,4.1172,4.1172,4.1172,4.1172,4.1172,4.1172,4.1172,4.1172,4.1172,4.1172,4.1172,4.1172,4.1172,4.1172,4.1172,4.1172,4.0021,3.7896,3.6121,3.2476,3.0015,2.8311,2.8238,2.815,2.815,2.815,2.8003,2.7589,2.7375,2.7121,2.6734,2.648,2.64,2.64,2.64,2.64,2.64,2.64,2.64,2.64,2.64,2.64,2.64,2.64,2.64,2.64,2.64,2.64,2.64,2.64,2.64,2.64,2.64,2.64,2.64,2.64,2.64,2.64,2.64,2.64,2.64,2.6386,2.6228,2.5581,2.4111,2.4111,2.4602,2.4442,2.4602,2.4933,2.4602,2.4761,2.4271,2.314,2.1867,1.9391,1.6433,1.5342,1.4052,1.3397,1.3397,1.3397,1.3397,1.3403,1.3403,1.3424,1.3512,1.3627,1.3749,1.3912,1.4109,1.4231,1.4292,1.4299,1.4299,1.4299,1.4299,1.4299,1.4299,1.4299,1.4299,4.1172,4.1172,4.1172,4.1172,4.1172,4.1172,4.1172,4.1172,4.1172,4.1172,4.1172,4.1172,4.1172,4.1172,4.1172,4.1172,4.1172,4.1172,4.1172,4.1172,4.1172,4.1172,4.1172,4.1172,4.1172,4.1172,4.1172,4.1172,4.1172,4.1172,4.0197,3.9374,3.7082,3.4034,3.1511,2.9395,2.8171,2.8265,2.815,2.8136,2.7949,2.7669,2.7468,2.7175,2.6747,2.6547,2.64,2.64,2.64,2.64,2.64,2.64,2.64,2.64,2.64,2.64,2.64,2.64,2.64,2.64,2.64,2.64,2.64,2.64,2.64,2.64,2.64,2.64,2.64,2.64,2.64,2.64,2.64,2.64,2.64,2.64,2.6386,2.6386,2.6228,2.6056,2.5898,2.5568,2.574,2.6228,2.6386,2.5911,2.574,2.5251,2.4541,2.3489,1.946,1.6664,1.4871,1.3397,1.3397,1.3397,1.3397,1.3397,1.3403,1.3424,1.3471,1.3566,1.3709,1.3871,1.4048,1.4129,1.419,1.4278,1.4299,1.4278,1.4265,1.4278,1.4285,1.4299,1.4299,4.1172,4.1172,4.1172,4.1172,4.1172,4.1172,4.1172,4.1172,4.1172,4.1172,4.1172,4.1172,4.1172,4.1172,4.1172,4.1172,4.1172,4.1172,4.1172,4.1172,4.1172,4.1172,4.1172,4.1172,4.1172,4.1172,4.1172,4.1172,4.1172,4.1172,4.1172,4.1016,3.8724,3.6459,3.5142,3.02,2.8814,2.9859,2.8714,2.7923,2.7963,2.7789,2.7535,2.7215,2.6894,2.664,2.6453,2.64,2.64,2.64,2.64,2.64,2.64,2.64,2.64,2.64,2.64,2.64,2.64,2.64,2.64,2.64,2.64,2.64,2.64,2.64,2.64,2.64,2.64,2.64,2.64,2.64,2.64,2.64,2.64,2.64,2.64,2.64,2.6386,2.6228,2.5898,2.5727,2.6056,2.64,2.64,2.64,2.6386,2.6228,2.599,2.568,2.2497,1.7973,1.5154,1.3528,1.3397,1.3397,1.3397,1.3397,1.3397,1.3424,1.3471,1.3559,1.3668,1.3804,1.3926,1.3994,1.4061,1.4122,1.417,1.4177,1.4183,1.4238,1.4258,1.4251,1.4299,4.1172,4.1172,4.1172,4.1172,4.1172,4.1172,4.1172,4.1172,4.1172,4.1172,4.1172,4.1172,4.1172,4.1172,4.1172,4.1172,4.1172,4.1172,4.1172,4.1172,4.1172,4.1172,4.1172,4.1172,4.1172,4.1172,4.1172,4.1172,4.1172,4.1172,4.1172,4.0997,3.9235,3.8094,3.8545,3.2655,2.9977,3.2674,2.9878,2.8538,2.8068,2.7687,2.7228,2.6947,2.6667,2.6533,2.64,2.64,2.64,2.64,2.64,2.64,2.64,2.64,2.64,2.64,2.64,2.64,2.64,2.64,2.64,2.64,2.64,2.64,2.64,2.64,2.64,2.64,2.64,2.64,2.64,2.64,2.64,2.64,2.64,2.64,2.64,2.64,2.64,2.607,2.574,2.5898,2.6228,2.64,2.64,2.64,2.64,2.64,2.6281,2.5909,2.3615,1.942,1.542,1.3631,1.3528,1.3397,1.3397,1.3397,1.3397,1.3431,1.3464,1.3532,1.3607,1.3512,1.3606,1.368,1.3899,1.3912,1.3953,1.4014,1.4061,1.4102,1.4116,1.4109,1.4217,4.0781,4.0644,4.0801,4.0762,4.0703,4.0996,4.1074,4.0937,4.1074,4.1172,4.1172,4.1172,4.1172,4.1172,4.1172,4.1172,4.1172,4.1172,4.1172,4.1172,4.1172,4.1172,4.1172,4.1172,4.1172,4.1172,4.1172,4.1172,4.1172,4.1172,4.1172,4.0997,3.9902,3.9655,4.016,3.497,3.3193,3.7024,3.2445,3.0173,2.9015,2.8111,2.727,2.6841,2.668,2.652,2.64,2.64,2.64,2.64,2.64,2.64,2.64,2.64,2.64,2.64,2.64,2.64,2.64,2.64,2.64,2.64,2.64,2.64,2.64,2.64,2.64,2.64,2.64,2.64,2.64,2.64,2.64,2.64,2.64,2.64,2.64,2.64,2.64,2.6228,2.607,2.607,2.64,2.64,2.64,2.64,2.64,2.64,2.644,2.6016,2.3716,2.0554,1.622,1.3788,1.3542,1.3397,1.3397,1.3397,1.3397,1.341,1.3437,1.3478,1.3365,1.3412,1.3472,1.3539,1.3579,1.3763,1.3824,1.3905,1.3933,1.3946,1.3953,1.396,1.4034,4.0234,3.998,4.0293,4.0254,4.0039,4.0742,4.0879,4.0644,4.0976,4.1172,4.1172,4.1172,4.1172,4.1172,4.1172,4.1172,4.1172,4.1172,4.1172,4.1172,4.1172,4.1172,4.1172,4.1172,4.1172,4.1172,4.1172,4.1172,4.1172,4.1172,4.1172,4.1172,4.125,4.123,3.999,3.8286,3.7241,3.8489,3.6247,3.3611,3.1258,2.8621,2.7459,2.6854,2.6747,2.6627,2.6466,2.64,2.64,2.64,2.64,2.64,2.64,2.64,2.64,2.64,2.64,2.64,2.64,2.64,2.64,2.64,2.64,2.64,2.64,2.64,2.64,2.64,2.64,2.64,2.64,2.64,2.64,2.64,2.64,2.64,2.64,2.64,2.64,2.64,2.64,2.64,2.64,2.64,2.64,2.64,2.64,2.64,2.6255,2.5672,2.4233,2.0554,1.6228,1.4467,1.3549,1.3397,1.3397,1.3397,1.3397,1.3397,1.341,1.3444,1.3458,1.3451,1.3505,1.3412,1.3452,1.3648,1.3715,1.3763,1.3797,1.3797,1.377,1.3783,1.3824,3.998,3.9902,4.0,3.9961,3.998,4.0449,4.0605,4.0605,4.0976,4.1172,4.1172,4.1172,4.1172,4.1172,4.1172,4.1172,4.1172,4.1172,4.1172,4.1172,4.1172,4.1172,4.1172,4.1172,4.1172,4.1172,4.1172,4.1172,4.1172,4.1172,4.1172,4.1172,4.1172,4.1191,4.099,3.9877,3.9418,3.9801,3.9168,3.6737,3.3692,3.0775,2.72,2.66,2.6466,2.644,2.64,2.64,2.64,2.64,2.64,2.64,2.64,2.64,2.64,2.64,2.64,2.64,2.64,2.64,2.64,2.64,2.64,2.64,2.64,2.64,2.64,2.64,2.64,2.64,2.64,2.64,2.64,2.64,2.64,2.64,2.64,2.64,2.64,2.64,2.64,2.64,2.64,2.64,2.64,2.64,2.64,2.64,2.5924,2.5327,2.4751,2.0382,1.5902,1.4474,1.3383,1.3397,1.3397,1.3397,1.3397,1.3397,1.3397,1.3397,1.3403,1.341,1.341,1.3458,1.3492,1.3546,1.3526,1.3566,1.3634,1.3648,1.3614,1.3614,1.3675]}]]